[[{"header":{"parameterUnit":"m.s-1","parameterCategory":1,"la1":31.0,"la2":29.5877,"lo1":-88.7671,"lo2":-86.6584,"dy":0.0162,"dx":0.0185,"nx":115,"ny":88,"refTime":"2024-03-10T18:00:00:Z","depth":0,"parameterNumber":2,"parameterNumberName":"U-component_of_WINDS"},"data":[0.0,0.0,0.0,0.0,0.0,0.0,0.0,0.0,0.0,0.0,0.0,0.0,0.0,0.0,0.0,0.0,0.0,0.0,0.0,0.0,0.0,0.0,0.0,0.0,0.0,0.0,0.0,0.0,0.0,0.0,0.0,0.0,0.0,0.0,0.0,0.0,0.0,0.0,0.0,0.0,0.0,0.0,0.0,0.0,0.0,0.0,0.0,0.0,0.0,0.0,0.0,0.0,0.0,0.0,0.0,0.0,0.0,0.0,0.0,0.0,0.0,0.0,0.0,0.0,0.0,0.0,0.0,0.0,0.0,0.0,0.0,0.0,0.0,0.0,0.0,0.0,0.0,0.0,0.0,0.0,0.0,0.0,0.0,0.0,0.0,0.0,0.0,0.0,0.0,0.0,0.0,0.0,0.0,0.0,0.0,0.0,0.0,0.0,0.0,0.0,0.0,0.0,0.0,0.0,0.0,0.0,0.0,0.0,0.0,0.0,0.0,0.0,0.0,0.0,0.0,0.0,0.0,0.0,0.0,0.0,0.0,0.0,0.0,0.0,0.0,0.0,0.0,0.0,0.0,0.0,0.0,0.0,0.0,0.0,0.0,0.0,0.0,0.0,0.0,0.0,0.0,0.0,0.0,0.0,0.0,0.0,0.0,0.0,0.0,0.0,0.0,0.0,0.0,0.0,0.0,0.0,0.0,0.0,0.0,0.0,0.0,0.0,0.0,0.0,0.0,0.0,0.0,0.0,0.0,0.0,0.0,0.0,0.0,0.0,0.0,0.0,0.0,0.0,0.0,0.0,0.0,0.0,0.0,0.0,0.0,0.0,0.0,0.0,0.0,0.0,0.0,0.0,0.0,0.0,0.0,0.0,0.0,0.0,0.0,0.0,0.0,0.0,0.0,0.0,0.0,0.0,0.0,0.0,0.0,0.0,0.0,0.0,0.0,0.0,0.0,0.0,0.0,0.0,0.0,0.0,0.0,0.0,0.0,0.0,0.0,0.0,0.0,0.0,0.0,0.0,0.0,0.0,0.0,0.0,0.0,0.0,0.0,0.0,0.0,0.0,0.0,0.0,0.0,0.0,0.0,0.0,0.0,0.0,0.0,0.0,0.0,0.0,0.0,0.0,0.0,0.0,0.0,0.0,0.0,0.0,0.0,0.0,0.0,0.0,0.0,0.0,0.0,0.0,0.0,0.0,0.0,0.0,0.0,0.0,0.0,0.0,0.0,0.0,0.0,0.0,0.0,0.0,0.0,0.0,0.0,0.0,0.0,0.0,0.0,0.0,0.0,0.0,0.0,0.0,0.0,0.0,0.0,0.0,0.0,0.0,0.0,0.0,0.0,0.0,0.0,0.0,0.0,0.0,0.0,0.0,0.0,0.0,0.0,0.0,0.0,0.0,0.0,0.0,0.0,0.0,0.0,0.0,0.0,0.0,0.0,0.0,0.0,0.0,0.0,0.0,0.0,0.0,0.0,0.0,0.0,0.0,0.0,0.0,0.0,0.0,0.0,0.0,0.0,0.0,0.0,0.0,0.0,0.0,0.0,0.0,0.0,0.0,0.0,0.0,0.0,0.0,0.0,0.0,0.0,0.0,0.0,0.0,0.0,0.0,0.0,0.0,0.0,0.0,0.0,0.0,0.0,0.0,0.0,0.0,0.0,0.0,0.0,0.0,0.0,0.0,0.0,0.0,0.0,0.0,0.0,0.0,0.0,0.0,0.0,0.0,0.0,0.0,0.0,0.0,0.0,0.0,0.0,0.0,0.0,0.0,0.0,0.0,0.0,0.0,0.0,0.0,0.0,0.0,0.0,0.0,0.0,0.0,0.0,0.0,0.0,0.0,0.0,0.0,0.0,0.0,0.0,0.0,0.0,0.0,0.0,0.0,0.0,0.0,0.0,0.0,0.0,0.0,0.0,0.0,0.0,0.0,0.0,0.0,0.0,0.0,0.0,0.0,0.0,0.0,0.0,0.0,0.0,0.0,0.0,0.0,0.0,0.0,0.0,0.0,0.0,0.0,0.0,0.0,0.0,0.0,0.0,0.0,0.0,0.0,0.0,0.0,0.0,0.0,0.0,0.0,0.0,0.0,0.0,0.0,0.0,0.0,0.0,0.0,0.0,0.0,0.0,0.0,0.0,0.0,0.0,0.0,0.0,0.0,0.0,0.0,0.0,0.0,0.0,0.0,0.0,0.0,0.0,0.0,0.0,0.0,0.0,0.0,0.0,0.0,0.0,0.0,0.0,0.0,0.0,0.0,0.0,0.0,0.0,0.0,0.0,0.0,0.0,0.0,0.0,0.0,0.0,0.0,0.0,0.0,0.0,0.0,0.0,0.0,0.0,0.0,0.0,0.0,0.0,0.0,0.0,0.0,0.0,0.0,0.0,0.0,0.0,0.0,0.0,0.0,0.0,0.0,0.0,0.0,0.0,0.0,0.0,0.0,0.0,0.0,0.0,0.0,0.0,0.0,0.0,0.0,0.0,0.0,0.0,0.0,0.0,0.0,0.0,0.0,0.0,0.0,0.0,0.0,0.0,0.0,0.0,0.0,0.0,0.0,0.0,0.0,0.0,0.0,0.0,0.0,0.0,0.0,0.0,0.0,0.0,0.0,0.0,0.0,0.0,0.0,0.0,0.0,0.0,0.0,0.0,0.0,0.0,0.0,0.0,0.0,0.0,0.0,0.0,0.0,0.0,0.0,0.0,0.0,0.0,0.0,0.0,0.0,0.0,0.0,0.0,0.0,0.0,0.0,0.0,0.0,0.0,0.0,0.0,0.0,0.0,0.0,0.0,0.0,0.0,0.0,0.0,0.0,0.0,0.0,0.0,0.0,0.0,0.0,0.0,0.0,0.0,0.0,0.0,0.0,0.0,0.0,0.0,0.0,0.0,0.0,0.0,0.0,0.0,0.0,0.0,0.0,0.0,0.0,0.0,0.0,0.0,0.0,0.0,0.0,0.0,0.0,0.0,0.0,0.0,0.0,0.0,0.0,0.0,0.0,0.0,0.0,0.0,0.0,0.0,0.0,0.0,0.0,0.0,0.0,0.0,0.0,0.0,0.0,0.0,0.0,0.0,0.0,0.0,0.0,0.0,0.0,0.0,0.0,0.0,0.0,0.0,0.0,0.0,0.0,0.0,0.0,0.0,0.0,0.0,0.0,0.0,0.0,0.0,0.0,0.0,0.0,0.0,0.0,0.0,0.0,0.0,0.0,0.0,0.0,0.0,0.0,0.0,0.0,0.0,0.0,0.0,0.0,0.0,0.0,0.0,0.0,0.0,0.0,0.0,0.0,0.0,0.0,0.0,0.0,0.0,0.0,0.0,0.0,0.0,0.0,0.0,0.0,0.0,0.0,0.0,0.0,0.0,0.0,0.0,0.0,0.0,0.0,0.0,0.0,0.0,0.0,0.0,0.0,0.0,0.0,0.0,0.0,0.0,0.0,0.0,0.0,0.0,0.0,0.0,0.0,0.0,0.0,0.0,0.0,0.0,0.0,0.0,0.0,0.0,0.0,0.0,0.0,0.0,0.0,0.0,0.0,0.0,0.0,0.0,0.0,0.0,0.0,0.0,0.0,0.0,0.0,0.0,0.0,0.0,0.0,0.0,0.0,0.0,0.0,0.0,0.0,0.0,0.0,0.0,0.0,0.0,0.0,0.0,0.0,0.0,0.0,0.0,0.0,0.0,0.0,0.0,0.0,0.0,0.0,0.0,0.0,0.0,0.0,0.0,0.0,0.0,0.0,0.0,0.0,0.0,0.0,0.0,0.0,0.0,0.0,0.0,0.0,0.0,0.0,0.0,0.0,0.0,0.0,0.0,0.0,0.0,0.0,0.0,0.0,0.0,0.0,0.0,0.0,0.0,0.0,0.0,0.0,0.0,0.0,0.0,0.0,0.0,0.0,0.0,0.0,0.0,0.0,0.0,0.0,0.0,0.0,0.0,0.0,0.0,0.0,0.0,0.0,0.0,0.0,0.0,0.0,0.0,0.0,0.0,0.0,0.0,0.0,0.0,0.0,0.0,0.0,0.0,0.0,0.0,0.0,0.0,0.0,0.0,0.0,0.0,0.0,0.0,0.0,0.0,0.0,0.0,0.0,0.0,0.0,0.0,0.0,0.0,0.0,0.0,0.0,0.0,0.0,0.0,0.0,0.0,0.0,0.0,0.0,0.0,0.0,0.0,0.0,0.0,0.0,0.0,0.0,0.0,0.0,0.0,0.0,0.0,0.0,0.0,0.0,0.0,0.0,0.0,0.0,0.0,0.0,0.0,0.0,0.3991,0.0,0.0,0.0,0.0,0.0,0.0,0.0,0.0,0.0,0.0,0.0,0.0,0.0,0.0,0.0,0.0,0.0,0.0,0.0,0.0,0.0,0.0,0.0,0.0,0.0,0.0,0.0,0.0,0.0,0.0,0.0,0.0,0.0,0.0,0.0,0.0,0.0,0.0,0.0,0.0,0.0,0.0,0.0,0.0,0.0,0.0,0.0,0.0,0.0,0.0,0.0,0.0,0.0,0.0,0.0,0.0,0.0,0.0,0.0,0.0,0.0,0.0,0.0,0.0,0.0,0.0,0.0,0.0,0.0,0.0,0.0,0.0,0.0,0.0,0.0,0.0,0.0,0.0,0.0,0.0,0.0,0.0,0.0,0.0,0.0,0.0,0.0,0.0,0.0,0.0,0.0,0.0,0.0,0.0,0.0,0.0,0.0,0.0,0.0,0.0,0.0,0.0,0.0,0.0,0.0,0.0,0.0,0.0,0.0,0.0,0.4549,0.4455,0.4363,0.422,0.4055,0.0,0.0,0.0,0.0,0.0,0.0,0.0,0.0,0.0,0.0,0.0,0.0,0.0,0.0,0.0,0.0,0.0,0.0,0.0,0.0,0.0,0.0,0.0,0.0,0.0,0.0,0.0,0.0,0.0,0.0,0.0,0.0,0.0,0.0,0.0,0.0,0.0,0.0,0.0,0.0,0.0,0.0,0.0,0.0,0.0,0.0,0.0,0.0,0.0,0.0,0.0,0.0,0.0,0.0,0.0,0.0,0.0,0.0,0.0,0.0,0.0,0.0,0.0,0.0,0.0,0.0,0.0,0.0,0.0,0.0,0.0,0.0,0.0,0.0,0.0,0.0,0.0,0.0,0.0,0.0,0.0,0.0,0.0,0.0,0.0,0.0,0.0,0.0,0.0,0.0,0.0,0.0,0.0,0.0,0.0,0.0,0.0,0.0,0.0,0.0,0.0,0.0,0.0,0.0,0.0,0.0,0.0,0.0,0.0,0.0,0.0,0.0,0.4391,0.423,0.4055,0.0,0.0,0.0,0.0,0.0,0.0,0.0,0.0,0.0,0.0,0.0,0.0,0.0,0.0,0.0,0.0,0.0,0.0,0.0,0.0,0.0,0.0,0.0,0.0,0.0,0.0,0.0,0.0,0.0,0.0,0.0,0.0,0.0,0.0,0.0,0.0,0.0,0.0,0.0,0.0,0.0,0.0,0.0,0.0,0.0,0.0,0.0,0.0,0.0,0.0,0.0,0.0,0.0,0.0,0.0,0.0,0.0,0.0,0.0,0.0,0.0,0.0,0.0,0.0,0.0,0.0,0.0,0.0,0.0,0.0,0.0,0.0,0.0,0.0,0.0,0.0,0.0,0.0,0.0,0.0,0.0,0.0,0.0,0.0,0.0,0.0,0.0,0.0,0.0,0.0,0.0,0.0,0.0,0.0,0.0,0.0,0.0,0.0,0.0,0.0,0.0,0.0,0.0,0.0,0.0,0.0,0.0,0.0,0.0,0.0,0.4713,0.4599,0.4467,0.0,0.3942,0.0,0.0,0.0,0.0,0.0,0.0,0.0,0.0,0.0,0.0,0.0,0.0,0.0,0.0,0.0,0.0,0.0,0.0,0.0,0.0,0.0,0.0,0.0,0.0,0.0,0.0,0.0,0.0,0.0,0.0,0.0,0.0,0.0,0.0,0.0,0.0,0.0,0.0,0.0,0.0,0.0,0.0,0.0,0.0,0.0,0.0,0.0,0.0,0.0,0.0,0.0,0.0,0.0,0.0,0.0,0.0,0.0,0.0,0.0,0.0,0.0,0.0,0.0,0.0,0.0,0.0,0.0,0.0,0.0,0.0,0.0,0.0,0.0,0.0,0.0,0.0,0.0,0.0,0.0,0.0,0.0,0.0,0.0,0.0,0.0,0.0,0.0,0.0,0.0,0.0,0.0,0.0,0.0,0.0,0.0,0.0,0.0,0.0,0.0,0.0,0.0,0.0,0.0,0.0,0.0,0.0,0.0,0.0,0.0,0.0,0.4773,0.4718,0.4468,0.4316,0.0,0.0,0.0,0.0,0.0,0.0,0.0,0.0,0.0,0.0,0.0,0.0,0.0,0.0,0.0,0.0,0.0,0.0,0.0,0.0,0.0,0.0,0.0,0.0,0.0,0.0,0.0,0.0,0.0,0.0,0.0,0.0,0.0,0.0,0.0,0.0,0.0,0.0,0.0,0.0,0.0,0.0,0.0,0.0,0.0,0.0,0.0,0.0,0.0,0.0,0.0,0.0,0.0,0.0,0.0,0.0,0.0,0.0,0.0,0.0,0.0,0.0,0.0,0.0,0.0,0.0,0.0,0.0,0.0,0.0,0.0,0.0,0.0,0.0,0.0,0.0,0.0,0.0,0.0,0.0,0.0,0.0,0.0,0.0,0.0,0.0,0.0,0.0,0.0,0.0,0.0,0.0,0.0,0.0,0.0,0.0,0.0,0.0,0.0,0.0,0.0,0.0,0.0,0.0,0.0,0.0,0.0,0.0,0.0,0.0,0.4926,0.4846,0.4781,0.4674,0.4583,0.4492,0.0,0.0,0.0,0.0,0.0,0.0,0.0,0.0,0.0,0.0,0.0,0.0,0.0,0.0,0.0,0.0,0.0,0.0,0.0,0.0,0.0,0.0,0.0,0.0,0.0,0.0,0.0,0.0,0.0,0.0,0.0,0.0,0.0,0.0,0.0,0.0,0.0,0.0,0.0,0.0,0.0,0.0,0.0,0.0,0.0,0.0,0.0,0.0,0.0,0.0,0.0,0.0,0.0,0.0,0.0,0.0,0.0,0.0,0.0,0.0,0.0,0.0,0.0,0.0,0.0,0.0,0.0,0.0,0.0,0.0,0.0,0.0,0.0,0.0,0.0,0.0,0.0,0.0,0.0,0.0,0.0,0.0,0.0,0.0,0.0,0.0,0.0,0.0,0.0,0.0,0.0,0.0,0.0,0.0,0.0,0.0,0.0,0.0,0.0,0.0,0.0,0.0,0.0,0.0,0.0,0.0,0.0,0.0,0.5103,0.5083,0.4969,0.4761,0.5191,0.5147,0.0,0.0,0.0,0.0,0.0,0.0,0.0,0.0,0.0,0.0,0.0,0.0,0.0,0.0,0.0,0.0,0.0,0.0,0.0,0.0,0.0,0.0,0.0,0.0,0.0,0.0,0.0,0.0,0.0,0.0,0.0,0.0,0.0,0.0,0.0,0.0,0.0,0.0,0.0,0.0,0.0,0.0,0.0,0.0,0.0,0.0,0.0,0.0,0.0,0.0,0.0,0.0,0.0,0.0,0.0,0.0,0.0,0.0,0.0,0.0,0.0,0.0,0.0,0.0,0.0,0.0,0.0,0.0,0.0,0.0,0.0,0.0,0.0,0.0,0.0,0.0,0.0,0.0,0.0,0.0,0.0,0.0,0.0,0.0,0.0,0.0,0.0,0.0,0.0,0.0,0.0,0.0,0.0,0.0,0.0,0.0,0.0,0.0,0.0,0.0,0.0,0.0,0.0,0.0,0.0,0.0,0.0,0.0,0.0,0.5171,0.5338,0.545,0.5546,0.5548,0.5468,0.0,0.0,0.0,0.0,0.0,0.0,0.0,0.0,0.0,0.0,0.0,0.0,0.0,0.0,0.0,0.0,0.0,0.0,0.0,0.0,0.0,0.0,0.0,0.0,0.0,0.0,0.0,0.0,0.0,0.0,0.0,0.0,0.0,0.0,0.0,0.0,0.0,0.0,0.0,0.0,0.0,0.0,0.0,0.0,0.0,0.0,0.0,0.0,0.0,0.0,0.0,0.0,0.0,0.0,0.0,0.0,0.0,0.0,0.0,0.0,0.0,0.0,0.0,0.0,0.0,0.0,0.0,0.0,0.0,0.0,0.0,0.0,0.0,0.0,0.0,0.0,0.0,0.0,0.0,0.0,0.0,0.0,0.0,0.0,0.0,0.0,0.0,0.0,0.0,0.0,0.0,0.0,0.0,0.0,0.0,0.0,0.0,0.0,0.0,0.0,0.0,0.0,0.0,0.0,0.0,0.0,0.0,0.0,0.0,0.5629,0.0,0.6053,0.6002,0.5994,0.5899,0.0,0.0,0.0,0.0,0.0,0.0,0.0,0.0,0.0,0.0,0.0,0.0,0.0,0.0,0.0,0.0,0.0,0.0,0.0,0.0,0.0,0.0,0.0,0.0,0.0,0.0,0.0,0.0,0.0,0.0,0.0,0.0,0.0,0.0,0.0,0.0,0.0,0.0,0.0,0.0,0.0,0.0,0.0,0.0,0.0,0.0,0.0,0.0,0.0,0.0,0.0,0.0,0.0,0.0,0.0,0.0,0.0,0.0,0.0,0.0,0.0,0.0,0.0,0.0,0.0,0.0,0.0,0.0,0.0,0.0,0.0,0.0,0.0,0.0,0.0,0.0,0.0,0.0,0.0,0.0,0.0,0.0,0.0,0.0,0.0,0.0,0.0,0.0,0.0,0.0,0.0,0.0,0.0,0.0,0.0,0.0,0.0,0.0,0.0,0.0,0.0,0.0,0.0,0.0,0.0,0.0,0.0,0.0,0.617,0.6492,0.6797,0.6657,0.6055,0.651,0.6435,0.0,0.0,0.0,0.0,0.0,0.0,0.0,0.0,0.0,0.0,0.0,0.0,0.0,0.0,0.0,0.0,0.0,0.0,0.0,0.0,0.0,0.0,0.0,0.0,0.0,0.0,0.0,0.0,0.0,0.0,0.0,0.0,0.0,0.0,0.0,0.0,0.0,0.0,0.0,0.0,0.0,0.0,0.0,0.0,0.0,0.0,0.0,0.0,0.0,0.0,0.0,0.0,0.0,0.0,0.0,0.0,0.0,0.0,0.0,0.0,0.0,0.0,0.0,0.0,0.0,0.0,0.0,0.0,0.0,0.0,0.0,0.0,0.0,0.0,0.0,0.0,0.0,0.0,0.0,0.0,0.0,0.0,0.0,0.0,0.0,0.0,0.0,0.0,0.0,0.0,0.0,0.0,0.0,0.0,0.0,0.0,0.0,0.0,0.0,0.0,0.0,0.0,0.0,0.0,0.0,0.0,0.0,0.0,0.0,0.7046,0.7015,0.6952,0.6833,0.6823,0.6594,0.0,0.0,0.0,0.0,0.0,0.0,0.0,0.0,0.0,0.0,0.0,0.0,0.0,0.0,0.0,0.0,0.0,0.0,0.0,0.0,0.0,0.0,0.0,0.0,0.0,0.0,0.0,0.0,0.0,0.0,0.0,0.0,0.0,0.0,0.0,0.0,0.0,0.0,0.0,0.0,0.0,0.0,0.0,0.0,0.0,0.0,0.0,0.0,0.0,0.0,0.0,0.0,0.0,0.0,0.0,0.0,0.0,0.0,0.0,0.0,0.0,0.0,0.0,0.0,0.0,0.0,0.0,0.0,0.0,0.0,0.0,0.0,0.0,0.0,0.0,0.0,0.0,0.0,0.0,0.0,0.0,0.0,0.0,0.0,0.0,0.0,0.0,0.0,0.0,0.0,0.0,0.0,0.0,0.0,0.0,0.0,0.0,0.0,0.0,0.0,0.0,0.0,0.0,0.0,0.0,0.0,0.0,0.0,0.0,0.7538,0.7356,0.7244,0.7203,0.6939,0.6652,0.6307,0.0,0.0,0.0,0.0,0.0,0.0,0.0,0.0,0.0,0.0,0.0,0.0,0.0,0.0,0.0,0.0,0.0,0.0,0.0,0.0,0.0,0.0,0.0,0.0,0.0,0.0,0.0,0.0,0.0,0.0,0.0,0.0,0.0,0.0,0.0,0.0,0.0,0.0,0.0,0.0,0.0,0.0,0.0,0.0,0.0,0.0,0.0,0.0,0.0,0.0,0.0,0.0,0.0,0.0,0.0,0.0,0.0,0.0,0.0,0.0,0.0,0.0,0.0,0.0,0.0,0.0,0.0,0.0,0.0,0.0,0.0,0.0,0.0,0.0,0.0,0.0,0.0,0.0,0.0,0.0,0.0,0.0,0.0,0.0,0.0,0.0,0.0,0.0,0.0,0.0,0.0,0.0,0.0,0.0,0.0,0.0,0.0,0.0,0.0,0.0,0.0,0.0,0.0,0.0,0.0,0.0,0.0,0.0,0.7935,0.7825,0.7587,0.7211,0.6964,0.6669,0.0,0.0,0.0,0.0,0.0,0.0,0.0,0.0,0.0,0.0,0.0,0.0,0.0,0.0,0.0,0.0,0.0,0.0,0.0,0.0,0.0,0.0,0.0,0.0,0.0,0.0,0.0,0.0,0.0,0.0,0.0,0.0,0.0,0.0,0.0,0.0,0.0,0.0,0.0,0.0,0.0,0.0,0.0,0.0,0.0,0.0,0.0,0.0,0.0,0.0,0.0,0.0,0.0,0.0,0.0,0.0,0.0,0.0,0.0,0.0,0.0,0.0,0.0,0.0,0.0,0.0,0.0,0.0,0.0,0.0,0.0,0.0,0.0,0.0,0.0,0.0,0.0,0.0,0.0,0.0,0.0,0.0,0.0,0.0,0.0,0.0,0.0,0.0,0.0,0.0,0.0,0.0,0.0,0.0,0.0,0.0,0.0,0.0,0.0,0.0,0.0,0.0,0.0,0.0,0.0,0.0,0.0,0.0,0.0,0.843,0.8568,0.8193,0.7247,0.7234,0.6936,0.0,0.0,0.0,0.0,0.0,0.0,0.0,0.0,0.0,0.0,0.0,0.0,0.0,0.0,0.0,0.0,0.0,0.0,0.0,0.0,0.0,0.0,0.0,0.0,0.0,0.0,0.0,0.0,0.0,0.0,0.0,0.0,0.0,0.0,0.0,0.0,0.0,0.0,0.0,0.0,0.0,0.0,0.0,0.0,0.0,0.0,0.0,0.0,0.0,0.0,0.0,0.0,0.0,0.0,0.0,0.0,0.0,0.0,0.0,0.0,0.0,0.0,0.0,0.0,0.0,0.0,0.0,0.0,0.0,0.0,0.0,0.0,0.0,0.0,0.0,0.0,0.0,0.0,0.0,0.0,0.0,0.0,0.0,0.0,0.0,0.0,0.0,0.0,0.0,0.0,0.0,0.0,0.0,0.0,0.0,0.0,0.0,0.0,0.0,0.0,0.0,0.0,0.0,0.0,0.0,0.0,0.0,0.0,0.8853,0.8905,0.9077,0.869,0.7724,0.7506,0.7121,0.0,0.0,0.0,0.0,0.0,0.0,0.0,0.0,0.0,0.0,0.0,0.0,0.0,0.0,0.0,0.0,0.0,0.0,0.0,0.0,0.0,0.0,0.0,0.0,0.0,0.0,0.0,0.0,0.0,0.0,0.0,0.0,0.0,0.0,0.0,0.0,0.0,0.0,0.0,0.0,0.0,0.0,0.0,0.0,0.0,0.0,0.0,0.0,0.0,0.0,0.0,0.0,0.0,0.0,0.0,0.0,0.0,0.0,0.0,0.0,0.0,0.0,0.0,0.0,0.0,0.0,0.0,0.0,0.0,0.0,0.0,0.0,0.0,0.0,0.0,0.0,0.0,0.0,0.0,0.0,0.0,0.0,0.0,0.0,0.0,0.0,0.0,0.0,0.0,0.0,0.0,0.0,0.0,0.0,0.0,0.0,0.0,0.0,0.0,0.0,0.0,0.0,0.0,0.0,0.0,0.0,0.0,0.0,0.9018,0.936,0.9419,0.9168,0.8538,0.7859,0.7315,0.0,0.0,0.0,0.0,0.0,0.0,0.0,0.0,0.0,0.0,0.0,0.0,0.0,0.0,0.0,0.0,0.0,0.0,0.0,0.0,0.0,0.0,0.0,0.0,0.0,0.0,0.0,0.0,0.0,0.0,0.0,0.0,0.0,0.0,0.0,0.0,0.0,0.0,0.0,0.0,0.0,0.0,0.0,0.0,0.0,0.0,0.0,0.0,0.0,0.0,0.0,0.0,0.0,0.0,0.0,0.0,0.0,0.0,0.0,0.0,0.0,0.0,0.0,0.0,0.0,0.0,0.0,0.0,0.0,0.0,0.0,0.0,0.0,0.0,0.0,0.0,0.0,0.0,0.0,0.0,0.0,0.0,0.0,0.0,0.0,0.0,0.0,0.0,0.0,0.0,0.0,0.0,0.0,0.0,0.0,0.0,0.0,0.0,0.0,0.0,0.0,0.0,0.0,0.0,0.0,0.0,0.0,0.0,0.9779,0.9681,0.9856,0.9733,0.9283,0.8614,0.7939,0.0,0.0,0.0,0.0,0.0,0.0,0.0,0.0,0.0,0.0,0.0,0.0,0.0,0.0,0.0,0.0,0.0,0.0,0.0,0.0,0.0,0.0,0.0,0.0,0.0,0.0,0.0,0.0,0.0,0.0,0.0,0.0,0.0,0.0,0.0,0.0,0.0,0.0,0.0,0.0,0.0,0.0,0.0,0.0,0.0,0.0,0.0,0.0,0.7789,0.0,0.0,0.0,0.0,0.0,0.0,0.0,0.0,0.0,0.0,0.0,0.0,0.0,0.0,0.0,0.0,0.0,0.0,0.0,0.0,0.0,0.0,0.0,0.0,0.0,0.0,0.0,0.0,0.0,0.0,0.0,0.0,0.0,0.0,0.0,0.0,0.0,0.0,0.0,0.0,0.0,0.0,0.0,0.0,0.0,0.0,0.0,0.0,0.0,0.0,0.0,0.0,0.0,0.0,0.0,0.0,0.0,0.0,0.0,1.0011,1.0054,0.9973,0.9775,0.941,0.8946,0.8334,0.0,0.0,0.0,0.0,0.0,0.0,0.0,0.0,0.0,0.0,0.0,0.0,0.0,0.0,0.0,0.0,0.0,0.0,0.0,0.0,0.0,0.0,0.0,0.0,0.0,0.0,0.0,0.0,0.0,0.0,0.0,0.0,0.0,0.0,0.0,0.0,0.0,0.0,0.0,0.0,0.0,0.0,0.0,0.0,0.0,0.0,0.0,0.0,0.0,0.0,0.0,0.0,0.0,0.0,0.0,0.0,0.0,0.0,0.0,0.0,0.0,0.0,0.0,0.0,0.0,0.0,0.0,0.0,0.0,0.0,0.0,0.0,0.0,0.0,0.0,0.0,0.0,0.0,0.0,0.0,0.0,0.0,0.0,0.0,0.0,0.0,0.0,0.0,0.0,0.0,0.0,0.0,0.0,0.0,0.0,0.0,0.0,0.0,0.0,0.0,0.0,0.0,0.0,0.0,0.0,0.0,0.0,1.0069,1.016,1.0342,1.0082,0.9781,0.9378,0.913,0.8648,0.7975,0.0,0.0,0.0,0.0,0.0,0.0,0.0,0.0,0.0,0.0,0.0,0.0,0.0,0.0,0.0,0.0,0.0,0.0,0.0,0.0,0.0,0.0,0.0,0.0,0.0,0.0,0.0,0.0,0.0,0.0,0.0,0.0,0.0,0.0,0.0,0.0,0.0,0.0,0.7025,0.7539,0.0,0.0,0.0,0.0,0.0,0.0,0.0,0.0,0.8353,0.0,0.0,0.0,0.0,0.0,0.0,0.0,0.0,0.0,0.0,0.0,0.0,0.0,0.0,0.0,0.0,0.0,0.0,0.0,0.0,0.0,0.0,0.0,0.0,0.0,0.0,0.0,0.0,0.0,0.0,0.0,0.0,0.0,0.0,0.0,0.0,0.0,0.0,0.0,0.0,0.0,0.0,0.0,0.0,0.0,0.0,0.0,0.0,0.0,0.0,0.0,0.0,0.0,0.0,0.0,0.0,1.0104,1.0576,1.0762,1.0637,1.0629,1.0346,0.9739,0.9467,0.8951,0.8174,0.0,0.0,0.0,0.0,0.0,0.0,0.0,0.0,0.0,0.0,0.0,0.0,0.0,0.0,0.0,0.0,0.0,0.0,0.0,0.0,0.0,0.0,0.0,0.0,0.0,0.0,0.0,0.0,0.0,0.0,0.0,0.0,0.0,0.0,0.0,0.0,0.0,0.0,0.0,0.8346,0.8885,0.0,0.0,0.0,0.0,0.0,0.0,0.0,0.0,0.9104,0.0,0.0,0.0,0.0,0.0,0.0,0.0,0.0,0.0,0.0,0.0,0.0,0.0,0.0,0.0,0.0,0.0,0.0,0.0,0.0,0.0,0.0,0.0,0.0,0.0,0.0,0.0,0.0,0.0,0.0,0.0,0.0,0.0,0.0,0.0,0.0,0.0,0.0,0.0,0.0,0.0,0.0,0.0,0.0,0.0,0.0,0.0,0.0,0.0,0.0,0.0,0.0,0.0,0.0,0.0,1.0584,1.0834,1.093,1.0846,1.0787,1.0378,0.9624,0.9441,0.8957,0.0,0.0,0.0,0.0,0.0,0.0,0.0,0.0,0.0,0.0,0.0,0.0,0.0,0.0,0.0,0.0,0.0,0.0,0.0,0.0,0.0,0.0,0.0,0.0,0.0,0.0,0.0,0.0,0.0,0.0,0.0,0.0,0.0,0.0,0.0,0.0,0.0,0.0,0.0,0.0,0.8839,0.9179,0.9391,0.0,0.0,0.0,0.0,0.0,0.0,0.9467,0.9308,0.0,0.0,0.0,0.0,0.0,0.0,0.0,0.0,0.0,0.0,0.0,0.0,0.0,0.0,0.0,0.0,0.0,0.0,0.0,0.0,0.0,0.0,0.0,0.0,0.0,0.0,0.0,0.0,0.0,0.0,0.0,0.0,0.0,0.0,0.0,0.0,0.0,0.0,0.0,0.0,0.0,0.0,0.0,0.0,0.0,0.0,0.0,0.0,0.0,0.0,0.0,0.0,0.0,0.0,0.0,1.1022,1.1005,1.1002,1.1072,1.0958,1.0498,0.9658,0.9473,0.9007,0.0,0.0,0.0,0.0,0.0,0.0,0.0,0.0,0.0,0.0,0.0,0.0,0.0,0.0,0.0,0.0,0.0,0.0,0.0,0.0,0.0,0.0,0.0,0.0,0.0,0.0,0.0,0.0,0.0,0.0,0.0,0.0,0.0,0.0,0.0,0.0,0.0,0.0,0.0,0.0,0.0,0.9465,0.9776,0.9897,0.0,0.0,0.0,0.0,0.9942,0.972,0.0,0.0,0.0,0.0,0.0,0.0,0.0,0.0,0.0,0.0,0.0,0.0,0.0,0.0,0.0,0.0,0.0,0.0,0.0,0.0,0.0,0.0,0.0,0.0,0.0,0.0,0.0,0.0,0.0,0.0,0.0,0.0,0.0,0.0,0.0,0.0,0.0,0.0,0.0,0.0,0.0,0.0,0.0,0.0,0.0,0.0,0.0,0.0,0.0,0.0,0.0,0.0,0.0,0.0,0.0,0.0,1.0887,1.1158,1.1297,1.1365,1.1495,1.1195,1.04,0.9978,0.9371,0.0,0.0,0.0,0.0,0.0,0.0,0.0,0.0,0.0,0.0,0.0,0.0,0.0,0.0,0.0,0.0,0.0,0.0,0.0,0.0,0.0,0.0,0.0,0.0,0.0,0.0,0.0,0.0,0.0,0.0,0.0,0.0,0.0,0.0,0.0,0.0,0.0,0.0,0.0,0.0,0.0,1.0172,1.0217,1.0531,1.0774,0.0,0.0,1.0761,1.0752,1.0543,0.0,0.0,0.0,0.0,0.0,0.0,0.0,0.0,0.0,0.0,0.0,0.0,0.0,0.0,0.0,0.0,0.0,0.0,0.0,0.0,0.0,0.0,0.0,0.0,0.0,0.0,0.0,0.0,0.0,0.0,0.0,0.0,0.0,0.0,0.0,0.0,0.0,0.0,0.0,0.0,0.0,0.0,0.0,0.0,0.0,0.0,0.0,0.0,0.0,0.0,0.0,0.0,0.0,0.0,0.0,1.0704,1.118,1.146,1.1628,1.168,1.1626,1.1203,1.0406,0.9924,0.9368,0.0,0.0,0.0,0.0,0.0,0.0,0.0,0.0,0.0,0.0,0.0,0.0,0.0,0.0,0.0,0.0,0.0,0.0,0.0,0.0,0.0,0.0,0.0,0.0,0.0,0.0,0.0,0.0,0.0,0.0,0.0,0.0,0.0,0.0,0.0,0.0,0.0,0.0,0.0,0.0,0.0,0.0,1.0616,1.08,0.0,0.0,0.0,1.0892,1.0892,0.0,0.0,0.0,0.0,0.0,0.0,0.0,0.0,0.0,0.0,0.0,0.0,0.0,0.0,0.0,0.0,0.0,0.0,0.0,0.0,0.0,0.0,0.0,0.0,0.0,0.0,0.0,0.0,0.0,0.0,0.0,0.0,0.0,0.0,0.0,0.0,0.0,0.0,0.0,0.0,0.0,0.0,0.0,0.0,0.0,0.0,0.0,0.0,0.0,0.0,0.0,0.0,0.0,0.0,0.0,0.0,0.0,1.1339,1.1684,1.1904,1.1953,1.1718,1.1255,1.059,1.0022,0.0,0.0,0.0,0.0,0.0,0.0,0.0,0.0,0.0,0.0,0.0,0.0,0.0,0.0,0.0,0.0,0.0,0.0,0.0,0.0,0.0,0.0,0.0,0.0,0.0,0.0,0.0,0.7606,0.0,0.0,0.0,0.0,0.0,0.0,0.0,0.0,0.0,0.0,0.0,0.0,0.0,0.0,1.0715,1.1009,1.1221,1.1361,0.0,0.0,1.1458,1.1324,1.1106,1.088,0.0,0.0,0.0,0.0,0.0,0.0,0.0,0.0,0.0,0.0,0.0,0.0,0.0,0.0,0.0,0.0,0.0,0.0,0.0,0.0,0.0,0.0,0.0,0.0,0.0,0.0,0.0,0.0,0.0,0.0,0.0,0.0,0.0,0.0,0.0,0.0,0.0,0.0,0.0,0.0,0.0,0.0,0.0,0.0,0.0,0.0,0.0,0.0,0.0,0.0,0.0,0.0,0.0,0.0,0.0,1.1216,1.1731,1.205,1.2158,1.1926,1.1631,1.132,1.0511,0.9807,0.0,0.0,0.0,0.0,0.0,0.0,0.0,0.0,0.0,0.0,0.0,0.0,0.0,0.0,0.0,0.0,0.0,0.0,0.0,0.0,0.0,0.0,0.0,0.0,0.0,0.0,0.0,0.0,0.0,0.0,0.0,0.0,0.0,0.0,0.0,0.0,0.0,0.0,0.0,0.0,0.0,1.1418,1.1455,1.2101,1.2573,0.0,0.0,1.2966,1.2456,1.2269,1.187,1.1022,0.0,0.0,0.0,0.0,0.0,0.0,0.0,0.0,0.0,0.0,0.0,0.0,0.0,0.0,0.0,0.0,0.0,0.0,0.0,0.0,0.0,0.0,0.0,0.0,0.0,0.0,0.0,0.0,0.0,0.0,0.0,0.0,0.0,0.0,0.0,0.0,0.0,0.0,0.0,0.0,0.0,0.0,0.0,0.0,0.0,0.0,0.0,0.0,0.0,0.0,0.0,0.0,0.0,1.1113,1.1083,1.1935,1.2319,1.2189,1.1854,1.1597,1.1411,1.0484,0.9871,0.0,0.0,0.0,0.0,0.0,0.0,0.0,0.0,0.0,0.0,0.0,0.0,0.0,0.0,0.0,0.0,0.0,0.0,0.0,0.0,0.0,0.0,0.0,0.0,0.0,0.0,0.0,0.0,0.8871,0.9037,0.892,0.0,0.0,0.0,0.0,0.0,0.0,0.0,0.0,0.0,0.0,1.1951,1.2199,1.2703,0.0,0.0,1.3027,1.3005,1.2721,1.2369,1.2005,1.1622,1.1089,0.0,0.0,0.0,0.0,0.0,0.0,0.0,0.0,0.0,0.0,0.0,0.0,0.0,0.0,0.0,0.0,0.0,0.0,0.0,0.0,0.0,0.0,0.0,0.0,0.0,0.0,0.0,0.0,0.0,0.0,0.0,0.0,0.0,0.0,0.0,0.0,0.0,0.0,0.0,0.0,0.0,0.0,0.0,0.0,0.0,0.0,0.0,0.0,0.0,0.0,0.0,0.0,1.1252,1.1117,1.2137,1.2538,1.2258,1.1993,1.1756,1.151,1.0695,1.0107,0.0,0.0,0.0,0.0,0.0,0.0,0.0,0.0,0.0,0.0,0.0,0.0,0.0,0.0,0.0,0.0,0.0,0.0,0.0,0.0,0.0,0.0,0.0,0.0,0.0,0.0,0.0,0.0,0.928,0.9357,0.9124,0.0,0.0,0.0,0.0,0.0,0.0,0.0,0.0,0.0,0.0,1.2422,1.2827,1.3177,1.3341,1.3202,1.3259,1.3211,1.2965,1.2594,1.2317,1.215,0.0,0.0,0.0,0.0,0.0,0.0,0.0,0.0,0.0,0.0,0.0,0.0,0.0,0.0,0.0,0.0,0.0,0.0,0.0,0.0,0.0,0.0,0.0,0.0,0.0,0.0,0.0,0.0,0.0,0.0,0.8928,0.0,0.0,0.0,0.0,0.0,0.0,0.0,0.0,0.0,0.0,0.0,0.0,0.0,0.0,0.0,0.0,0.0,0.0,0.0,0.0,0.0,0.0,1.1279,1.1412,1.2323,1.2662,1.2417,1.2454,1.2247,1.1812,1.1263,1.0632,0.993,0.0,0.0,0.0,0.0,0.0,0.0,0.0,0.0,0.0,0.0,0.0,0.0,0.0,0.0,0.0,0.0,0.0,0.0,0.0,0.0,0.0,0.0,0.0,0.0,0.0,0.0,0.9456,0.9667,0.9598,0.0,0.0,0.0,0.0,0.0,0.0,0.0,0.0,0.0,0.0,1.2441,1.2836,1.3222,1.3454,1.3613,1.3584,1.3791,1.3791,1.3275,1.3171,1.2998,0.0,0.0,0.0,0.0,0.0,0.0,0.0,0.0,0.0,0.0,0.0,0.0,0.0,0.0,0.0,0.0,0.0,0.0,0.0,0.0,0.0,0.0,0.0,0.0,0.0,0.0,0.0,0.9251,0.92,0.0,0.0,0.0,0.0,0.0,0.0,0.0,0.0,0.0,0.0,0.0,1.0828,1.087,0.0,0.0,0.0,0.0,0.0,0.0,0.0,0.0,0.0,0.0,0.0,0.0,1.1532,1.1691,1.2409,1.2783,1.2737,1.2599,1.2381,1.2142,1.1624,1.1003,1.0324,0.0,0.0,0.0,0.0,0.0,0.0,0.0,0.0,0.0,0.0,0.0,0.0,0.0,0.0,0.0,0.0,0.0,0.0,0.0,0.0,0.0,0.0,0.0,0.0,0.0,0.9637,0.0,0.0,0.0,0.0,0.0,0.0,0.0,0.0,0.0,0.0,0.0,1.185,1.224,1.2865,1.3321,1.3371,1.3654,1.3835,0.0,0.0,0.0,0.0,0.0,0.0,0.0,0.0,0.0,0.0,0.0,0.0,0.0,0.0,1.2303,1.2078,1.1808,1.1631,1.1631,0.0,0.0,0.0,0.0,0.0,0.0,0.0,0.0,0.0,0.0,0.0,0.0,0.0,0.0,1.0171,0.0,1.0145,0.0,0.0,0.0,0.0,0.0,0.0,0.0,0.0,1.1346,1.1564,1.1528,1.1714,1.1781,0.0,1.1733,1.1484,0.0,0.0,0.0,0.0,0.0,0.0,0.0,0.0,1.1804,1.1958,1.259,1.2885,1.2766,1.2709,1.2526,1.2204,1.1741,1.1294,1.0849,1.0388,0.9943,0.0,0.0,0.0,0.0,0.0,0.0,0.0,0.0,0.0,0.0,0.0,0.0,0.0,0.0,0.0,0.0,0.0,0.0,0.0,0.0,0.0,0.0,0.0,0.9803,0.0,0.0,0.0,0.0,0.0,0.0,0.0,0.0,0.0,1.1184,1.1677,1.2184,1.2685,1.3195,1.3555,1.362,0.0,0.0,0.0,0.0,0.0,0.0,0.0,1.348,1.3486,1.3258,1.3103,1.3194,1.3282,1.339,1.3558,0.0,0.0,1.3136,1.2839,1.2636,1.2659,1.2373,1.221,1.2469,1.2451,1.2479,0.0,0.0,0.0,0.0,0.0,0.0,0.0,0.0,1.187,1.185,0.0,1.1818,0.0,0.0,0.0,0.0,0.0,1.1138,0.0,0.0,1.2154,1.2447,1.2389,1.309,1.34,1.3309,1.3263,1.2869,1.2119,1.1424,0.0,0.0,0.0,0.0,0.0,0.0,1.2103,1.2241,1.2847,1.2971,1.2559,1.2822,1.2696,1.2051,1.1702,1.1517,1.1493,1.0894,1.052,1.0485,0.9629,0.0,0.0,0.0,0.0,0.0,0.0,0.0,0.0,0.0,0.0,0.0,0.0,0.0,0.0,0.0,0.0,0.0,0.0,0.0,0.0,0.983,0.0,0.0,0.0,0.0,0.0,0.0,0.0,0.0,0.0,0.0,1.1874,1.1905,1.2261,1.3258,0.0,0.0,0.0,0.0,1.4299,1.4299,1.4491,1.465,1.4659,1.4494,1.4362,1.4362,0.0,0.0,1.4609,1.465,1.4625,1.4684,1.465,1.4445,1.3687,1.3562,1.3489,1.3498,1.3465,1.3498,1.3521,1.3457,1.3531,1.1776,0.0,0.0,0.0,0.0,1.1474,1.1616,1.1768,1.1865,1.1844,1.1768,1.1747,0.0,0.0,0.0,0.0,0.0,0.0,1.1994,1.2125,1.2854,1.3199,1.3178,1.3294,1.3346,1.3309,1.3309,1.319,1.296,1.2744,1.2086,1.1025,0.0,0.0,0.0,0.0,1.277,1.2919,1.2961,1.2953,1.287,1.2855,1.2718,1.2447,1.2074,1.1868,1.1846,1.1446,1.0976,1.052,1.0247,0.0,0.0,0.0,0.0,0.0,0.0,0.0,0.0,0.0,0.0,0.0,0.0,0.0,0.0,0.0,0.0,0.0,0.0,0.0,1.0545,1.0582,1.0582,0.0,0.0,0.0,0.0,0.0,0.0,0.0,0.0,0.0,1.3056,1.3284,1.3431,0.0,0.0,1.4467,1.4501,1.4419,1.4374,1.4374,1.4312,0.0,0.0,1.4214,1.4181,1.4197,1.4181,1.4214,1.4263,1.4272,1.4355,1.4664,1.4706,1.4697,1.4697,1.4404,1.4117,1.3955,1.3922,1.3938,1.3938,1.3922,1.3939,1.2538,1.16,1.1865,1.2107,1.2311,1.2409,1.2562,1.2728,1.2811,1.2811,1.2728,1.2728,1.2681,1.2588,1.2395,0.0,0.0,0.0,1.2832,1.2944,1.3542,1.3797,1.3742,1.383,1.382,1.3782,1.3725,1.3596,1.3432,1.3358,1.277,1.1707,0.0,0.0,1.2308,1.2814,1.3109,1.3174,1.3111,1.3052,1.2996,1.2821,1.2691,1.2606,1.236,1.2234,1.2241,1.1884,1.1461,1.0918,1.0639,1.0187,0.0,0.0,0.0,0.0,0.0,0.0,0.0,0.0,0.0,0.0,0.0,0.864,0.0,0.0,0.0,0.0,1.0301,1.0695,1.109,1.1127,0.0,0.0,0.0,0.0,0.0,0.0,0.0,1.283,1.2835,1.3127,1.3975,1.4306,1.4397,1.4139,1.4447,1.4674,1.4593,0.0,1.4522,1.4505,1.452,1.4535,1.4535,1.4607,1.4712,1.4825,1.4849,1.4884,1.4955,1.4972,1.5055,1.527,1.5336,1.5376,1.5491,1.5261,1.4909,1.4601,1.4659,1.4732,1.4732,1.4856,1.4955,1.3282,1.2994,1.3428,1.3629,1.3688,1.3813,1.4001,1.4247,1.4264,1.4261,1.4274,1.4274,1.4181,1.4037,1.3796,0.0,1.3486,1.3523,1.3587,1.3728,1.4133,1.4251,1.4146,1.4495,1.4606,1.4461,1.4342,1.4072,1.3696,1.3551,1.332,1.2998,1.31,1.3097,1.3035,1.3169,1.3241,1.3212,1.3245,1.318,1.2974,1.2729,1.2606,1.2606,1.2606,1.2606,1.2598,1.221,1.1838,1.1495,1.0873,1.0411,1.0088,0.0,0.0,0.0,0.0,0.0,0.0,0.0,0.0,0.0,0.0,0.0,0.0,0.0,0.0,0.0,1.0757,0.0,1.1566,1.1591,0.0,0.0,0.0,1.2699,1.2573,1.2896,1.3285,1.3746,0.0,0.0,1.4649,1.4992,1.5069,1.4812,1.462,1.4488,1.4455,1.4663,1.4775,1.4774,1.5011,1.5251,1.5206,1.5361,1.5535,1.5772,1.5996,1.5962,1.6106,1.616,1.6228,1.6168,1.6234,1.6171,1.6007,1.5896,1.5805,1.5312,1.547,1.5663,1.562,1.586,1.601,1.4481,1.4405,1.4477,1.413,1.3568,1.3581,1.368,1.3838,1.3953,1.3997,1.3997,1.3984,1.3873,1.3626,1.3581,1.3477,1.3368,1.3672,1.3815,1.3871,1.4277,1.4433,1.4422,1.4401,1.4372,1.4342,1.4154,1.417,1.4351,1.4338,1.4405,1.4541,1.4479,1.4026,1.3202,1.3491,1.357,1.3436,1.3183,1.2943,1.2706,1.2636,1.2606,1.2606,1.2606,1.2606,1.2606,1.2218,1.1846,1.1517,1.1098,1.0607,0.9978,0.9994,0.0,0.0,0.0,0.0,0.0,0.0,0.0,0.0,0.0,0.9936,1.0391,0.0,1.068,0.0,1.1536,1.2057,1.2453,1.2489,0.0,0.0,1.3175,1.3432,1.3944,1.3989,1.4149,1.4555,1.4521,1.4621,1.5018,1.5019,1.506,1.5263,1.5262,1.5184,1.5035,1.5181,1.5328,1.5318,1.5441,1.5578,1.5589,1.5605,1.5701,1.5762,1.5778,1.5797,1.5824,1.5835,1.5835,1.5854,1.5835,1.5816,1.5794,1.5778,1.5738,1.5619,1.5651,1.5688,1.5688,1.5779,1.5843,1.4813,1.4885,1.4916,1.4703,1.435,1.4117,1.4124,1.4275,1.4368,1.4396,1.4386,1.4396,1.4242,1.4044,1.4026,1.3955,1.3846,1.4066,1.4258,1.4447,1.4662,1.4818,1.4883,1.483,1.4753,1.4651,1.4477,1.4514,1.4725,1.4679,1.4744,1.4903,1.4854,1.4494,1.3915,1.4088,1.4096,1.3883,1.3536,1.3267,1.306,1.2893,1.2829,1.2814,1.2678,1.2606,1.2606,1.2376,1.2114,1.1741,1.1537,1.1187,1.0653,1.055,1.052,0.0,0.0,0.0,0.0,0.0,0.0,0.0,0.0,0.0,0.0,0.0,1.1524,1.1879,1.2418,1.2895,1.3299,1.347,1.3735,1.4115,1.4168,1.4305,1.4649,1.4613,1.4758,1.523,1.524,1.5403,1.5882,1.5781,1.5695,1.5848,1.5791,1.5615,1.5383,1.5472,1.5595,1.5584,1.565,1.5776,1.588,1.5912,1.5968,1.6111,1.6142,1.6123,1.6043,1.6016,1.5992,1.5913,1.5881,1.5881,1.5873,1.5873,1.5873,1.5881,1.59,1.5897,1.5932,1.6031,1.6123,1.4837,1.4993,1.5096,1.5251,1.5386,1.494,1.4874,1.5087,1.5102,1.5116,1.5116,1.5116,1.5003,1.482,1.4829,1.4748,1.4617,1.4626,1.4793,1.5104,1.5113,1.5185,1.5359,1.5352,1.5245,1.5074,1.4927,1.4896,1.4932,1.481,1.4786,1.4829,1.4846,1.4829,1.4788,1.4813,1.4637,1.4313,1.3983,1.3726,1.3593,1.3323,1.3148,1.3084,1.2806,1.2654,1.2606,1.2551,1.236,1.2021,1.1957,1.1798,1.1517,1.1142,1.1078,0.0,1.0878,0.0,0.0,0.0,0.0,0.0,0.0,0.0,0.0,1.1942,1.2549,1.2956,1.3338,1.3717,1.4058,1.4347,1.4709,1.5138,1.5191,1.5168,1.5148,1.5149,1.5367,1.5883,1.5942,1.619,1.6717,1.6683,1.6484,1.625,1.61,1.5913,1.5678,1.5715,1.5792,1.5764,1.5804,1.5991,1.6166,1.623,1.6285,1.6549,1.656,1.6574,1.6355,1.6322,1.6304,1.6147,1.6083,1.6105,1.6115,1.6113,1.6113,1.6083,1.6095,1.6093,1.6152,1.6335,1.6558,1.5339,1.5383,1.541,1.5458,1.5456,1.5161,1.5237,1.557,1.5681,1.5722,1.5738,1.5722,1.5659,1.5523,1.5507,1.5412,1.5223,1.5223,1.5195,1.5104,1.5104,1.5117,1.5139,1.5058,1.4992,1.4927,1.4798,1.487,1.5154,1.5129,1.5274,1.5583,1.5609,1.5513,1.5347,0.0,0.0,0.0,1.385,1.3743,1.3593,1.3545,1.3362,1.3116,1.3044,0.0,1.2606,1.2297,1.2076,1.2005,1.1741,0.0,0.0,0.0,0.0,0.0,0.0,0.0,0.0,0.0,0.0,0.0,1.3268,1.3226,1.2545,1.3042,1.3571,1.3987,1.4285,1.4489,1.4558,1.4618,1.4937,1.5575,1.567,1.5885,1.6433,1.6519,1.6586,1.666,1.6694,1.6681,1.6674,1.6474,1.6308,1.6157,1.6111,1.613,1.6066,1.6075,1.6083,1.6126,1.6297,1.6443,1.6366,1.6366,1.6293,1.6257,1.6203,1.619,1.6162,1.6149,1.6141,1.6087,1.6115,1.6095,1.6095,1.6115,1.6097,1.6115,1.6123,1.6105,1.6126,1.6165,1.619,1.5266,0.0,1.5478,1.5558,0.0,1.5599,1.5748,1.5999,1.5749,1.5666,1.565,1.565,1.556,1.5398,1.5414,1.535,1.5245,1.5245,1.5294,1.5397,1.5397,1.5469,1.5596,1.5528,1.5393,1.5215,1.5138,1.5129,1.5202,1.5193,1.5312,1.5505,1.5497,1.5443,1.5355,1.5248,1.4925,1.4341,1.4247,1.417,1.4083,1.3942,1.3767,1.3592,0.0,0.0,0.0,0.0,0.0,0.0,0.0,0.0,0.0,0.0,0.0,1.2726,1.2642,1.2764,1.3114,1.3292,1.3483,1.3678,1.4285,1.4397,1.3791,1.4018,1.4265,1.4497,1.4948,1.524,1.5266,1.5557,1.5924,1.6284,1.6353,1.6497,1.6822,1.6899,1.6976,1.7167,1.7212,1.7167,1.7139,1.6976,1.6768,1.6562,1.6469,1.644,1.6448,1.6448,1.6448,1.6448,1.6473,1.6509,1.6394,1.6299,1.6224,1.6128,1.6115,1.6053,1.5935,1.5914,1.5893,1.5777,1.5756,1.5763,1.5778,1.5862,1.6002,1.6017,1.6122,1.6227,1.6241,1.6177,1.6066,1.4963,1.5151,1.5381,1.5541,1.5708,1.5876,1.6044,1.6123,0.0,0.0,0.0,1.5549,1.5475,1.5309,1.5309,1.5284,1.5277,1.5277,1.5427,1.5667,1.5675,1.5765,1.5947,1.5938,1.5762,1.547,1.5461,1.5364,1.5196,1.5196,1.5196,1.5196,1.5196,1.5169,1.5141,1.4953,1.4846,1.4846,1.4677,1.4587,1.4597,1.4337,1.4163,1.4099,1.3568,1.3243,1.3195,1.2917,1.2789,1.2773,1.2781,1.2885,1.3156,1.3027,1.3179,1.3695,1.3371,1.345,1.4098,1.4089,1.427,1.474,1.5206,1.5274,1.4915,1.4974,1.5026,1.5094,1.5643,1.6002,1.5984,1.6523,1.6925,1.6985,1.6994,1.7019,1.7096,1.7105,1.7242,1.7481,1.7521,1.7533,1.7543,1.7383,1.7261,1.7049,1.6772,1.6689,1.6689,1.6665,1.6657,1.6596,1.6509,1.6394,1.627,1.6134,1.6025,1.595,1.595,1.5893,1.572,1.5637,1.5575,1.5472,1.5425,1.5505,1.5519,1.5803,1.5965,1.6001,1.6213,1.6389,1.6367,1.6258,1.6099,1.4748,1.4953,1.5159,1.5258,1.5275,1.5329,1.5435,1.563,1.6009,1.6182,1.6165,1.6165,1.6165,1.613,1.613,1.6078,1.5948,1.5948,1.5809,1.5527,1.5527,1.5438,1.532,1.5329,1.5285,1.5258,1.5248,1.5222,1.5196,1.5196,1.5196,1.5196,1.5196,1.5115,1.4927,1.4731,1.4641,1.4641,1.4623,1.4587,1.4587,1.4557,1.4391,1.4115,1.4004,1.3823,1.3554,1.3474,1.3458,1.3458,1.3474,1.3482,1.3521,1.3523,1.3531,1.3626,1.3671,1.3882,1.4338,1.4745,1.5376,1.6193,1.6365,1.6177,1.5711,1.5969,1.6287,1.6559,1.6651,1.6745,1.6754,1.6857,1.7062,1.7357,1.7417,1.7518,1.778,1.7795,1.7743,1.7662,1.7684,1.7515,1.7277,1.7192,1.7057,1.6833,1.673,1.6697,1.67,1.6689,1.6607,1.6497,1.6435,1.6221,1.6016,1.5803,1.5759,1.5527,1.5579,1.5608,1.5566,1.5546,1.5546,1.5452,1.5658,1.5812,1.5833,1.6096,1.6294,1.6338,1.6433,1.6448,1.6462,1.6426,1.6359,1.4382,1.4479,1.4677,1.482,1.4901,1.5089,1.5266,1.5346,1.5594,1.5753,1.5868,1.5868,1.5797,1.57,1.57,1.5683,1.5621,1.5612,1.5524,1.5346,1.5355,1.5293,1.5222,1.5196,1.5133,1.5052,1.5034,1.4981,1.4892,1.4866,1.4874,1.4883,1.4866,1.4812,1.4739,1.4641,1.4587,1.4587,1.4587,1.4587,1.4587,1.4587,1.449,1.4261,1.4055,1.3813,1.3562,1.3477,1.3529,1.3702,1.3802,1.4045,1.4444,1.4476,1.4547,1.4722,1.4792,1.49,1.5087,1.544,1.5862,1.64,1.6619,1.6613,1.6355,1.6438,1.6609,1.6872,1.7002,1.7053,1.7081,1.7328,1.7536,1.759,1.7695,1.7832,1.7948,1.789,1.7809,1.7712,1.7607,1.7424,1.7131,1.709,1.6988,1.6751,1.6689,1.6719,1.6789,1.68,1.6787,1.6674,1.6473,1.6332,1.6227,1.6143,1.6057,1.5943,1.5964,1.5943,1.5943,1.5928,1.5928,1.5943,1.6074,1.6148,1.6184,1.6463,1.6631,1.669,1.6814,1.6865,1.6887,1.6887,1.6769,1.3992,1.4065,1.4245,1.4389,1.4515,1.4812,1.4947,1.4955,1.4955,1.5044,1.5195,1.5337,1.5346,1.5204,1.5196,1.5196,1.5196,1.5151,1.5115,1.5062,1.5026,1.4982,1.4973,1.4955,1.4866,1.4721,1.4721,1.4649,1.4515,1.4533,1.4579,1.4587,1.4587,1.4587,1.4587,1.4587,1.4587,1.4587,1.4587,1.4587,1.4587,1.4587,1.4573,1.4563,1.4284,1.4086,1.3989,1.3906,1.3962,1.4204,1.4395,1.4712,1.5263,1.53,1.543,1.5661,1.5693,1.5733,1.5831,1.6016,1.6239,1.6461,1.6699,1.6895,1.6918,1.6804,1.6793,1.6997,1.7164,1.7237,1.7282,1.7583,1.7809,1.7659,1.776,1.7821,1.785,1.7728,1.7607,1.7558,1.7424,1.7261,1.7078,1.7017,1.6894,1.6689,1.6683,1.6781,1.6819,1.6835,1.6877,1.6882,1.6593,1.6399,1.6595,1.6477,1.6375,1.6389,1.6367,1.6331,1.6338,1.6367,1.6374,1.6353,1.6448,1.6499,1.6528,1.6763,1.6946,1.6997,1.7113,1.7258,1.7251,1.7251,1.7163,1.3655,1.3844,1.4011,1.4137,1.4147,1.4201,1.422,1.422,1.4201,1.422,1.4328,1.4937,1.5204,1.5196,1.5178,1.5161,1.5151,1.5007,1.4828,1.4659,1.4533,1.4389,1.4256,1.422,1.4201,1.4191,1.4209,1.4209,1.4191,1.4353,1.4487,1.4587,1.4587,1.4587,1.4587,1.4587,1.4579,1.4587,1.4587,1.4587,1.4587,1.4587,1.4764,1.5133,1.5083,1.521,1.5383,1.5488,1.5472,1.5531,1.5515,1.5574,1.5645,1.5661,1.5677,1.5709,1.5709,1.5828,1.6134,1.648,1.6733,1.6981,1.7013,1.7106,1.7265,1.7151,1.7135,1.7268,1.7341,1.735,1.7362,1.7456,1.7473,1.7453,1.7473,1.7453,1.7473,1.7432,1.7371,1.7172,1.7159,1.7037,1.6812,1.6751,1.6656,1.6559,1.668,1.6813,1.6762,1.678,1.6883,1.7041,1.6877,1.6625,1.6566,1.6441,1.6477,1.6448,1.6418,1.647,1.6499,1.6477,1.6404,1.6602,1.6697,1.6821,1.6895,1.7062,1.7229,1.7216,1.7251,1.7309,1.7309,1.7309,1.7229,1.3193,1.3273,1.3375,1.3459,1.3593,1.3819,1.3917,1.3928,1.4047,1.4101,1.4111,1.4307,1.4443,1.4535,1.4543,1.4561,1.4543,1.4479,1.4382,1.4292,1.4238,1.4165,1.4111,1.4101,1.4101,1.4101,1.4101,1.4101,1.4111,1.4173,1.4238,1.4292,1.4292,1.4292,1.4299,1.431,1.4317,1.4292,1.4292,1.4392,1.4589,1.4849,1.4975,1.5032,1.521,1.531,1.5358,1.5459,1.5603,1.5803,1.5933,1.6087,1.6293,1.6281,1.6293,1.6281,1.6281,1.6345,1.6488,1.6638,1.6751,1.6853,1.6874,1.6894,1.6984,1.6914,1.6922,1.6976,1.7127,1.7221,1.7221,1.7331,1.7351,1.727,1.7331,1.7392,1.7392,1.7282,1.718,1.7098,1.6955,1.6833,1.671,1.6599,1.6591,1.6643,1.6755,1.6771,1.6911,1.6966,1.7078,1.7201,1.7133,1.7051,1.6923,1.6938,1.693,1.693,1.6938,1.6938,1.6908,1.6938,1.6922,1.69,1.7018,1.7106,1.7135,1.7185,1.7309,1.7286,1.7309,1.7309,1.7309,1.7309,1.7263,1.2691,1.2746,1.2856,1.2991,1.3138,1.3426,1.3546,1.3572,1.3721,1.3768,1.3768,1.3619,1.3648,1.3768,1.3884,1.3931,1.392,1.3876,1.3866,1.384,1.3804,1.3786,1.376,1.3768,1.376,1.3786,1.3804,1.392,1.4011,1.4011,1.4047,1.4093,1.4101,1.4101,1.4101,1.4101,1.4101,1.4109,1.4177,1.4353,1.4628,1.5062,1.5258,1.5206,1.5455,1.5588,1.5536,1.5689,1.5877,1.6105,1.6249,1.6448,1.6673,1.6689,1.6689,1.6689,1.6648,1.6636,1.6689,1.6689,1.6689,1.6689,1.6689,1.6689,1.6689,1.6689,1.6689,1.6738,1.6874,1.6996,1.6996,1.7127,1.7119,1.7017,1.7119,1.7217,1.7168,1.7078,1.6996,1.6976,1.682,1.6669,1.6623,1.657,1.6609,1.6634,1.673,1.6798,1.7071,1.7151,1.7238,1.7312,1.7295,1.7295,1.7309,1.7258,1.7309,1.7309,1.7258,1.7251,1.7309,1.7279,1.7271,1.7127,1.7258,1.7295,1.7251,1.728,1.7239,1.7192,1.7169,1.7122,1.7028,1.7099,1.7052,1.2157,1.2372,1.2735,1.2863,1.2918,1.2936,1.2955,1.2955,1.2984,1.2966,1.2991,1.2973,1.2955,1.3021,1.3339,1.3535,1.351,1.3346,1.3284,1.3247,1.3083,1.2973,1.2955,1.2955,1.2991,1.3083,1.3211,1.3455,1.3764,1.3797,1.3917,1.4075,1.4057,1.4083,1.4057,1.4065,1.4075,1.407,1.4329,1.4572,1.4652,1.5221,1.5639,1.5801,1.6043,1.6273,1.6522,1.6613,1.6621,1.6665,1.6642,1.6673,1.6689,1.6689,1.6669,1.6656,1.6517,1.6504,1.6656,1.6689,1.6689,1.6689,1.6689,1.6689,1.6689,1.6689,1.6689,1.6689,1.673,1.673,1.673,1.6792,1.6792,1.6751,1.673,1.6759,1.6751,1.6792,1.673,1.673,1.671,1.6607,1.6471,1.6682,1.6592,1.6512,1.6772,1.7115,1.7008,1.7174,1.7274,1.7304,1.7309,1.7309,1.7309,1.7309,1.7309,1.7309,1.7309,1.7309,1.7309,1.7309,1.7309,1.7309,1.7309,1.7309,1.7309,1.7239,1.7129,1.7035,1.6817,1.6746,1.68,1.6683,1.6636,1.1855,1.191,1.2077,1.2132,1.2139,1.228,1.2323,1.236,1.2618,1.2709,1.2716,1.2691,1.2709,1.2691,1.2728,1.2881,1.3108,1.3028,1.301,1.2991,1.2918,1.2918,1.2918,1.2918,1.2918,1.2918,1.2973,1.3065,1.3218,1.3364,1.3437,1.3539,1.3655,1.3702,1.371,1.3702,1.3728,1.3758,1.403,1.4324,1.4559,1.511,1.5526,1.5779,1.6133,1.6432,1.6689,1.6689,1.6689,1.6689,1.6689,1.6689,1.6669,1.6566,1.6443,1.6348,1.6381,1.6435,1.6497,1.6628,1.6689,1.6689,1.6689,1.6689,1.6689,1.6689,1.6689,1.6689,1.6689,1.6689,1.6689,1.6689,1.6689,1.6689,1.6689,1.6689,1.6689,1.6689,1.6689,1.6669,1.6607,1.6484,1.6438,1.6446,1.6473,1.6541,1.681,1.7023,1.7174,1.7251,1.7309,1.7309,1.7309,1.7309,1.7309,1.7309,1.7309,1.7309,1.7309,1.7309,1.7309,1.7309,1.7309,1.7263,1.7263,1.72,1.7153,1.6911,1.6847,1.6777,1.6588,1.6487,1.6612,1.6494,1.6423,1.1446,1.1521,1.1577,1.1651,1.1706,1.1855,1.191,1.1929,1.2194,1.2305,1.2323,1.2323,1.2298,1.2286,1.2176,1.2249,1.2514,1.2581,1.2599,1.2599,1.2544,1.2507,1.2507,1.2507,1.2551,1.2624,1.2753,1.2838,1.29,1.3028,1.3138,1.3218,1.3346,1.3419,1.3492,1.3492,1.3492,1.3565,1.3935,1.4272,1.4533,1.5035,1.5448,1.5696,1.6002,1.6312,1.6587,1.6669,1.6648,1.6607,1.6607,1.6594,1.6484,1.6299,1.6154,1.6121,1.6134,1.6229,1.6299,1.6443,1.6533,1.6607,1.6587,1.6628,1.6669,1.6689,1.6689,1.6689,1.6628,1.6599,1.6587,1.6553,1.6533,1.6566,1.6607,1.6566,1.6533,1.6484,1.6492,1.6471,1.6381,1.6317,1.6323,1.6353,1.6482,1.6736,1.6919,1.7099,1.7251,1.7309,1.7309,1.7309,1.7309,1.7309,1.7309,1.7309,1.7309,1.7309,1.7309,1.7309,1.7286,1.7286,1.7239,1.7223,1.7153,1.7066,1.6902,1.6636,1.6541,1.6494,1.6329,1.618,1.6251,1.6305,1.6211,1.0925,1.1111,1.1298,1.1446,1.1577,1.1595,1.1669,1.1626,1.1688,1.1725,1.1744,1.1725,1.1799,1.1744,1.1781,1.1744,1.1836,1.1966,1.204,1.2058,1.1873,1.1781,1.1799,1.1818,1.1917,1.2077,1.239,1.2673,1.282,1.2856,1.2955,1.3145,1.3174,1.3273,1.3473,1.3477,1.3503,1.3649,1.415,1.4499,1.4565,1.51,1.549,1.5658,1.5741,1.594,1.6353,1.6566,1.6566,1.6414,1.6394,1.6299,1.6128,1.5886,1.5844,1.5976,1.5865,1.5852,1.6066,1.6128,1.6245,1.636,1.6394,1.6463,1.6594,1.6628,1.6636,1.6607,1.6504,1.6402,1.6381,1.6245,1.6224,1.6353,1.6402,1.634,1.6183,1.6128,1.6136,1.6149,1.6128,1.612,1.6246,1.6422,1.6647,1.6838,1.7092,1.7251,1.7295,1.7309,1.7309,1.7309,1.7309,1.7309,1.7309,1.7309,1.7309,1.7309,1.7309,1.7309,1.7239,1.7216,1.7106,1.7035,1.6855,1.676,1.6643,1.64,1.6258,1.6163,1.5998,1.592,1.5991,1.6038,1.5967,1.0644,1.07,1.0738,1.0812,1.0869,1.0869,1.0869,1.0931,1.1149,1.1285,1.1353,1.1595,1.1688,1.1688,1.1688,1.1688,1.1688,1.1651,1.1651,1.1744,1.1731,1.1676,1.1694,1.1694,1.1725,1.1818,1.1929,1.2083,1.23,1.2454,1.2588,1.2771,1.2943,1.301,1.3144,1.3444,1.3641,1.3732,1.4387,1.4774,1.4803,1.5183,1.5423,1.5506,1.5637,1.5795,1.592,1.6162,1.6245,1.6203,1.6183,1.6079,1.5865,1.5741,1.5679,1.5631,1.5686,1.5713,1.5831,1.6004,1.6108,1.617,1.6183,1.6203,1.6273,1.6286,1.6314,1.6314,1.6232,1.6211,1.619,1.6149,1.6128,1.6162,1.6183,1.6162,1.6066,1.6095,1.6115,1.6066,1.5935,1.5932,1.6154,1.6424,1.6632,1.6881,1.7143,1.7302,1.7309,1.7309,1.7309,1.7309,1.7309,1.7309,1.7309,1.7309,1.7309,1.7309,1.7309,1.7246,1.7176,1.7129,1.6996,1.6784,1.6595,1.6454,1.6312,1.6187,1.6045,1.5974,1.5896,1.5849,1.5825,1.5801,1.5801,1.0143,1.0274,1.0274,1.0368,1.0494,1.0494,1.0494,1.0519,1.0756,1.0869,1.0925,1.1149,1.126,1.1242,1.1242,1.1242,1.1242,1.113,1.113,1.1279,1.1428,1.1515,1.1646,1.1834,1.1891,1.1891,1.1974,1.2043,1.2202,1.243,1.2639,1.2816,1.301,1.3174,1.325,1.3539,1.3748,1.3838,1.4424,1.4806,1.4885,1.518,1.541,1.5431,1.552,1.5582,1.5603,1.5748,1.5859,1.5914,1.588,1.5756,1.5603,1.5582,1.5541,1.5465,1.5499,1.5575,1.5603,1.5735,1.588,1.5914,1.5955,1.6017,1.6066,1.6115,1.6115,1.6115,1.6004,1.5935,1.5955,1.588,1.5839,1.5839,1.5893,1.5914,1.5859,1.5839,1.5839,1.5791,1.579,1.595,1.6203,1.6485,1.669,1.7005,1.7178,1.7309,1.7309,1.7309,1.7309,1.7309,1.7309,1.7309,1.7309,1.7309,1.7309,1.7309,1.7309,1.72,1.709,1.7043,1.6956,1.6548,1.6282,1.614,1.6021,1.5974,1.5849,1.5801,1.5801,1.5801,1.5801,1.5801,1.5801,0.953,0.9846,0.9865,1.0067,1.0349,1.0363,1.0349,1.04,1.0443,1.0462,1.0481,1.0575,1.0569,1.0537,1.0671,1.0695,1.0572,1.0678,1.0714,1.0797,1.0987,1.127,1.1494,1.1812,1.1976,1.2086,1.2251,1.2369,1.2404,1.2614,1.2942,1.3054,1.3237,1.3514,1.359,1.3758,1.3805,1.3887,1.4355,1.4619,1.4709,1.5118,1.5389,1.541,1.5402,1.5431,1.5431,1.5472,1.5527,1.5637,1.5527,1.5472,1.5431,1.541,1.5402,1.541,1.541,1.5431,1.541,1.5472,1.5527,1.5679,1.5692,1.5782,1.5963,1.5963,1.5984,1.5971,1.5803,1.5699,1.5658,1.5569,1.5472,1.5451,1.561,1.5603,1.5451,1.5431,1.5494,1.5547,1.5717,1.6038,1.6397,1.6697,1.6953,1.7171,1.7288,1.7302,1.7309,1.7309,1.7309,1.7309,1.7309,1.7309,1.7309,1.7309,1.7286,1.72,1.7176,1.7082,1.6878,1.6807,1.6673,1.6289,1.6045,1.5896,1.5801,1.5801,1.5801,1.5801,1.5801,1.5801,1.5801,1.5778,1.5706,0.9359,0.9454,0.9473,0.9511,0.962,0.9625,0.9644,0.9657,0.996,1.0048,1.0105,1.0368,1.0455,1.0517,1.0691,1.079,1.0761,1.0897,1.1019,1.1039,1.1098,1.12,1.1269,1.1404,1.1597,1.177,1.19,1.198,1.226,1.2403,1.2537,1.2684,1.3008,1.3127,1.318,1.3701,1.3945,1.4013,1.442,1.4774,1.4912,1.5067,1.5257,1.5389,1.5389,1.5389,1.541,1.541,1.5431,1.5465,1.5444,1.541,1.541,1.541,1.541,1.541,1.541,1.541,1.541,1.541,1.5431,1.5472,1.5499,1.5506,1.5548,1.5597,1.5597,1.5576,1.5506,1.5486,1.5486,1.5451,1.541,1.541,1.5494,1.55,1.5431,1.5417,1.5469,1.5724,1.5848,1.6199,1.6609,1.6859,1.7012,1.7222,1.7309,1.7309,1.7309,1.7309,1.7309,1.7309,1.7309,1.7309,1.7309,1.7309,1.7246,1.709,1.7019,1.6925,1.6636,1.6353,1.6163,1.5879,1.5927,1.5825,1.5801,1.5801,1.5801,1.5778,1.5778,1.5754,1.5706,1.5683,1.5571,0.8884,0.9032,0.9051,0.9151,0.9303,0.9303,0.9303,0.934,0.9525,0.9638,0.973,0.9972,1.0119,1.0152,1.0359,1.0493,1.0514,1.0729,1.0803,1.0851,1.1004,1.1196,1.1353,1.1456,1.1618,1.1743,1.1763,1.1981,1.2264,1.2375,1.2519,1.277,1.2976,1.3105,1.3199,1.357,1.3876,1.3945,1.4316,1.4671,1.4783,1.4887,1.5061,1.5215,1.5285,1.5285,1.5389,1.541,1.541,1.541,1.541,1.541,1.541,1.541,1.541,1.541,1.541,1.541,1.541,1.541,1.541,1.541,1.541,1.541,1.541,1.541,1.541,1.5431,1.541,1.541,1.541,1.541,1.5475,1.56,1.5607,1.5556,1.5432,1.5549,1.568,1.5885,1.6162,1.644,1.6888,1.6975,1.7121,1.7251,1.7309,1.7309,1.7309,1.7309,1.7286,1.7286,1.72,1.7153,1.7082,1.7052,1.6981,1.6878,1.6697,1.6619,1.64,1.6038,1.592,1.5808,1.5801,1.5778,1.5754,1.573,1.5737,1.5737,1.5706,1.5611,1.5523,1.5452,1.5356,0.8331,0.8642,0.8642,0.8837,0.9113,0.9165,0.9113,0.9194,0.9248,0.9301,0.9379,0.957,0.9734,0.9656,1.0019,0.9978,1.0004,1.0362,1.0423,1.0574,1.0819,1.1172,1.144,1.1649,1.1797,1.1878,1.1962,1.2077,1.2281,1.2502,1.2744,1.2908,1.3165,1.3324,1.3324,1.3571,1.3667,1.3747,1.4056,1.4335,1.4447,1.4594,1.4783,1.502,1.5041,1.511,1.5215,1.5277,1.5277,1.5326,1.5368,1.5347,1.5326,1.5326,1.5326,1.5305,1.5305,1.5347,1.5389,1.5389,1.541,1.541,1.541,1.541,1.541,1.541,1.541,1.541,1.541,1.5439,1.5498,1.5505,1.5687,1.5906,1.5957,1.579,1.5636,1.576,1.5943,1.603,1.6565,1.6837,1.6997,1.7128,1.7302,1.7273,1.7309,1.7309,1.7263,1.7246,1.7223,1.7216,1.7082,1.6925,1.6878,1.68,1.6683,1.6565,1.6336,1.6194,1.6099,1.5879,1.5808,1.5737,1.5618,1.5571,1.5594,1.5594,1.5594,1.5547,1.5452,1.5315,1.5196,1.5148,1.5053,0.8144,0.8236,0.8236,0.8274,0.835,0.835,0.8465,0.8632,0.8927,0.9116,0.9336,0.9677,0.9812,0.9827,1.0053,1.0221,1.0209,1.0452,1.0606,1.0659,1.0866,1.1016,1.1187,1.1375,1.158,1.1699,1.1764,1.1871,1.2102,1.231,1.2476,1.2577,1.2924,1.3158,1.3179,1.3355,1.3462,1.3519,1.3752,1.3963,1.4174,1.4342,1.4545,1.4783,1.4796,1.4824,1.4824,1.4845,1.4845,1.4887,1.5041,1.5061,1.4929,1.4887,1.4908,1.495,1.5082,1.5173,1.5194,1.5305,1.541,1.541,1.541,1.541,1.541,1.541,1.541,1.541,1.5417,1.552,1.576,1.6023,1.6169,1.6257,1.6294,1.625,1.6191,1.6243,1.6382,1.6624,1.677,1.6968,1.7149,1.7207,1.7309,1.7309,1.7286,1.7309,1.7246,1.716,1.7082,1.7035,1.6847,1.669,1.6643,1.6541,1.64,1.6282,1.6069,1.5886,1.5791,1.5594,1.5499,1.5428,1.5333,1.5333,1.538,1.5339,1.5315,1.5244,1.5172,1.5077,1.4981,1.4885,1.4783,0.7738,0.7814,0.7915,0.801,0.8083,0.8083,0.8227,0.8413,0.861,0.8878,0.9175,0.9491,0.9665,0.9788,1.0046,1.017,1.0211,1.0403,1.0571,1.0674,1.0798,1.0868,1.0851,1.0997,1.1197,1.1462,1.1527,1.1634,1.185,1.1995,1.2096,1.2225,1.2604,1.2747,1.286,1.3094,1.3264,1.3307,1.3462,1.3673,1.3885,1.4005,1.4251,1.4524,1.4629,1.4713,1.4713,1.4713,1.465,1.4608,1.4692,1.4762,1.4734,1.4713,1.4713,1.4741,1.4803,1.4978,1.509,1.5201,1.5305,1.5389,1.541,1.541,1.541,1.541,1.541,1.5446,1.5563,1.5782,1.6089,1.6257,1.6448,1.6617,1.6646,1.6697,1.6777,1.6719,1.669,1.6895,1.6997,1.7135,1.7251,1.7255,1.7263,1.7263,1.7136,1.7113,1.7059,1.6972,1.6855,1.6753,1.6541,1.643,1.6383,1.6282,1.614,1.5991,1.5832,1.5689,1.5618,1.538,1.5166,1.5118,1.5124,1.5172,1.5196,1.5107,1.5011,1.4957,1.4885,1.4831,1.476,1.4616,1.4544,0.7317,0.7468,0.7651,0.7845,0.8015,0.8028,0.8158,0.8378,0.8418,0.8695,0.8977,0.9206,0.9441,0.9584,0.9835,0.9941,1.0028,1.0159,1.0359,1.0516,1.0598,1.0641,1.0646,1.0733,1.0906,1.1197,1.1246,1.1397,1.1591,1.1699,1.185,1.2,1.2283,1.247,1.2534,1.2796,1.303,1.3073,1.3243,1.3419,1.3568,1.3646,1.3893,1.4188,1.4447,1.4552,1.4552,1.4545,1.4503,1.4349,1.4356,1.444,1.4545,1.4608,1.4594,1.4615,1.4615,1.472,1.4866,1.4999,1.511,1.5298,1.5347,1.5347,1.5347,1.5469,1.5534,1.5658,1.5826,1.6213,1.6433,1.6594,1.6719,1.6903,1.6953,1.7055,1.7155,1.7068,1.6959,1.6982,1.7059,1.7134,1.714,1.7145,1.7169,1.7169,1.7043,1.6932,1.6855,1.676,1.6619,1.6471,1.6282,1.6163,1.6116,1.5998,1.5849,1.5737,1.5571,1.5428,1.5356,1.5142,1.4951,1.4957,1.4957,1.4957,1.4909,1.4831,1.4736,1.467,1.4616,1.4592,1.449,1.4322,1.4322,0.7302,0.7323,0.7364,0.7523,0.7747,0.7764,0.7975,0.8307,0.8446,0.8686,0.8932,0.916,0.9304,0.9409,0.9575,0.9781,0.9907,1.0016,1.0081,1.019,1.0294,1.0381,1.0402,1.0533,1.0706,1.0819,1.0938,1.1132,1.1397,1.157,1.1677,1.1823,1.216,1.2342,1.2406,1.2635,1.2775,1.2854,1.303,1.3158,1.327,1.3419,1.3582,1.3857,1.4068,1.418,1.4208,1.4208,1.4187,1.4145,1.4166,1.4187,1.4229,1.425,1.4243,1.4286,1.4384,1.4503,1.4587,1.4692,1.4762,1.4845,1.502,1.5146,1.5266,1.5524,1.5661,1.5915,1.6272,1.6696,1.6822,1.6869,1.7082,1.7184,1.7153,1.7105,1.7054,1.7001,1.6999,1.7062,1.7079,1.7043,1.6988,1.6941,1.6911,1.6864,1.6753,1.6666,1.6643,1.6478,1.6295,1.617,1.6021,1.5927,1.5872,1.5706,1.554,1.5499,1.5333,1.5094,1.4999,1.4855,1.4736,1.4736,1.464,1.4568,1.452,1.4538,1.4514,1.4472,1.4418,1.437,1.4346,1.4322,1.4322,0.7054,0.7154,0.7261,0.7364,0.7484,0.7509,0.7724,0.8065,0.8188,0.8491,0.8819,0.9043,0.9174,0.9284,0.9388,0.9519,0.9629,0.976,0.9777,0.9842,1.0038,1.0147,1.0147,1.0277,1.0402,1.0489,1.0608,1.0851,1.1132,1.1375,1.1505,1.1564,1.186,1.2075,1.2225,1.2433,1.2583,1.2711,1.2833,1.2966,1.3094,1.3307,1.3455,1.3546,1.3673,1.3779,1.3891,1.3906,1.3976,1.406,1.4109,1.4109,1.4088,1.4109,1.4109,1.4124,1.4201,1.4307,1.4377,1.4496,1.4587,1.4692,1.4824,1.4979,1.5156,1.5397,1.5712,1.6012,1.6184,1.6557,1.6691,1.6872,1.6913,1.6934,1.6934,1.6918,1.6831,1.6807,1.6847,1.6934,1.6847,1.6777,1.6777,1.6706,1.6636,1.6541,1.6447,1.6423,1.64,1.6241,1.6052,1.5933,1.5832,1.5713,1.5618,1.5428,1.5278,1.5237,1.5094,1.4855,1.4712,1.4616,1.4538,1.4466,1.437,1.4322,1.4346,1.4418,1.4346,1.4322,1.4322,1.4346,1.4322,1.4322,1.4298,0.6766,0.6972,0.7147,0.7251,0.7339,0.7339,0.756,0.7858,0.7963,0.8275,0.8697,0.8823,0.8959,0.913,0.9196,0.924,0.9305,0.9476,0.9537,0.958,0.9733,0.9842,0.9864,0.9929,0.9994,1.012,1.0321,1.0564,1.0981,1.1181,1.1246,1.1392,1.1591,1.1785,1.1973,1.2283,1.2476,1.2598,1.2705,1.2811,1.3009,1.3222,1.3355,1.3355,1.3377,1.3476,1.3631,1.3652,1.3737,1.387,1.3962,1.4025,1.4025,1.4067,1.4109,1.4109,1.4109,1.4187,1.4279,1.4335,1.4405,1.4489,1.4608,1.4817,1.5131,1.5371,1.5688,1.6085,1.6262,1.6362,1.6598,1.6629,1.6612,1.6636,1.6636,1.6588,1.6541,1.6494,1.6471,1.6494,1.6471,1.6471,1.6478,1.6376,1.6258,1.6234,1.614,1.6147,1.6116,1.6021,1.5855,1.5737,1.5635,1.5523,1.5356,1.5148,1.5046,1.4999,1.4831,1.4592,1.452,1.4442,1.4394,1.4346,1.4346,1.4322,1.4322,1.4322,1.4322,1.4322,1.4322,1.4298,1.4298,1.4274,1.425,0.6584,0.6832,0.685,0.7099,0.7439,0.7432,0.7621,0.7881,0.8026,0.8177,0.8354,0.852,0.8656,0.8766,0.8893,0.9065,0.9218,0.9305,0.9323,0.9345,0.941,0.9458,0.9432,0.9559,0.9689,0.9816,1.0098,1.0543,1.0873,1.1008,1.1138,1.1289,1.1521,1.1742,1.1801,1.2112,1.2406,1.2476,1.2619,1.2726,1.279,1.3003,1.3094,1.3179,1.3264,1.3377,1.3413,1.344,1.3483,1.3519,1.3673,1.3737,1.3779,1.3976,1.4067,1.4109,1.4109,1.4109,1.4145,1.4166,1.4187,1.4271,1.4369,1.4618,1.5039,1.5569,1.6021,1.6462,1.6481,1.6434,1.6466,1.6558,1.6588,1.6541,1.6471,1.6376,1.6312,1.6234,1.6187,1.6086,1.6086,1.6147,1.6177,1.6028,1.5903,1.5879,1.5879,1.5886,1.5862,1.5784,1.5642,1.5523,1.5374,1.5255,1.5118,1.4909,1.4814,1.476,1.4616,1.4424,1.44,1.437,1.4346,1.4322,1.4322,1.4322,1.4322,1.4322,1.4322,1.4322,1.4322,1.4298,1.4298,1.425,1.416,0.6124,0.6564,0.6748,0.6906,0.7105,0.7234,0.7415,0.7657,0.7768,0.7962,0.8179,0.8318,0.8454,0.8586,0.8696,0.8784,0.8889,0.9021,0.906,0.913,0.9192,0.9284,0.9327,0.9388,0.9476,0.9624,0.9842,1.0103,1.0526,1.0878,1.1056,1.1138,1.1348,1.157,1.1656,1.1887,1.216,1.2369,1.2577,1.2683,1.2747,1.2817,1.2881,1.2881,1.296,1.3094,1.3207,1.3228,1.3313,1.337,1.3498,1.3525,1.3546,1.3659,1.3743,1.387,1.3864,1.3955,1.4082,1.4088,1.4116,1.4176,1.4341,1.468,1.5143,1.5594,1.5963,1.6113,1.6133,1.6157,1.6163,1.6133,1.614,1.6163,1.6228,1.6157,1.6045,1.6004,1.5927,1.5808,1.5706,1.5761,1.5838,1.5815,1.5713,1.5737,1.5737,1.5761,1.5737,1.5666,1.5499,1.5291,1.5118,1.4944,1.4807,1.4646,1.4544,1.4496,1.4496,1.4352,1.4346,1.4322,1.4322,1.4322,1.4322,1.4322,1.4322,1.4322,1.4322,1.4322,1.4322,1.4232,1.416,1.4046,1.3901,0.5636,0.6188,0.6482,0.6681,0.6814,0.6966,0.7168,0.7393,0.7484,0.7702,0.7984,0.816,0.834,0.8476,0.8564,0.8634,0.863,0.8762,0.8828,0.8915,0.9021,0.9087,0.9087,0.9152,0.9279,0.9432,0.958,0.982,1.0147,1.0538,1.0829,1.0986,1.1138,1.1354,1.157,1.1721,1.1952,1.2384,1.2534,1.2641,1.2705,1.2705,1.2705,1.2705,1.2726,1.279,1.2966,1.2988,1.3094,1.3158,1.3285,1.3307,1.3328,1.344,1.3504,1.361,1.3625,1.3716,1.387,1.3983,1.41,1.4282,1.4549,1.4966,1.5271,1.5611,1.5737,1.5784,1.5778,1.5754,1.573,1.5784,1.5872,1.5896,1.5872,1.5825,1.5778,1.5761,1.5713,1.5642,1.5523,1.5404,1.5482,1.5547,1.5571,1.5594,1.5618,1.5642,1.5571,1.5475,1.5291,1.5059,1.4933,1.476,1.4592,1.4448,1.4346,1.4322,1.4322,1.4322,1.4322,1.4322,1.4322,1.4322,1.4304,1.4322,1.4322,1.4322,1.4298,1.4274,1.4232,1.4094,1.3973,1.3835,1.3666,0.5191,0.5508,0.5949,0.6393,0.6792,0.6814,0.6947,0.7143,0.7393,0.7503,0.7657,0.7981,0.8201,0.827,0.841,0.8524,0.859,0.8608,0.8608,0.8612,0.8652,0.87,0.8762,0.8872,0.8977,0.9082,0.9301,0.9537,0.9755,1.0147,1.0564,1.0943,1.1008,1.1154,1.1375,1.1591,1.1866,1.2219,1.2363,1.2491,1.2598,1.2662,1.2662,1.2677,1.2677,1.2705,1.2726,1.2747,1.2784,1.2833,1.3009,1.3094,1.3115,1.3222,1.3307,1.3392,1.3413,1.3502,1.3647,1.392,1.4204,1.4534,1.4879,1.5156,1.5332,1.5443,1.552,1.5499,1.5499,1.5523,1.5564,1.5659,1.5689,1.5666,1.5618,1.5642,1.5594,1.5547,1.5499,1.5452,1.5333,1.5166,1.507,1.5142,1.5291,1.5339,1.5339,1.5356,1.5237,1.5148,1.5005,1.4838,1.4742,1.4592,1.4394,1.4322,1.4322,1.4322,1.4322,1.4322,1.4322,1.4322,1.4298,1.4232,1.4208,1.4256,1.425,1.4136,1.4088,1.4184,1.4136,1.3901,1.366,1.3467,1.3322,0.506,0.5416,0.5594,0.5927,0.6393,0.6659,0.684,0.6925,0.7146,0.737,0.7507,0.7856,0.8006,0.8054,0.8076,0.8164,0.819,0.8168,0.8252,0.8318,0.8362,0.8454,0.8564,0.8678,0.8784,0.8911,0.9126,0.9367,0.9646,0.9842,1.0147,1.0499,1.0808,1.1008,1.1203,1.1483,1.178,1.193,1.2096,1.2203,1.2268,1.2448,1.2513,1.2513,1.2656,1.2677,1.2705,1.2705,1.2705,1.2726,1.2811,1.2854,1.2875,1.2966,1.3073,1.3185,1.3213,1.3344,1.3584,1.3836,1.4097,1.4495,1.4779,1.5006,1.5213,1.5233,1.5261,1.5244,1.5244,1.5237,1.5267,1.5315,1.5339,1.5363,1.5387,1.5434,1.5387,1.5333,1.5261,1.522,1.5046,1.4855,1.4783,1.4712,1.4885,1.5059,1.5059,1.5053,1.4933,1.4861,1.4712,1.464,1.4568,1.452,1.4346,1.4322,1.4322,1.4322,1.4298,1.4274,1.428,1.4298,1.4274,1.4184,1.4046,1.3997,1.3943,1.3847,1.3847,1.3968,1.3829,1.3612,1.337,1.3152,1.3055,0.4882,0.5196,0.5327,0.5661,0.6105,0.646,0.6685,0.6814,0.6947,0.7146,0.7393,0.7657,0.779,0.779,0.7878,0.7922,0.7944,0.7944,0.801,0.8076,0.8142,0.8274,0.841,0.8498,0.8582,0.8758,0.8911,0.913,0.9345,0.9541,0.9798,1.0147,1.0538,1.0786,1.11,1.1359,1.1597,1.1721,1.1807,1.1957,1.2022,1.216,1.2283,1.2283,1.239,1.2433,1.2476,1.2519,1.2577,1.2619,1.2662,1.2705,1.2705,1.2726,1.2811,1.2927,1.3086,1.3281,1.3539,1.3951,1.4179,1.4542,1.4746,1.4922,1.4996,1.5029,1.4981,1.4981,1.4957,1.4957,1.4981,1.5083,1.5178,1.522,1.522,1.522,1.5148,1.51,1.5029,1.4957,1.4766,1.4592,1.4544,1.4496,1.4544,1.4694,1.4694,1.4688,1.464,1.4568,1.452,1.4448,1.4376,1.4346,1.4322,1.4322,1.4322,1.4322,1.4298,1.4208,1.4208,1.4202,1.4088,1.3871,1.3757,1.3684,1.3636,1.3563,1.3636,1.3738,1.3545,1.3322,1.3152,1.2958,1.291,0.4728,0.4772,0.5193,0.5638,0.6041,0.6108,0.6374,0.6704,0.6817,0.6947,0.7143,0.7389,0.7525,0.7547,0.7698,0.7742,0.779,0.7808,0.7856,0.7878,0.79,0.8006,0.816,0.827,0.838,0.8608,0.8762,0.8893,0.8995,0.9297,0.9537,0.9798,1.0212,1.0629,1.0965,1.1208,1.1446,1.1667,1.1711,1.1863,1.1989,1.2087,1.2136,1.2163,1.2234,1.2295,1.2338,1.2398,1.2457,1.2488,1.2536,1.2579,1.2642,1.2701,1.2756,1.2786,1.3028,1.3137,1.3198,1.4056,1.445,1.4534,1.468,1.4877,1.4968,1.4861,1.4688,1.4712,1.4712,1.4688,1.479,1.4892,1.4963,1.4981,1.4957,1.4933,1.4861,1.4814,1.4736,1.4718,1.452,1.4322,1.4322,1.4298,1.4304,1.4328,1.4328,1.4322,1.4346,1.437,1.437,1.437,1.4322,1.4322,1.4322,1.4322,1.4322,1.4298,1.4232,1.4112,1.3997,1.3925,1.3781,1.3563,1.3467,1.3443,1.337,1.3298,1.3346,1.337,1.3249,1.308,1.291,1.2813,1.2789,0.4547,0.4705,0.4859,0.5216,0.5638,0.5994,0.6194,0.6374,0.664,0.6836,0.6947,0.7146,0.7231,0.7275,0.7319,0.7386,0.7408,0.7386,0.7411,0.7613,0.7635,0.7808,0.7962,0.8116,0.8248,0.8384,0.8564,0.8784,0.8933,0.9126,0.9362,0.9624,1.0033,1.0543,1.0946,1.1232,1.1503,1.1706,1.1848,1.1997,1.2075,1.2176,1.2232,1.2249,1.2355,1.2388,1.2349,1.2396,1.2393,1.2386,1.2425,1.2412,1.2548,1.2627,1.2813,1.2964,1.3211,1.3471,1.3646,1.4136,1.4361,1.4463,1.4518,1.464,1.4568,1.4496,1.4442,1.4442,1.4496,1.4472,1.4472,1.4496,1.4544,1.452,1.452,1.4514,1.449,1.4466,1.4442,1.4442,1.4322,1.428,1.428,1.4088,1.404,1.4088,1.4112,1.4226,1.4274,1.4298,1.4322,1.4322,1.4322,1.4322,1.4298,1.4256,1.4136,1.404,1.3968,1.3901,1.3786,1.3666,1.3491,1.3298,1.3244,1.3195,1.3128,1.3055,1.3007,1.2958,1.2958,1.2934,1.2861,1.2813,1.2783,0.4324,0.4569,0.4681,0.4904,0.5302,0.5705,0.5927,0.6127,0.6501,0.6656,0.67,0.6789,0.6896,0.6966,0.701,0.7073,0.7095,0.7117,0.7143,0.7345,0.7345,0.7525,0.7746,0.7918,0.805,0.8182,0.8358,0.8582,0.8784,0.8867,0.917,0.9602,0.9994,1.0384,1.0809,1.118,1.1496,1.1694,1.189,1.2063,1.2119,1.2176,1.2267,1.229,1.2381,1.245,1.245,1.2417,1.2383,1.2349,1.2337,1.2319,1.2517,1.2652,1.2822,1.3012,1.3307,1.3605,1.3879,1.4117,1.431,1.4328,1.4298,1.4322,1.4322,1.4346,1.4346,1.4322,1.4322,1.4322,1.4322,1.4322,1.4322,1.4322,1.4322,1.4322,1.4346,1.4346,1.4322,1.4322,1.4274,1.4256,1.416,1.3949,1.3757,1.3829,1.3895,1.4016,1.4136,1.416,1.4178,1.4226,1.4232,1.4208,1.416,1.4118,1.3973,1.3805,1.3708,1.366,1.3491,1.3346,1.3195,1.3074,1.3026,1.2977,1.288,1.2807,1.2861,1.2861,1.2832,1.2807,1.2783,1.2783,1.2783,0.4036,0.4322,0.4592,0.4792,0.501,0.5324,0.5683,0.608,0.6299,0.6384,0.6409,0.6432,0.6564,0.677,0.6792,0.6855,0.6962,0.7007,0.7054,0.7076,0.7098,0.7279,0.7437,0.7569,0.779,0.805,0.8248,0.8384,0.8586,0.8823,0.9148,0.9529,0.9867,1.0244,1.0682,1.1113,1.1442,1.1676,1.1999,1.214,1.2208,1.2213,1.2286,1.232,1.2356,1.2356,1.2346,1.2355,1.2385,1.2426,1.2524,1.2598,1.2666,1.2694,1.2694,1.2871,1.3304,1.3584,1.3825,1.407,1.4148,1.4136,1.4178,1.425,1.4322,1.4322,1.4322,1.4322,1.4322,1.4322,1.4322,1.4322,1.4322,1.4322,1.4322,1.4322,1.4322,1.4322,1.4322,1.4298,1.425,1.416,1.3973,1.3762,1.3491,1.3491,1.3539,1.3606,1.3727,1.3877,1.3925,1.4064,1.4064,1.407,1.4022,1.3901,1.3757,1.3539,1.3491,1.3418,1.3219,1.3098,1.3026,1.2934,1.2832,1.2783,1.2783,1.2783,1.2783,1.2783,1.2783,1.2783,1.2783,1.2783,1.2783,0.3924,0.4058,0.4302,0.4569,0.4837,0.5238,0.5552,0.5841,0.6058,0.6191,0.6216,0.6343,0.6409,0.652,0.652,0.6564,0.6609,0.665,0.6745,0.6811,0.6899,0.7058,0.7212,0.7393,0.7569,0.7764,0.8006,0.8204,0.8402,0.8688,0.9043,0.9375,0.9739,1.0137,1.0598,1.1078,1.1348,1.1679,1.2023,1.2189,1.231,1.2395,1.2453,1.2495,1.2514,1.2514,1.255,1.2437,1.244,1.2442,1.2324,1.2338,1.2494,1.2669,1.286,1.3234,1.345,1.3543,1.3624,1.3684,1.3757,1.3805,1.3781,1.3992,1.416,1.4274,1.4274,1.4304,1.4298,1.4322,1.4322,1.4322,1.4322,1.4322,1.4322,1.4322,1.4322,1.4322,1.4298,1.4184,1.416,1.3919,1.3714,1.3443,1.3225,1.3177,1.3177,1.3249,1.3346,1.3491,1.369,1.3829,1.3823,1.3805,1.3732,1.3612,1.3461,1.3292,1.3244,1.3171,1.3026,1.2905,1.2861,1.2837,1.2789,1.2783,1.2783,1.2783,1.2783,1.2783,1.2783,1.2783,1.2783,1.2759,1.2686,0.3834,0.3946,0.4188,0.4456,0.4748,0.5193,0.5485,0.5619,0.5819,0.5952,0.5952,0.606,0.6188,0.6276,0.6279,0.6321,0.6428,0.6451,0.652,0.6612,0.6748,0.6881,0.7035,0.7238,0.7393,0.7591,0.7768,0.8006,0.826,0.866,0.9034,0.9278,0.9611,1.0058,1.0487,1.083,1.1106,1.1495,1.1884,1.216,1.2322,1.2419,1.2492,1.2643,1.2667,1.2691,1.2778,1.2587,1.256,1.2549,1.2389,1.244,1.2578,1.2756,1.2839,1.3162,1.327,1.3299,1.337,1.3491,1.3491,1.3497,1.3467,1.366,1.3877,1.4016,1.416,1.4256,1.4304,1.4322,1.4322,1.4322,1.4322,1.4322,1.4322,1.4322,1.4322,1.4322,1.4208,1.4094,1.3901,1.3636,1.3394,1.3128,1.2983,1.2958,1.2958,1.2958,1.3074,1.3219,1.3418,1.3588,1.3563,1.3539,1.3443,1.3346,1.3225,1.3098,1.3031,1.2934,1.2813,1.2783,1.2813,1.2813,1.2783,1.2783,1.2783,1.2783,1.2783,1.2783,1.2783,1.2783,1.2735,1.2638,1.254,0.3676,0.3901,0.4188,0.4456,0.4728,0.5151,0.5327,0.5394,0.5599,0.5688,0.571,0.571,0.5863,0.6038,0.6063,0.6146,0.621,0.6232,0.6276,0.6387,0.6612,0.6748,0.6884,0.7027,0.7315,0.7453,0.7652,0.7968,0.8305,0.8647,0.8961,0.9221,0.9467,0.9899,1.0361,1.0618,1.0883,1.1196,1.158,1.1883,1.1956,1.2024,1.2102,1.2346,1.2419,1.2492,1.2686,1.2754,1.2783,1.2783,1.2772,1.2751,1.2775,1.278,1.2821,1.2875,1.3031,1.308,1.3128,1.3249,1.3346,1.337,1.3443,1.3443,1.3539,1.3853,1.4046,1.416,1.4208,1.4274,1.4322,1.4322,1.4322,1.4322,1.4322,1.4256,1.416,1.4112,1.3968,1.3805,1.3588,1.3346,1.3244,1.3001,1.288,1.2837,1.2813,1.2813,1.2861,1.3001,1.3123,1.3346,1.3273,1.3225,1.3177,1.308,1.3007,1.291,1.2861,1.2837,1.2783,1.2783,1.2783,1.2783,1.2783,1.2783,1.2783,1.2783,1.2783,1.2783,1.2783,1.2783,1.2686,1.2516,1.2395,0.3428,0.3698,0.4123,0.4456,0.4683,0.4817,0.4971,0.5124,0.5371,0.5552,0.5688,0.5688,0.5733,0.5822,0.5844,0.5886,0.5908,0.5994,0.6016,0.618,0.6405,0.6662,0.6856,0.7121,0.7328,0.7493,0.7705,0.8,0.8398,0.8673,0.8962,0.9336,0.9552,0.9888,1.0225,1.0444,1.0722,1.0924,1.1218,1.1516,1.1634,1.1883,1.2054,1.2151,1.2224,1.237,1.254,1.2686,1.2735,1.2783,1.2783,1.2783,1.2783,1.2783,1.2783,1.2807,1.2856,1.2886,1.2934,1.3007,1.3026,1.3001,1.3001,1.3074,1.3268,1.366,1.3925,1.4022,1.4136,1.4232,1.4322,1.4322,1.4298,1.4298,1.428,1.416,1.4022,1.3853,1.3702,1.3485,1.3273,1.3123,1.305,1.2953,1.2832,1.2783,1.2783,1.2783,1.2789,1.288,1.288,1.3031,1.2958,1.291,1.2886,1.291,1.2886,1.2861,1.2813,1.2789,1.2783,1.2783,1.2783,1.2783,1.2783,1.2783,1.2783,1.2783,1.2783,1.2783,1.2764,1.2764,1.254,1.2346,1.22,0.3361,0.3631,0.4099,0.4389,0.4547,0.4659,0.477,0.4901,0.5124,0.5305,0.5441,0.5599,0.571,0.571,0.571,0.571,0.571,0.571,0.5843,0.6017,0.6285,0.6539,0.6832,0.7165,0.7359,0.7529,0.7776,0.8068,0.841,0.8641,0.8897,0.9249,0.9495,0.9762,1.0048,1.034,1.0531,1.063,1.0904,1.11,1.1292,1.1516,1.1712,1.1834,1.1956,1.2102,1.2297,1.2467,1.2589,1.2662,1.271,1.2783,1.2783,1.2783,1.2783,1.2783,1.2807,1.2783,1.2783,1.2783,1.2783,1.2783,1.2783,1.2929,1.2977,1.3346,1.369,1.3805,1.3973,1.407,1.4256,1.4322,1.4184,1.4136,1.407,1.3979,1.3757,1.3509,1.3413,1.3298,1.3104,1.2958,1.2905,1.288,1.2783,1.2783,1.2783,1.2805,1.2805,1.2832,1.2821,1.2794,1.2799,1.2794,1.2837,1.2837,1.2813,1.2783,1.2783,1.2783,1.2783,1.2783,1.2783,1.2759,1.2759,1.2783,1.2783,1.2735,1.2759,1.2783,1.2764,1.274,1.2443,1.2151,1.2,0.3307,0.3654,0.4099,0.4297,0.4322,0.4547,0.4636,0.4681,0.4855,0.4968,0.5035,0.5419,0.5599,0.5666,0.571,0.571,0.5724,0.5754,0.5828,0.5945,0.6216,0.6441,0.6741,0.708,0.7378,0.7645,0.7842,0.7961,0.8131,0.8443,0.8738,0.9011,0.93,0.9567,0.985,1.0019,1.0142,1.0364,1.0585,1.0757,1.0904,1.1051,1.1321,1.1487,1.1609,1.1736,1.1951,1.217,1.2322,1.2516,1.2662,1.2759,1.2783,1.2783,1.2783,1.2783,1.2783,1.2783,1.2783,1.2783,1.2783,1.2783,1.2783,1.2807,1.2856,1.3031,1.337,1.3588,1.3762,1.3973,1.4184,1.4208,1.4064,1.3925,1.3859,1.3738,1.3467,1.3219,1.3147,1.308,1.2958,1.2813,1.2813,1.2783,1.2789,1.2789,1.2816,1.2826,1.2853,1.2907,1.2904,1.2875,1.2837,1.2821,1.2794,1.2783,1.2783,1.2783,1.2783,1.2783,1.2783,1.2783,1.2759,1.2686,1.271,1.2716,1.2662,1.2613,1.2662,1.2662,1.254,1.2424,1.22,1.1932,1.178,0.3159,0.3654,0.4121,0.4297,0.432,0.4366,0.4389,0.4411,0.4636,0.477,0.4812,0.4991,0.5235,0.5463,0.5644,0.5691,0.5679,0.5758,0.5838,0.595,0.622,0.6385,0.6661,0.7147,0.755,0.7784,0.793,0.8087,0.8132,0.8359,0.8683,0.9064,0.9149,0.9391,0.9649,0.9826,0.9998,1.0167,1.0339,1.0536,1.0777,1.0973,1.1169,1.134,1.1487,1.159,1.1761,1.1956,1.217,1.2395,1.2594,1.2686,1.2735,1.2735,1.2759,1.2783,1.2783,1.2783,1.2783,1.2783,1.2783,1.2783,1.2783,1.2783,1.2807,1.2832,1.3104,1.3322,1.3539,1.3901,1.4064,1.3997,1.3859,1.3708,1.3593,1.3394,1.3147,1.3001,1.2905,1.288,1.2856,1.2789,1.2789,1.2794,1.281,1.2848,1.2972,1.2994,1.3069,1.3044,1.3039,1.2953,1.2907,1.2826,1.2783,1.2783,1.2783,1.2783,1.2783,1.2759,1.2759,1.2783,1.274,1.2604,1.2572,1.2575,1.2521,1.2466,1.2346,1.2322,1.2175,1.2029,1.1883,1.1756,1.1634]},{"header":{"parameterUnit":"m.s-1","parameterCategory":1,"la1":31.0,"la2":29.5877,"lo1":-88.7671,"lo2":-86.6584,"dy":0.0162,"dx":0.0185,"nx":115,"ny":88,"refTime":"2024-03-10T18:00:00:Z","depth":0,"parameterNumber":3,"parameterNumberName":"V-component_of_WINDS"},"data":[0.0,0.0,0.0,0.0,0.0,0.0,0.0,0.0,0.0,0.0,0.0,0.0,0.0,0.0,0.0,0.0,0.0,0.0,0.0,0.0,0.0,0.0,0.0,0.0,0.0,0.0,0.0,0.0,0.0,0.0,0.0,0.0,0.0,0.0,0.0,0.0,0.0,0.0,0.0,0.0,0.0,0.0,0.0,0.0,0.0,0.0,0.0,0.0,0.0,0.0,0.0,0.0,0.0,0.0,0.0,0.0,0.0,0.0,0.0,0.0,0.0,0.0,0.0,0.0,0.0,0.0,0.0,0.0,0.0,0.0,0.0,0.0,0.0,0.0,0.0,0.0,0.0,0.0,0.0,0.0,0.0,0.0,0.0,0.0,0.0,0.0,0.0,0.0,0.0,0.0,0.0,0.0,0.0,0.0,0.0,0.0,0.0,0.0,0.0,0.0,0.0,0.0,0.0,0.0,0.0,0.0,0.0,0.0,0.0,0.0,0.0,0.0,0.0,0.0,0.0,0.0,0.0,0.0,0.0,0.0,0.0,0.0,0.0,0.0,0.0,0.0,0.0,0.0,0.0,0.0,0.0,0.0,0.0,0.0,0.0,0.0,0.0,0.0,0.0,0.0,0.0,0.0,0.0,0.0,0.0,0.0,0.0,0.0,0.0,0.0,0.0,0.0,0.0,0.0,0.0,0.0,0.0,0.0,0.0,0.0,0.0,0.0,0.0,0.0,0.0,0.0,0.0,0.0,0.0,0.0,0.0,0.0,0.0,0.0,0.0,0.0,0.0,0.0,0.0,0.0,0.0,0.0,0.0,0.0,0.0,0.0,0.0,0.0,0.0,0.0,0.0,0.0,0.0,0.0,0.0,0.0,0.0,0.0,0.0,0.0,0.0,0.0,0.0,0.0,0.0,0.0,0.0,0.0,0.0,0.0,0.0,0.0,0.0,0.0,0.0,0.0,0.0,0.0,0.0,0.0,0.0,0.0,0.0,0.0,0.0,0.0,0.0,0.0,0.0,0.0,0.0,0.0,0.0,0.0,0.0,0.0,0.0,0.0,0.0,0.0,0.0,0.0,0.0,0.0,0.0,0.0,0.0,0.0,0.0,0.0,0.0,0.0,0.0,0.0,0.0,0.0,0.0,0.0,0.0,0.0,0.0,0.0,0.0,0.0,0.0,0.0,0.0,0.0,0.0,0.0,0.0,0.0,0.0,0.0,0.0,0.0,0.0,0.0,0.0,0.0,0.0,0.0,0.0,0.0,0.0,0.0,0.0,0.0,0.0,0.0,0.0,0.0,0.0,0.0,0.0,0.0,0.0,0.0,0.0,0.0,0.0,0.0,0.0,0.0,0.0,0.0,0.0,0.0,0.0,0.0,0.0,0.0,0.0,0.0,0.0,0.0,0.0,0.0,0.0,0.0,0.0,0.0,0.0,0.0,0.0,0.0,0.0,0.0,0.0,0.0,0.0,0.0,0.0,0.0,0.0,0.0,0.0,0.0,0.0,0.0,0.0,0.0,0.0,0.0,0.0,0.0,0.0,0.0,0.0,0.0,0.0,0.0,0.0,0.0,0.0,0.0,0.0,0.0,0.0,0.0,0.0,0.0,0.0,0.0,0.0,0.0,0.0,0.0,0.0,0.0,0.0,0.0,0.0,0.0,0.0,0.0,0.0,0.0,0.0,0.0,0.0,0.0,0.0,0.0,0.0,0.0,0.0,0.0,0.0,0.0,0.0,0.0,0.0,0.0,0.0,0.0,0.0,0.0,0.0,0.0,0.0,0.0,0.0,0.0,0.0,0.0,0.0,0.0,0.0,0.0,0.0,0.0,0.0,0.0,0.0,0.0,0.0,0.0,0.0,0.0,0.0,0.0,0.0,0.0,0.0,0.0,0.0,0.0,0.0,0.0,0.0,0.0,0.0,0.0,0.0,0.0,0.0,0.0,0.0,0.0,0.0,0.0,0.0,0.0,0.0,0.0,0.0,0.0,0.0,0.0,0.0,0.0,0.0,0.0,0.0,0.0,0.0,0.0,0.0,0.0,0.0,0.0,0.0,0.0,0.0,0.0,0.0,0.0,0.0,0.0,0.0,0.0,0.0,0.0,0.0,0.0,0.0,0.0,0.0,0.0,0.0,0.0,0.0,0.0,0.0,0.0,0.0,0.0,0.0,0.0,0.0,0.0,0.0,0.0,0.0,0.0,0.0,0.0,0.0,0.0,0.0,0.0,0.0,0.0,0.0,0.0,0.0,0.0,0.0,0.0,0.0,0.0,0.0,0.0,0.0,0.0,0.0,0.0,0.0,0.0,0.0,0.0,0.0,0.0,0.0,0.0,0.0,0.0,0.0,0.0,0.0,0.0,0.0,0.0,0.0,0.0,0.0,0.0,0.0,0.0,0.0,0.0,0.0,0.0,0.0,0.0,0.0,0.0,0.0,0.0,0.0,0.0,0.0,0.0,0.0,0.0,0.0,0.0,0.0,0.0,0.0,0.0,0.0,0.0,0.0,0.0,0.0,0.0,0.0,0.0,0.0,0.0,0.0,0.0,0.0,0.0,0.0,0.0,0.0,0.0,0.0,0.0,0.0,0.0,0.0,0.0,0.0,0.0,0.0,0.0,0.0,0.0,0.0,0.0,0.0,0.0,0.0,0.0,0.0,0.0,0.0,0.0,0.0,0.0,0.0,0.0,0.0,0.0,0.0,0.0,0.0,0.0,0.0,0.0,0.0,0.0,0.0,0.0,0.0,0.0,0.0,0.0,0.0,0.0,0.0,0.0,0.0,0.0,0.0,0.0,0.0,0.0,0.0,0.0,0.0,0.0,0.0,0.0,0.0,0.0,0.0,0.0,0.0,0.0,0.0,0.0,0.0,0.0,0.0,0.0,0.0,0.0,0.0,0.0,0.0,0.0,0.0,0.0,0.0,0.0,0.0,0.0,0.0,0.0,0.0,0.0,0.0,0.0,0.0,0.0,0.0,0.0,0.0,0.0,0.0,0.0,0.0,0.0,0.0,0.0,0.0,0.0,0.0,0.0,0.0,0.0,0.0,0.0,0.0,0.0,0.0,0.0,0.0,0.0,0.0,0.0,0.0,0.0,0.0,0.0,0.0,0.0,0.0,0.0,0.0,0.0,0.0,0.0,0.0,0.0,0.0,0.0,0.0,0.0,0.0,0.0,0.0,0.0,0.0,0.0,0.0,0.0,0.0,0.0,0.0,0.0,0.0,0.0,0.0,0.0,0.0,0.0,0.0,0.0,0.0,0.0,0.0,0.0,0.0,0.0,0.0,0.0,0.0,0.0,0.0,0.0,0.0,0.0,0.0,0.0,0.0,0.0,0.0,0.0,0.0,0.0,0.0,0.0,0.0,0.0,0.0,0.0,0.0,0.0,0.0,0.0,0.0,0.0,0.0,0.0,0.0,0.0,0.0,0.0,0.0,0.0,0.0,0.0,0.0,0.0,0.0,0.0,0.0,0.0,0.0,0.0,0.0,0.0,0.0,0.0,0.0,0.0,0.0,0.0,0.0,0.0,0.0,0.0,0.0,0.0,0.0,0.0,0.0,0.0,0.0,0.0,0.0,0.0,0.0,0.0,0.0,0.0,0.0,0.0,0.0,0.0,0.0,0.0,0.0,0.0,0.0,0.0,0.0,0.0,0.0,0.0,0.0,0.0,0.0,0.0,0.0,0.0,0.0,0.0,0.0,0.0,0.0,0.0,0.0,0.0,0.0,0.0,0.0,0.0,0.0,0.0,0.0,0.0,0.0,0.0,0.0,0.0,0.0,0.0,0.0,0.0,0.0,0.0,0.0,0.0,0.0,0.0,0.0,0.0,0.0,0.0,0.0,0.0,0.0,0.0,0.0,0.0,0.0,0.0,0.0,0.0,0.0,0.0,0.0,0.0,0.0,0.0,0.0,0.0,0.0,0.0,0.0,0.0,0.0,0.0,0.0,0.0,0.0,0.0,0.0,0.0,0.0,0.0,0.0,0.0,0.0,0.0,0.0,0.0,0.0,0.0,0.0,0.0,0.0,0.0,0.0,0.0,0.0,0.0,0.0,0.0,0.0,0.0,0.0,0.0,0.0,0.0,0.0,0.0,0.0,0.0,0.0,0.0,0.0,0.0,0.0,0.0,0.0,0.0,0.0,0.0,0.0,0.0,0.0,0.0,0.0,0.0,0.0,0.0,0.0,0.0,0.0,0.0,0.0,0.0,0.0,0.0,0.0,0.0,0.0,0.0,0.0,0.0,0.0,0.0,0.0,0.0,0.0,0.0,0.0,0.0,0.9488,0.0,0.0,0.0,0.0,0.0,0.0,0.0,0.0,0.0,0.0,0.0,0.0,0.0,0.0,0.0,0.0,0.0,0.0,0.0,0.0,0.0,0.0,0.0,0.0,0.0,0.0,0.0,0.0,0.0,0.0,0.0,0.0,0.0,0.0,0.0,0.0,0.0,0.0,0.0,0.0,0.0,0.0,0.0,0.0,0.0,0.0,0.0,0.0,0.0,0.0,0.0,0.0,0.0,0.0,0.0,0.0,0.0,0.0,0.0,0.0,0.0,0.0,0.0,0.0,0.0,0.0,0.0,0.0,0.0,0.0,0.0,0.0,0.0,0.0,0.0,0.0,0.0,0.0,0.0,0.0,0.0,0.0,0.0,0.0,0.0,0.0,0.0,0.0,0.0,0.0,0.0,0.0,0.0,0.0,0.0,0.0,0.0,0.0,0.0,0.0,0.0,0.0,0.0,0.0,0.0,0.0,0.0,0.0,0.0,0.0,0.9211,0.9236,0.9344,0.9409,0.9439,0.0,0.0,0.0,0.0,0.0,0.0,0.0,0.0,0.0,0.0,0.0,0.0,0.0,0.0,0.0,0.0,0.0,0.0,0.0,0.0,0.0,0.0,0.0,0.0,0.0,0.0,0.0,0.0,0.0,0.0,0.0,0.0,0.0,0.0,0.0,0.0,0.0,0.0,0.0,0.0,0.0,0.0,0.0,0.0,0.0,0.0,0.0,0.0,0.0,0.0,0.0,0.0,0.0,0.0,0.0,0.0,0.0,0.0,0.0,0.0,0.0,0.0,0.0,0.0,0.0,0.0,0.0,0.0,0.0,0.0,0.0,0.0,0.0,0.0,0.0,0.0,0.0,0.0,0.0,0.0,0.0,0.0,0.0,0.0,0.0,0.0,0.0,0.0,0.0,0.0,0.0,0.0,0.0,0.0,0.0,0.0,0.0,0.0,0.0,0.0,0.0,0.0,0.0,0.0,0.0,0.0,0.0,0.0,0.0,0.0,0.0,0.0,0.931,0.9405,0.9439,0.0,0.0,0.0,0.0,0.0,0.0,0.0,0.0,0.0,0.0,0.0,0.0,0.0,0.0,0.0,0.0,0.0,0.0,0.0,0.0,0.0,0.0,0.0,0.0,0.0,0.0,0.0,0.0,0.0,0.0,0.0,0.0,0.0,0.0,0.0,0.0,0.0,0.0,0.0,0.0,0.0,0.0,0.0,0.0,0.0,0.0,0.0,0.0,0.0,0.0,0.0,0.0,0.0,0.0,0.0,0.0,0.0,0.0,0.0,0.0,0.0,0.0,0.0,0.0,0.0,0.0,0.0,0.0,0.0,0.0,0.0,0.0,0.0,0.0,0.0,0.0,0.0,0.0,0.0,0.0,0.0,0.0,0.0,0.0,0.0,0.0,0.0,0.0,0.0,0.0,0.0,0.0,0.0,0.0,0.0,0.0,0.0,0.0,0.0,0.0,0.0,0.0,0.0,0.0,0.0,0.0,0.0,0.0,0.0,0.0,0.9151,0.9187,0.9273,0.0,0.9487,0.0,0.0,0.0,0.0,0.0,0.0,0.0,0.0,0.0,0.0,0.0,0.0,0.0,0.0,0.0,0.0,0.0,0.0,0.0,0.0,0.0,0.0,0.0,0.0,0.0,0.0,0.0,0.0,0.0,0.0,0.0,0.0,0.0,0.0,0.0,0.0,0.0,0.0,0.0,0.0,0.0,0.0,0.0,0.0,0.0,0.0,0.0,0.0,0.0,0.0,0.0,0.0,0.0,0.0,0.0,0.0,0.0,0.0,0.0,0.0,0.0,0.0,0.0,0.0,0.0,0.0,0.0,0.0,0.0,0.0,0.0,0.0,0.0,0.0,0.0,0.0,0.0,0.0,0.0,0.0,0.0,0.0,0.0,0.0,0.0,0.0,0.0,0.0,0.0,0.0,0.0,0.0,0.0,0.0,0.0,0.0,0.0,0.0,0.0,0.0,0.0,0.0,0.0,0.0,0.0,0.0,0.0,0.0,0.0,0.0,0.912,0.9148,0.9251,0.9581,0.0,0.0,0.0,0.0,0.0,0.0,0.0,0.0,0.0,0.0,0.0,0.0,0.0,0.0,0.0,0.0,0.0,0.0,0.0,0.0,0.0,0.0,0.0,0.0,0.0,0.0,0.0,0.0,0.0,0.0,0.0,0.0,0.0,0.0,0.0,0.0,0.0,0.0,0.0,0.0,0.0,0.0,0.0,0.0,0.0,0.0,0.0,0.0,0.0,0.0,0.0,0.0,0.0,0.0,0.0,0.0,0.0,0.0,0.0,0.0,0.0,0.0,0.0,0.0,0.0,0.0,0.0,0.0,0.0,0.0,0.0,0.0,0.0,0.0,0.0,0.0,0.0,0.0,0.0,0.0,0.0,0.0,0.0,0.0,0.0,0.0,0.0,0.0,0.0,0.0,0.0,0.0,0.0,0.0,0.0,0.0,0.0,0.0,0.0,0.0,0.0,0.0,0.0,0.0,0.0,0.0,0.0,0.0,0.0,0.0,0.9038,0.9103,0.9159,0.965,1.0189,1.0696,0.0,0.0,0.0,0.0,0.0,0.0,0.0,0.0,0.0,0.0,0.0,0.0,0.0,0.0,0.0,0.0,0.0,0.0,0.0,0.0,0.0,0.0,0.0,0.0,0.0,0.0,0.0,0.0,0.0,0.0,0.0,0.0,0.0,0.0,0.0,0.0,0.0,0.0,0.0,0.0,0.0,0.0,0.0,0.0,0.0,0.0,0.0,0.0,0.0,0.0,0.0,0.0,0.0,0.0,0.0,0.0,0.0,0.0,0.0,0.0,0.0,0.0,0.0,0.0,0.0,0.0,0.0,0.0,0.0,0.0,0.0,0.0,0.0,0.0,0.0,0.0,0.0,0.0,0.0,0.0,0.0,0.0,0.0,0.0,0.0,0.0,0.0,0.0,0.0,0.0,0.0,0.0,0.0,0.0,0.0,0.0,0.0,0.0,0.0,0.0,0.0,0.0,0.0,0.0,0.0,0.0,0.0,0.0,0.8917,0.8973,0.9081,0.9257,1.0702,1.1262,0.0,0.0,0.0,0.0,0.0,0.0,0.0,0.0,0.0,0.0,0.0,0.0,0.0,0.0,0.0,0.0,0.0,0.0,0.0,0.0,0.0,0.0,0.0,0.0,0.0,0.0,0.0,0.0,0.0,0.0,0.0,0.0,0.0,0.0,0.0,0.0,0.0,0.0,0.0,0.0,0.0,0.0,0.0,0.0,0.0,0.0,0.0,0.0,0.0,0.0,0.0,0.0,0.0,0.0,0.0,0.0,0.0,0.0,0.0,0.0,0.0,0.0,0.0,0.0,0.0,0.0,0.0,0.0,0.0,0.0,0.0,0.0,0.0,0.0,0.0,0.0,0.0,0.0,0.0,0.0,0.0,0.0,0.0,0.0,0.0,0.0,0.0,0.0,0.0,0.0,0.0,0.0,0.0,0.0,0.0,0.0,0.0,0.0,0.0,0.0,0.0,0.0,0.0,0.0,0.0,0.0,0.0,0.0,0.0,0.8922,0.9434,0.9998,1.0611,1.1266,1.176,0.0,0.0,0.0,0.0,0.0,0.0,0.0,0.0,0.0,0.0,0.0,0.0,0.0,0.0,0.0,0.0,0.0,0.0,0.0,0.0,0.0,0.0,0.0,0.0,0.0,0.0,0.0,0.0,0.0,0.0,0.0,0.0,0.0,0.0,0.0,0.0,0.0,0.0,0.0,0.0,0.0,0.0,0.0,0.0,0.0,0.0,0.0,0.0,0.0,0.0,0.0,0.0,0.0,0.0,0.0,0.0,0.0,0.0,0.0,0.0,0.0,0.0,0.0,0.0,0.0,0.0,0.0,0.0,0.0,0.0,0.0,0.0,0.0,0.0,0.0,0.0,0.0,0.0,0.0,0.0,0.0,0.0,0.0,0.0,0.0,0.0,0.0,0.0,0.0,0.0,0.0,0.0,0.0,0.0,0.0,0.0,0.0,0.0,0.0,0.0,0.0,0.0,0.0,0.0,0.0,0.0,0.0,0.0,0.0,0.9628,0.0,1.1004,1.1364,1.2005,1.2507,0.0,0.0,0.0,0.0,0.0,0.0,0.0,0.0,0.0,0.0,0.0,0.0,0.0,0.0,0.0,0.0,0.0,0.0,0.0,0.0,0.0,0.0,0.0,0.0,0.0,0.0,0.0,0.0,0.0,0.0,0.0,0.0,0.0,0.0,0.0,0.0,0.0,0.0,0.0,0.0,0.0,0.0,0.0,0.0,0.0,0.0,0.0,0.0,0.0,0.0,0.0,0.0,0.0,0.0,0.0,0.0,0.0,0.0,0.0,0.0,0.0,0.0,0.0,0.0,0.0,0.0,0.0,0.0,0.0,0.0,0.0,0.0,0.0,0.0,0.0,0.0,0.0,0.0,0.0,0.0,0.0,0.0,0.0,0.0,0.0,0.0,0.0,0.0,0.0,0.0,0.0,0.0,0.0,0.0,0.0,0.0,0.0,0.0,0.0,0.0,0.0,0.0,0.0,0.0,0.0,0.0,0.0,0.0,1.0306,1.1091,1.1862,1.1964,1.1402,1.2969,1.3549,0.0,0.0,0.0,0.0,0.0,0.0,0.0,0.0,0.0,0.0,0.0,0.0,0.0,0.0,0.0,0.0,0.0,0.0,0.0,0.0,0.0,0.0,0.0,0.0,0.0,0.0,0.0,0.0,0.0,0.0,0.0,0.0,0.0,0.0,0.0,0.0,0.0,0.0,0.0,0.0,0.0,0.0,0.0,0.0,0.0,0.0,0.0,0.0,0.0,0.0,0.0,0.0,0.0,0.0,0.0,0.0,0.0,0.0,0.0,0.0,0.0,0.0,0.0,0.0,0.0,0.0,0.0,0.0,0.0,0.0,0.0,0.0,0.0,0.0,0.0,0.0,0.0,0.0,0.0,0.0,0.0,0.0,0.0,0.0,0.0,0.0,0.0,0.0,0.0,0.0,0.0,0.0,0.0,0.0,0.0,0.0,0.0,0.0,0.0,0.0,0.0,0.0,0.0,0.0,0.0,0.0,0.0,0.0,0.0,1.1785,1.212,1.2493,1.2869,1.3555,1.3863,0.0,0.0,0.0,0.0,0.0,0.0,0.0,0.0,0.0,0.0,0.0,0.0,0.0,0.0,0.0,0.0,0.0,0.0,0.0,0.0,0.0,0.0,0.0,0.0,0.0,0.0,0.0,0.0,0.0,0.0,0.0,0.0,0.0,0.0,0.0,0.0,0.0,0.0,0.0,0.0,0.0,0.0,0.0,0.0,0.0,0.0,0.0,0.0,0.0,0.0,0.0,0.0,0.0,0.0,0.0,0.0,0.0,0.0,0.0,0.0,0.0,0.0,0.0,0.0,0.0,0.0,0.0,0.0,0.0,0.0,0.0,0.0,0.0,0.0,0.0,0.0,0.0,0.0,0.0,0.0,0.0,0.0,0.0,0.0,0.0,0.0,0.0,0.0,0.0,0.0,0.0,0.0,0.0,0.0,0.0,0.0,0.0,0.0,0.0,0.0,0.0,0.0,0.0,0.0,0.0,0.0,0.0,0.0,0.0,1.2514,1.2645,1.3001,1.3601,1.3803,1.3965,1.4103,0.0,0.0,0.0,0.0,0.0,0.0,0.0,0.0,0.0,0.0,0.0,0.0,0.0,0.0,0.0,0.0,0.0,0.0,0.0,0.0,0.0,0.0,0.0,0.0,0.0,0.0,0.0,0.0,0.0,0.0,0.0,0.0,0.0,0.0,0.0,0.0,0.0,0.0,0.0,0.0,0.0,0.0,0.0,0.0,0.0,0.0,0.0,0.0,0.0,0.0,0.0,0.0,0.0,0.0,0.0,0.0,0.0,0.0,0.0,0.0,0.0,0.0,0.0,0.0,0.0,0.0,0.0,0.0,0.0,0.0,0.0,0.0,0.0,0.0,0.0,0.0,0.0,0.0,0.0,0.0,0.0,0.0,0.0,0.0,0.0,0.0,0.0,0.0,0.0,0.0,0.0,0.0,0.0,0.0,0.0,0.0,0.0,0.0,0.0,0.0,0.0,0.0,0.0,0.0,0.0,0.0,0.0,0.0,1.3256,1.3434,1.3548,1.3597,1.3834,1.4001,0.0,0.0,0.0,0.0,0.0,0.0,0.0,0.0,0.0,0.0,0.0,0.0,0.0,0.0,0.0,0.0,0.0,0.0,0.0,0.0,0.0,0.0,0.0,0.0,0.0,0.0,0.0,0.0,0.0,0.0,0.0,0.0,0.0,0.0,0.0,0.0,0.0,0.0,0.0,0.0,0.0,0.0,0.0,0.0,0.0,0.0,0.0,0.0,0.0,0.0,0.0,0.0,0.0,0.0,0.0,0.0,0.0,0.0,0.0,0.0,0.0,0.0,0.0,0.0,0.0,0.0,0.0,0.0,0.0,0.0,0.0,0.0,0.0,0.0,0.0,0.0,0.0,0.0,0.0,0.0,0.0,0.0,0.0,0.0,0.0,0.0,0.0,0.0,0.0,0.0,0.0,0.0,0.0,0.0,0.0,0.0,0.0,0.0,0.0,0.0,0.0,0.0,0.0,0.0,0.0,0.0,0.0,0.0,0.0,1.4029,1.4674,1.4574,1.3666,1.4333,1.4522,0.0,0.0,0.0,0.0,0.0,0.0,0.0,0.0,0.0,0.0,0.0,0.0,0.0,0.0,0.0,0.0,0.0,0.0,0.0,0.0,0.0,0.0,0.0,0.0,0.0,0.0,0.0,0.0,0.0,0.0,0.0,0.0,0.0,0.0,0.0,0.0,0.0,0.0,0.0,0.0,0.0,0.0,0.0,0.0,0.0,0.0,0.0,0.0,0.0,0.0,0.0,0.0,0.0,0.0,0.0,0.0,0.0,0.0,0.0,0.0,0.0,0.0,0.0,0.0,0.0,0.0,0.0,0.0,0.0,0.0,0.0,0.0,0.0,0.0,0.0,0.0,0.0,0.0,0.0,0.0,0.0,0.0,0.0,0.0,0.0,0.0,0.0,0.0,0.0,0.0,0.0,0.0,0.0,0.0,0.0,0.0,0.0,0.0,0.0,0.0,0.0,0.0,0.0,0.0,0.0,0.0,0.0,0.0,1.4412,1.4747,1.5643,1.5616,1.4585,1.4852,1.4867,0.0,0.0,0.0,0.0,0.0,0.0,0.0,0.0,0.0,0.0,0.0,0.0,0.0,0.0,0.0,0.0,0.0,0.0,0.0,0.0,0.0,0.0,0.0,0.0,0.0,0.0,0.0,0.0,0.0,0.0,0.0,0.0,0.0,0.0,0.0,0.0,0.0,0.0,0.0,0.0,0.0,0.0,0.0,0.0,0.0,0.0,0.0,0.0,0.0,0.0,0.0,0.0,0.0,0.0,0.0,0.0,0.0,0.0,0.0,0.0,0.0,0.0,0.0,0.0,0.0,0.0,0.0,0.0,0.0,0.0,0.0,0.0,0.0,0.0,0.0,0.0,0.0,0.0,0.0,0.0,0.0,0.0,0.0,0.0,0.0,0.0,0.0,0.0,0.0,0.0,0.0,0.0,0.0,0.0,0.0,0.0,0.0,0.0,0.0,0.0,0.0,0.0,0.0,0.0,0.0,0.0,0.0,0.0,1.4861,1.5521,1.6438,1.6668,1.6143,1.557,1.5272,0.0,0.0,0.0,0.0,0.0,0.0,0.0,0.0,0.0,0.0,0.0,0.0,0.0,0.0,0.0,0.0,0.0,0.0,0.0,0.0,0.0,0.0,0.0,0.0,0.0,0.0,0.0,0.0,0.0,0.0,0.0,0.0,0.0,0.0,0.0,0.0,0.0,0.0,0.0,0.0,0.0,0.0,0.0,0.0,0.0,0.0,0.0,0.0,0.0,0.0,0.0,0.0,0.0,0.0,0.0,0.0,0.0,0.0,0.0,0.0,0.0,0.0,0.0,0.0,0.0,0.0,0.0,0.0,0.0,0.0,0.0,0.0,0.0,0.0,0.0,0.0,0.0,0.0,0.0,0.0,0.0,0.0,0.0,0.0,0.0,0.0,0.0,0.0,0.0,0.0,0.0,0.0,0.0,0.0,0.0,0.0,0.0,0.0,0.0,0.0,0.0,0.0,0.0,0.0,0.0,0.0,0.0,0.0,1.6135,1.6353,1.7201,1.7673,1.7715,1.7136,1.6597,0.0,0.0,0.0,0.0,0.0,0.0,0.0,0.0,0.0,0.0,0.0,0.0,0.0,0.0,0.0,0.0,0.0,0.0,0.0,0.0,0.0,0.0,0.0,0.0,0.0,0.0,0.0,0.0,0.0,0.0,0.0,0.0,0.0,0.0,0.0,0.0,0.0,0.0,0.0,0.0,0.0,0.0,0.0,0.0,0.0,0.0,0.0,0.0,1.5474,0.0,0.0,0.0,0.0,0.0,0.0,0.0,0.0,0.0,0.0,0.0,0.0,0.0,0.0,0.0,0.0,0.0,0.0,0.0,0.0,0.0,0.0,0.0,0.0,0.0,0.0,0.0,0.0,0.0,0.0,0.0,0.0,0.0,0.0,0.0,0.0,0.0,0.0,0.0,0.0,0.0,0.0,0.0,0.0,0.0,0.0,0.0,0.0,0.0,0.0,0.0,0.0,0.0,0.0,0.0,0.0,0.0,0.0,0.0,1.6702,1.7154,1.7695,1.8073,1.8222,1.8041,1.7621,0.0,0.0,0.0,0.0,0.0,0.0,0.0,0.0,0.0,0.0,0.0,0.0,0.0,0.0,0.0,0.0,0.0,0.0,0.0,0.0,0.0,0.0,0.0,0.0,0.0,0.0,0.0,0.0,0.0,0.0,0.0,0.0,0.0,0.0,0.0,0.0,0.0,0.0,0.0,0.0,0.0,0.0,0.0,0.0,0.0,0.0,0.0,0.0,0.0,0.0,0.0,0.0,0.0,0.0,0.0,0.0,0.0,0.0,0.0,0.0,0.0,0.0,0.0,0.0,0.0,0.0,0.0,0.0,0.0,0.0,0.0,0.0,0.0,0.0,0.0,0.0,0.0,0.0,0.0,0.0,0.0,0.0,0.0,0.0,0.0,0.0,0.0,0.0,0.0,0.0,0.0,0.0,0.0,0.0,0.0,0.0,0.0,0.0,0.0,0.0,0.0,0.0,0.0,0.0,0.0,0.0,0.0,1.6758,1.7227,1.7958,1.8306,1.8468,1.8479,1.8668,1.8466,1.7807,0.0,0.0,0.0,0.0,0.0,0.0,0.0,0.0,0.0,0.0,0.0,0.0,0.0,0.0,0.0,0.0,0.0,0.0,0.0,0.0,0.0,0.0,0.0,0.0,0.0,0.0,0.0,0.0,0.0,0.0,0.0,0.0,0.0,0.0,0.0,0.0,0.0,0.0,1.3957,1.4637,0.0,0.0,0.0,0.0,0.0,0.0,0.0,0.0,1.6393,0.0,0.0,0.0,0.0,0.0,0.0,0.0,0.0,0.0,0.0,0.0,0.0,0.0,0.0,0.0,0.0,0.0,0.0,0.0,0.0,0.0,0.0,0.0,0.0,0.0,0.0,0.0,0.0,0.0,0.0,0.0,0.0,0.0,0.0,0.0,0.0,0.0,0.0,0.0,0.0,0.0,0.0,0.0,0.0,0.0,0.0,0.0,0.0,0.0,0.0,0.0,0.0,0.0,0.0,0.0,0.0,1.6509,1.7821,1.8617,1.8801,1.9653,1.9848,1.9347,1.9438,1.9251,1.8659,0.0,0.0,0.0,0.0,0.0,0.0,0.0,0.0,0.0,0.0,0.0,0.0,0.0,0.0,0.0,0.0,0.0,0.0,0.0,0.0,0.0,0.0,0.0,0.0,0.0,0.0,0.0,0.0,0.0,0.0,0.0,0.0,0.0,0.0,0.0,0.0,0.0,0.0,0.0,1.578,1.6688,0.0,0.0,0.0,0.0,0.0,0.0,0.0,0.0,1.7939,0.0,0.0,0.0,0.0,0.0,0.0,0.0,0.0,0.0,0.0,0.0,0.0,0.0,0.0,0.0,0.0,0.0,0.0,0.0,0.0,0.0,0.0,0.0,0.0,0.0,0.0,0.0,0.0,0.0,0.0,0.0,0.0,0.0,0.0,0.0,0.0,0.0,0.0,0.0,0.0,0.0,0.0,0.0,0.0,0.0,0.0,0.0,0.0,0.0,0.0,0.0,0.0,0.0,0.0,0.0,1.768,1.853,1.9196,1.9668,2.0234,2.0205,1.9623,1.9711,1.9485,0.0,0.0,0.0,0.0,0.0,0.0,0.0,0.0,0.0,0.0,0.0,0.0,0.0,0.0,0.0,0.0,0.0,0.0,0.0,0.0,0.0,0.0,0.0,0.0,0.0,0.0,0.0,0.0,0.0,0.0,0.0,0.0,0.0,0.0,0.0,0.0,0.0,0.0,0.0,0.0,1.6558,1.7151,1.7569,0.0,0.0,0.0,0.0,0.0,0.0,1.8258,1.8318,0.0,0.0,0.0,0.0,0.0,0.0,0.0,0.0,0.0,0.0,0.0,0.0,0.0,0.0,0.0,0.0,0.0,0.0,0.0,0.0,0.0,0.0,0.0,0.0,0.0,0.0,0.0,0.0,0.0,0.0,0.0,0.0,0.0,0.0,0.0,0.0,0.0,0.0,0.0,0.0,0.0,0.0,0.0,0.0,0.0,0.0,0.0,0.0,0.0,0.0,0.0,0.0,0.0,0.0,0.0,1.8782,1.9109,1.9671,2.0525,2.0828,2.0714,2.0192,2.0085,1.9763,0.0,0.0,0.0,0.0,0.0,0.0,0.0,0.0,0.0,0.0,0.0,0.0,0.0,0.0,0.0,0.0,0.0,0.0,0.0,0.0,0.0,0.0,0.0,0.0,0.0,0.0,0.0,0.0,0.0,0.0,0.0,0.0,0.0,0.0,0.0,0.0,0.0,0.0,0.0,0.0,0.0,1.7707,1.8338,1.8539,0.0,0.0,0.0,0.0,1.8648,1.8721,0.0,0.0,0.0,0.0,0.0,0.0,0.0,0.0,0.0,0.0,0.0,0.0,0.0,0.0,0.0,0.0,0.0,0.0,0.0,0.0,0.0,0.0,0.0,0.0,0.0,0.0,0.0,0.0,0.0,0.0,0.0,0.0,0.0,0.0,0.0,0.0,0.0,0.0,0.0,0.0,0.0,0.0,0.0,0.0,0.0,0.0,0.0,0.0,0.0,0.0,0.0,0.0,0.0,0.0,0.0,0.0,1.8928,1.9696,2.0513,2.1431,2.22,2.2331,2.1742,2.1186,2.0563,0.0,0.0,0.0,0.0,0.0,0.0,0.0,0.0,0.0,0.0,0.0,0.0,0.0,0.0,0.0,0.0,0.0,0.0,0.0,0.0,0.0,0.0,0.0,0.0,0.0,0.0,0.0,0.0,0.0,0.0,0.0,0.0,0.0,0.0,0.0,0.0,0.0,0.0,0.0,0.0,0.0,1.9056,1.9165,1.9728,2.013,0.0,0.0,2.0159,2.0142,2.0252,0.0,0.0,0.0,0.0,0.0,0.0,0.0,0.0,0.0,0.0,0.0,0.0,0.0,0.0,0.0,0.0,0.0,0.0,0.0,0.0,0.0,0.0,0.0,0.0,0.0,0.0,0.0,0.0,0.0,0.0,0.0,0.0,0.0,0.0,0.0,0.0,0.0,0.0,0.0,0.0,0.0,0.0,0.0,0.0,0.0,0.0,0.0,0.0,0.0,0.0,0.0,0.0,0.0,0.0,0.0,1.847,1.9661,2.0489,2.1333,2.2258,2.2726,2.2655,2.2064,2.1405,2.0736,0.0,0.0,0.0,0.0,0.0,0.0,0.0,0.0,0.0,0.0,0.0,0.0,0.0,0.0,0.0,0.0,0.0,0.0,0.0,0.0,0.0,0.0,0.0,0.0,0.0,0.0,0.0,0.0,0.0,0.0,0.0,0.0,0.0,0.0,0.0,0.0,0.0,0.0,0.0,0.0,0.0,0.0,1.986,2.0205,0.0,0.0,0.0,2.0377,2.0377,0.0,0.0,0.0,0.0,0.0,0.0,0.0,0.0,0.0,0.0,0.0,0.0,0.0,0.0,0.0,0.0,0.0,0.0,0.0,0.0,0.0,0.0,0.0,0.0,0.0,0.0,0.0,0.0,0.0,0.0,0.0,0.0,0.0,0.0,0.0,0.0,0.0,0.0,0.0,0.0,0.0,0.0,0.0,0.0,0.0,0.0,0.0,0.0,0.0,0.0,0.0,0.0,0.0,0.0,0.0,0.0,0.0,2.0221,2.1214,2.2184,2.3085,2.3249,2.3108,2.2711,2.1833,0.0,0.0,0.0,0.0,0.0,0.0,0.0,0.0,0.0,0.0,0.0,0.0,0.0,0.0,0.0,0.0,0.0,0.0,0.0,0.0,0.0,0.0,0.0,0.0,0.0,0.0,0.0,1.3828,0.0,0.0,0.0,0.0,0.0,0.0,0.0,0.0,0.0,0.0,0.0,0.0,0.0,0.0,2.0073,2.0624,2.1021,2.1256,0.0,0.0,2.1492,2.1298,2.139,2.1353,0.0,0.0,0.0,0.0,0.0,0.0,0.0,0.0,0.0,0.0,0.0,0.0,0.0,0.0,0.0,0.0,0.0,0.0,0.0,0.0,0.0,0.0,0.0,0.0,0.0,0.0,0.0,0.0,0.0,0.0,0.0,0.0,0.0,0.0,0.0,0.0,0.0,0.0,0.0,0.0,0.0,0.0,0.0,0.0,0.0,0.0,0.0,0.0,0.0,0.0,0.0,0.0,0.0,0.0,0.0,2.0312,2.1833,2.3056,2.399,2.4149,2.4249,2.431,2.2898,2.1802,0.0,0.0,0.0,0.0,0.0,0.0,0.0,0.0,0.0,0.0,0.0,0.0,0.0,0.0,0.0,0.0,0.0,0.0,0.0,0.0,0.0,0.0,0.0,0.0,0.0,0.0,0.0,0.0,0.0,0.0,0.0,0.0,0.0,0.0,0.0,0.0,0.0,0.0,0.0,0.0,0.0,2.1447,2.1516,2.2699,2.3553,0.0,0.0,2.445,2.377,2.3757,2.3391,2.2047,0.0,0.0,0.0,0.0,0.0,0.0,0.0,0.0,0.0,0.0,0.0,0.0,0.0,0.0,0.0,0.0,0.0,0.0,0.0,0.0,0.0,0.0,0.0,0.0,0.0,0.0,0.0,0.0,0.0,0.0,0.0,0.0,0.0,0.0,0.0,0.0,0.0,0.0,0.0,0.0,0.0,0.0,0.0,0.0,0.0,0.0,0.0,0.0,0.0,0.0,0.0,0.0,0.0,1.9945,2.0385,2.2388,2.3665,2.4083,2.4271,2.4417,2.4505,2.3039,2.2137,0.0,0.0,0.0,0.0,0.0,0.0,0.0,0.0,0.0,0.0,0.0,0.0,0.0,0.0,0.0,0.0,0.0,0.0,0.0,0.0,0.0,0.0,0.0,0.0,0.0,0.0,0.0,0.0,1.5962,1.6473,1.6536,0.0,0.0,0.0,0.0,0.0,0.0,0.0,0.0,0.0,0.0,2.2447,2.2912,2.386,0.0,0.0,2.486,2.4982,2.4733,2.4408,2.3979,2.3406,2.258,0.0,0.0,0.0,0.0,0.0,0.0,0.0,0.0,0.0,0.0,0.0,0.0,0.0,0.0,0.0,0.0,0.0,0.0,0.0,0.0,0.0,0.0,0.0,0.0,0.0,0.0,0.0,0.0,0.0,0.0,0.0,0.0,0.0,0.0,0.0,0.0,0.0,0.0,0.0,0.0,0.0,0.0,0.0,0.0,0.0,0.0,0.0,0.0,0.0,0.0,0.0,0.0,2.0404,2.0744,2.3099,2.4344,2.4486,2.4899,2.5033,2.4825,2.3673,2.2802,0.0,0.0,0.0,0.0,0.0,0.0,0.0,0.0,0.0,0.0,0.0,0.0,0.0,0.0,0.0,0.0,0.0,0.0,0.0,0.0,0.0,0.0,0.0,0.0,0.0,0.0,0.0,0.0,1.6763,1.7188,1.7003,0.0,0.0,0.0,0.0,0.0,0.0,0.0,0.0,0.0,0.0,2.3302,2.406,2.4847,2.5357,2.5429,2.5642,2.5754,2.5617,2.5191,2.4806,2.4605,0.0,0.0,0.0,0.0,0.0,0.0,0.0,0.0,0.0,0.0,0.0,0.0,0.0,0.0,0.0,0.0,0.0,0.0,0.0,0.0,0.0,0.0,0.0,0.0,0.0,0.0,0.0,0.0,0.0,0.0,1.5503,0.0,0.0,0.0,0.0,0.0,0.0,0.0,0.0,0.0,0.0,0.0,0.0,0.0,0.0,0.0,0.0,0.0,0.0,0.0,0.0,0.0,0.0,2.0746,2.1605,2.3927,2.5223,2.5388,2.6259,2.6377,2.5696,2.5002,2.3915,2.2368,0.0,0.0,0.0,0.0,0.0,0.0,0.0,0.0,0.0,0.0,0.0,0.0,0.0,0.0,0.0,0.0,0.0,0.0,0.0,0.0,0.0,0.0,0.0,0.0,0.0,0.0,1.6799,1.7553,1.7769,0.0,0.0,0.0,0.0,0.0,0.0,0.0,0.0,0.0,0.0,2.3336,2.4077,2.4867,2.5673,2.6185,2.6199,2.6884,2.7213,2.6554,2.6453,2.6212,0.0,0.0,0.0,0.0,0.0,0.0,0.0,0.0,0.0,0.0,0.0,0.0,0.0,0.0,0.0,0.0,0.0,0.0,0.0,0.0,0.0,0.0,0.0,0.0,0.0,0.0,0.0,1.5473,1.5503,0.0,0.0,0.0,0.0,0.0,0.0,0.0,0.0,0.0,0.0,0.0,1.9968,2.0256,0.0,0.0,0.0,0.0,0.0,0.0,0.0,0.0,0.0,0.0,0.0,0.0,2.1519,2.2429,2.4256,2.5534,2.6188,2.6601,2.6703,2.649,2.5804,2.4712,2.3154,0.0,0.0,0.0,0.0,0.0,0.0,0.0,0.0,0.0,0.0,0.0,0.0,0.0,0.0,0.0,0.0,0.0,0.0,0.0,0.0,0.0,0.0,0.0,0.0,0.0,1.7703,0.0,0.0,0.0,0.0,0.0,0.0,0.0,0.0,0.0,0.0,0.0,2.2345,2.342,2.4614,2.5522,2.5892,2.6581,2.7081,0.0,0.0,0.0,0.0,0.0,0.0,0.0,0.0,0.0,0.0,0.0,0.0,0.0,0.0,2.431,2.3768,2.3269,2.2921,2.2921,0.0,0.0,0.0,0.0,0.0,0.0,0.0,0.0,0.0,0.0,0.0,0.0,0.0,0.0,1.6948,0.0,1.7009,0.0,0.0,0.0,0.0,0.0,0.0,0.0,0.0,2.0575,2.1079,2.1121,2.1687,2.1983,0.0,2.2009,2.1456,0.0,0.0,0.0,0.0,0.0,0.0,0.0,0.0,2.2347,2.328,2.4843,2.5985,2.6651,2.7024,2.7131,2.6934,2.6179,2.533,2.4331,2.3297,2.2234,0.0,0.0,0.0,0.0,0.0,0.0,0.0,0.0,0.0,0.0,0.0,0.0,0.0,0.0,0.0,0.0,0.0,0.0,0.0,0.0,0.0,0.0,0.0,1.8102,0.0,0.0,0.0,0.0,0.0,0.0,0.0,0.0,0.0,2.1173,2.2106,2.3251,2.4663,2.5653,2.639,2.673,0.0,0.0,0.0,0.0,0.0,0.0,0.0,2.7868,2.7843,2.7411,2.7052,2.7052,2.7008,2.7151,2.7721,0.0,0.0,2.6274,2.568,2.5345,2.5355,2.4952,2.4793,2.5319,2.5458,2.5727,0.0,0.0,0.0,0.0,0.0,0.0,0.0,0.0,1.9755,1.9721,0.0,1.9718,0.0,0.0,0.0,0.0,0.0,2.0355,0.0,0.0,2.1869,2.26,2.2788,2.414,2.4905,2.4998,2.4912,2.4171,2.2733,2.1289,0.0,0.0,0.0,0.0,0.0,0.0,2.3249,2.4188,2.5698,2.6595,2.6857,2.7575,2.7698,2.7067,2.6282,2.583,2.5776,2.4397,2.3559,2.3446,2.1282,0.0,0.0,0.0,0.0,0.0,0.0,0.0,0.0,0.0,0.0,0.0,0.0,0.0,0.0,0.0,0.0,0.0,0.0,0.0,0.0,1.8176,0.0,0.0,0.0,0.0,0.0,0.0,0.0,0.0,0.0,0.0,2.2994,2.3022,2.3805,2.6125,0.0,0.0,0.0,0.0,2.8837,2.8837,2.9548,3.0079,3.0096,3.0133,3.0153,3.0153,0.0,0.0,3.0077,3.0079,3.0026,3.0106,3.0079,2.9657,2.818,2.7806,2.7733,2.7751,2.7723,2.7751,2.7761,2.7706,2.7974,2.2472,0.0,0.0,0.0,0.0,2.01,2.0018,1.9929,1.9894,1.9884,1.9952,1.9942,0.0,0.0,0.0,0.0,0.0,0.0,2.189,2.193,2.349,2.4215,2.427,2.4741,2.5001,2.4998,2.4998,2.4774,2.4343,2.3905,2.2552,2.0439,0.0,0.0,0.0,0.0,2.4861,2.5771,2.6318,2.6929,2.7639,2.7925,2.7988,2.7874,2.7079,2.6657,2.6646,2.5669,2.4617,2.3559,2.2846,0.0,0.0,0.0,0.0,0.0,0.0,0.0,0.0,0.0,0.0,0.0,0.0,0.0,0.0,0.0,0.0,0.0,0.0,0.0,1.9677,1.9746,1.9746,0.0,0.0,0.0,0.0,0.0,0.0,0.0,0.0,0.0,2.6008,2.6178,2.6432,0.0,0.0,2.9015,2.9325,2.9605,2.98,2.98,3.0047,0.0,0.0,3.0266,3.0281,3.0274,3.0281,3.0266,3.0243,3.026,3.0437,3.1004,3.1092,3.1075,3.1161,3.0241,2.9555,2.9546,2.9561,2.9554,2.9554,2.9561,2.964,2.4344,2.2344,2.2227,2.2096,2.1983,2.1905,2.184,2.1744,2.1695,2.1695,2.1744,2.1744,2.1771,2.1803,2.1936,0.0,0.0,0.0,2.348,2.3441,2.4717,2.5312,2.5342,2.5672,2.5855,2.5919,2.5949,2.5774,2.5463,2.5524,2.4465,2.2399,0.0,0.0,2.3737,2.5014,2.5938,2.6495,2.6918,2.7402,2.7989,2.8092,2.8172,2.8189,2.7721,2.7478,2.7453,2.6693,2.5705,2.445,2.3826,2.268,0.0,0.0,0.0,0.0,0.0,0.0,0.0,0.0,0.0,0.0,0.0,1.7211,0.0,0.0,0.0,0.0,1.9298,2.0062,2.0803,2.0872,0.0,0.0,0.0,0.0,0.0,0.0,0.0,2.5248,2.5464,2.6257,2.83,2.8812,2.8876,2.8633,2.9417,3.0045,3.0128,0.0,3.0704,3.0712,3.1007,3.1215,3.1215,3.1505,3.1822,3.2157,3.2211,3.2194,3.2162,3.2154,3.2331,3.2747,3.2889,3.3021,3.3506,3.2773,3.1881,3.1357,3.1481,3.1684,3.1684,3.1949,3.2162,2.6244,2.5536,2.5289,2.5003,2.4726,2.4634,2.4527,2.443,2.4398,2.4423,2.4415,2.4415,2.4469,2.4529,2.4666,0.0,2.4903,2.4972,2.4959,2.4927,2.5662,2.6043,2.6122,2.68,2.7184,2.7305,2.7368,2.7068,2.645,2.6524,2.6247,2.5578,2.5504,2.5396,2.5274,2.6127,2.6593,2.6607,2.7461,2.7946,2.8021,2.8133,2.8189,2.8189,2.8189,2.8189,2.8171,2.7424,2.6628,2.5818,2.4385,2.3179,2.2232,0.0,0.0,0.0,0.0,0.0,0.0,0.0,0.0,0.0,0.0,0.0,0.0,0.0,0.0,0.0,2.0205,0.0,2.181,2.1886,0.0,0.0,0.0,2.4105,2.4347,2.4972,2.6002,2.7607,0.0,0.0,2.9993,3.0781,3.0983,3.0369,3.0354,3.0374,3.039,3.1177,3.1685,3.1729,3.2329,3.2799,3.2842,3.3416,3.4088,3.4709,3.5101,3.4924,3.4836,3.4854,3.4951,3.4871,3.5013,3.4978,3.5074,3.4932,3.463,3.3072,3.3365,3.3879,3.3834,3.4304,3.4729,2.8965,2.8697,2.7959,2.6575,2.4859,2.4851,2.4775,2.4709,2.4599,2.4552,2.4552,2.456,2.4645,2.4805,2.4851,2.4886,2.5011,2.5579,2.5813,2.5849,2.6607,2.6966,2.7017,2.7227,2.7353,2.7368,2.7444,2.7699,2.8089,2.814,2.8347,2.8694,2.8725,2.7903,2.6263,2.6948,2.7367,2.7433,2.7794,2.8035,2.8165,2.8175,2.8189,2.8189,2.8189,2.8189,2.8189,2.7442,2.6646,2.583,2.4926,2.3755,2.2346,2.1867,0.0,0.0,0.0,0.0,0.0,0.0,0.0,0.0,0.0,1.9422,1.9935,0.0,2.0489,0.0,2.2399,2.3537,2.4277,2.4347,0.0,0.0,2.5685,2.6256,2.7441,2.7791,2.8301,2.9233,2.9446,2.9854,3.0834,3.1137,3.1442,3.1865,3.1952,3.1968,3.206,3.2789,3.3345,3.3371,3.398,3.4583,3.4556,3.4742,3.4956,3.5143,3.5178,3.517,3.5179,3.5153,3.5153,3.5144,3.5153,3.5161,3.5214,3.5178,3.5089,3.4672,3.4743,3.4876,3.4876,3.5028,3.517,2.9955,2.9854,2.9314,2.8281,2.6988,2.6205,2.5845,2.5785,2.5688,2.5673,2.5656,2.5673,2.5759,2.5867,2.5899,2.5937,2.604,2.6454,2.6816,2.7136,2.7575,2.7978,2.8363,2.8413,2.8454,2.8484,2.8529,2.8795,2.9214,2.9281,2.9532,2.9932,2.9957,2.9351,2.8177,2.8528,2.8741,2.8823,2.8987,2.9112,2.9205,2.8916,2.8731,2.8738,2.8392,2.8189,2.8189,2.7756,2.7168,2.6371,2.5949,2.5164,2.3927,2.3116,2.2657,0.0,0.0,0.0,0.0,0.0,0.0,0.0,0.0,0.0,0.0,0.0,2.2405,2.3189,2.4405,2.5411,2.617,2.6543,2.7066,2.7815,2.7919,2.8266,2.9142,2.927,2.9721,3.0882,3.1073,3.1537,3.2607,3.2808,3.3044,3.3555,3.3625,3.3535,3.332,3.3902,3.4468,3.4495,3.4893,3.5329,3.5667,3.5739,3.5864,3.6185,3.6256,3.6265,3.63,3.6291,3.6344,3.6379,3.6414,3.6414,3.6396,3.6396,3.6396,3.6414,3.6406,3.6236,3.5837,3.6006,3.6265,3.0336,3.0237,3.0032,2.9932,2.9753,2.8135,2.7394,2.7322,2.7314,2.7306,2.7306,2.7306,2.7346,2.7401,2.7419,2.7484,2.7599,2.7616,2.7969,2.8556,2.8574,2.8977,2.9701,2.9727,2.976,2.9825,2.9899,2.9958,3.0071,3.0197,3.0274,3.0404,3.0396,3.0404,3.0403,3.0413,3.0346,3.0219,3.033,3.0426,3.0486,2.9879,2.9487,2.9387,2.872,2.8296,2.8189,2.8106,2.7721,2.7038,2.6895,2.6538,2.583,2.4414,2.3927,0.0,2.2553,0.0,0.0,0.0,0.0,0.0,0.0,0.0,0.0,2.3661,2.4864,2.56,2.6391,2.7141,2.7778,2.8464,2.9222,3.0033,3.0138,3.0215,3.0465,3.0508,3.1076,3.252,3.2687,3.324,3.4417,3.478,3.4853,3.4898,3.5075,3.4967,3.4452,3.4886,3.5365,3.5356,3.5445,3.5917,3.6417,3.6559,3.6791,3.7443,3.7524,3.7667,3.7614,3.7649,3.7721,3.781,3.7773,3.7827,3.7908,3.7845,3.7845,3.7773,3.7747,3.7514,3.6871,3.7068,3.7631,3.2024,3.1937,3.1163,3.0835,3.0748,2.9715,2.9192,2.9016,2.8956,2.8956,2.8948,2.8956,2.8991,2.9041,2.905,2.91,2.9244,2.9244,2.9346,2.9525,2.9525,2.9628,2.9792,2.9833,2.9866,2.9899,3.0007,3.0363,3.0941,3.0975,3.1317,3.1949,3.1958,3.1983,3.2041,0.0,0.0,0.0,3.0391,3.0419,3.0486,3.0379,3.0011,2.9415,2.9255,0.0,2.8231,2.7578,2.7163,2.7002,2.6371,0.0,0.0,0.0,0.0,0.0,0.0,0.0,0.0,0.0,0.0,0.0,2.7015,2.6709,2.4822,2.6016,2.7257,2.8054,2.8887,2.9462,2.9602,2.9725,3.0373,3.1714,3.1907,3.2389,3.3599,3.3774,3.3959,3.4205,3.4276,3.4391,3.4763,3.488,3.5022,3.5199,3.5714,3.6069,3.5927,3.6051,3.6176,3.6221,3.6658,3.7149,3.7417,3.7417,3.747,3.7784,3.7828,3.7855,3.7846,3.7872,3.7854,3.7899,3.7908,3.7917,3.7917,3.7908,3.798,3.7908,3.7926,3.7827,3.7648,3.7738,3.7855,3.2599,0.0,3.2,3.1766,0.0,3.1201,3.0907,3.0733,2.9894,2.9541,2.9549,2.9549,2.9574,2.9659,2.965,2.9684,2.976,2.976,2.9976,3.034,3.034,3.0566,3.0984,3.1018,3.1085,3.1194,3.1253,3.1496,3.1872,3.1898,3.2102,3.2507,3.2489,3.2515,3.2557,3.2607,3.2283,3.1605,3.1627,3.164,3.1678,3.1314,3.0921,3.0529,0.0,0.0,0.0,0.0,0.0,0.0,0.0,0.0,0.0,0.0,0.0,2.8006,2.7228,2.7063,2.7805,2.7828,2.7953,2.8358,2.941,2.9355,2.7737,2.8387,2.9006,2.9436,3.052,3.1247,3.1256,3.1897,3.2695,3.3433,3.3529,3.3872,3.4539,3.4697,3.4855,3.5197,3.524,3.5392,3.5882,3.6046,3.6165,3.6238,3.6666,3.6979,3.6997,3.6997,3.6997,3.6997,3.7327,3.7632,3.7703,3.7766,3.7819,3.7881,3.7908,3.7934,3.7942,3.7951,3.7959,3.8029,3.8038,3.8056,3.8092,3.8353,3.8633,3.8669,3.8922,3.9175,3.9148,3.8518,3.7908,3.2739,3.2631,3.2566,3.249,3.2431,3.2327,3.2223,3.2074,0.0,0.0,0.0,3.0109,3.0169,3.0209,3.0209,3.02,3.0226,3.0226,3.0566,3.1167,3.1184,3.1576,3.2249,3.2275,3.2362,3.2524,3.2506,3.2531,3.2588,3.2588,3.2588,3.2588,3.2588,3.2622,3.2657,3.2765,3.2813,3.2813,3.2868,3.2908,3.2882,3.2249,3.1857,3.1714,3.0475,2.9744,2.9594,2.8969,2.8599,2.8606,2.8624,2.8898,2.9505,2.892,2.9087,3.0226,2.9171,2.9049,3.0406,3.0001,3.0045,3.0946,3.1524,3.1448,3.058,3.0616,3.0765,3.0905,3.2072,3.2809,3.2818,3.3924,3.475,3.4873,3.489,3.4943,3.5101,3.5118,3.5399,3.5891,3.6023,3.63,3.6988,3.7171,3.7336,3.7411,3.7451,3.7595,3.7595,3.7541,3.7523,3.7551,3.7632,3.7703,3.7757,3.7837,3.7925,3.7978,3.7978,3.7959,3.801,3.8044,3.807,3.8175,3.8299,3.8436,3.8472,3.9053,3.9577,3.9604,4.0066,4.0501,4.0383,3.9373,3.8509,3.2836,3.2765,3.2648,3.2581,3.2573,3.2547,3.2497,3.2404,3.1935,3.1759,3.1768,3.1768,3.1768,3.1786,3.1786,3.1812,3.1856,3.1856,3.2012,3.228,3.228,3.2366,3.253,3.2547,3.2546,3.2581,3.2607,3.2597,3.2588,3.2588,3.2588,3.2588,3.2588,3.2647,3.2755,3.2844,3.2884,3.2884,3.2892,3.2908,3.2908,3.2793,3.2418,3.175,3.15,3.1046,3.0353,3.0218,3.0182,3.0182,3.0175,3.0236,3.0325,3.0239,3.0257,3.0471,3.0215,3.0462,3.1371,3.1893,3.2741,3.3997,3.4261,3.3679,3.2256,3.2652,3.3301,3.395,3.4188,3.4381,3.4398,3.4609,3.5031,3.5538,3.5661,3.5917,3.6506,3.6586,3.6632,3.6823,3.6921,3.698,3.7264,3.7346,3.7429,3.7531,3.7577,3.7613,3.7675,3.7595,3.7631,3.7658,3.7685,3.7756,3.8077,3.7976,3.8163,3.8132,3.8258,3.8331,3.8348,3.8356,3.8356,3.8246,3.8816,3.9197,3.9251,3.984,4.0266,4.0374,4.0546,4.0646,4.0682,4.0338,4.0112,3.2977,3.2955,3.2868,3.2804,3.2745,3.2638,3.2599,3.2539,3.2421,3.2344,3.231,3.231,3.2344,3.237,3.237,3.2378,3.243,3.2412,3.2455,3.2539,3.2557,3.2564,3.2597,3.2588,3.2639,3.2698,3.2706,3.2731,3.2771,3.2762,3.2779,3.2753,3.2762,3.2786,3.2862,3.2884,3.2908,3.2908,3.2908,3.2908,3.2908,3.2908,3.2737,3.2411,3.199,3.1627,3.1331,3.0857,3.0792,3.1185,3.1183,3.1546,3.2394,3.2466,3.2626,3.3019,3.303,3.3174,3.354,3.3831,3.426,3.4871,3.5286,3.5224,3.4482,3.4269,3.4339,3.4689,3.5103,3.5404,3.5412,3.5726,3.6103,3.6468,3.6482,3.6611,3.6902,3.7038,3.7077,3.7081,3.7174,3.726,3.7374,3.7393,3.7439,3.7567,3.7595,3.7774,3.8213,3.8293,3.832,3.8348,3.8456,3.8771,3.9175,3.9336,3.9371,3.946,3.9451,3.946,3.946,3.9423,3.9423,3.946,3.9786,3.9967,3.9994,4.0619,4.1035,4.118,4.1551,4.1741,4.1796,4.1796,4.1506,3.3165,3.3135,3.3057,3.2995,3.294,3.2786,3.2703,3.2721,3.2721,3.268,3.2632,3.2565,3.2539,3.2606,3.2588,3.2588,3.2588,3.2631,3.2647,3.2672,3.2688,3.2687,3.2713,3.2721,3.2762,3.287,3.287,3.2902,3.294,3.2932,3.289,3.2908,3.2908,3.2908,3.2908,3.2908,3.2908,3.2908,3.2908,3.2908,3.2908,3.2908,3.3021,3.3196,3.2657,3.2445,3.2657,3.2076,3.1967,3.2522,3.2523,3.3045,3.4232,3.4365,3.4606,3.5124,3.5195,3.5284,3.5454,3.5607,3.5634,3.5554,3.6068,3.6386,3.6332,3.5782,3.5355,3.5387,3.5935,3.629,3.6334,3.6709,3.7077,3.7127,3.7079,3.705,3.7058,3.7116,3.7174,3.7175,3.726,3.7336,3.742,3.7448,3.7503,3.7595,3.7747,3.8195,3.8796,3.9066,3.9282,3.9471,3.9509,3.9653,4.0312,4.0402,4.0401,4.0501,4.0447,4.0356,4.0374,4.0447,4.0465,4.041,4.0646,4.0773,4.0845,4.1424,4.1877,4.2004,4.2357,4.2783,4.2765,4.2765,4.2547,3.3326,3.3269,3.3157,3.3104,3.3078,3.3055,3.3047,3.3047,3.3055,3.3047,3.3,3.2729,3.2606,3.2588,3.2596,3.2605,3.2631,3.274,3.2821,3.2876,3.2932,3.2995,3.3032,3.3047,3.3055,3.3081,3.3073,3.3073,3.3081,3.3011,3.2973,3.2908,3.2908,3.2908,3.2908,3.2908,3.289,3.2908,3.2908,3.2908,3.2908,3.2908,3.3257,3.399,3.3927,3.4213,3.4755,3.4837,3.4802,3.4882,3.4847,3.4927,3.5088,3.5124,3.5159,3.5231,3.5231,3.5498,3.6238,3.6961,3.7254,3.7207,3.717,3.7213,3.7183,3.715,3.7114,3.7031,3.7083,3.7101,3.7181,3.7223,3.7259,3.7268,3.7259,3.7268,3.7259,3.7278,3.7306,3.7355,3.7383,3.7438,3.754,3.7567,3.7631,3.7802,3.8303,3.8841,3.931,3.9832,4.0509,4.0951,4.0808,4.0447,4.0619,4.0501,4.0718,4.0646,4.0573,4.07,4.0773,4.0718,4.0537,4.1026,4.1198,4.1569,4.175,4.223,4.271,4.2611,4.2765,4.291,4.291,4.291,4.271,3.3491,3.3481,3.3419,3.3364,3.3331,3.3259,3.3239,3.3214,3.3142,3.3119,3.3093,3.3052,3.2971,3.2888,3.2906,3.2898,3.2906,3.2955,3.2977,3.3016,3.3039,3.307,3.3093,3.3119,3.3119,3.3119,3.3119,3.3119,3.3093,3.3088,3.3039,3.3016,3.3016,3.3016,3.3034,3.3008,3.3026,3.3016,3.3016,3.3249,3.3653,3.3646,3.3783,3.4163,3.4618,3.5001,3.5321,3.5341,3.5513,3.5915,3.5943,3.6131,3.6595,3.6622,3.6595,3.6622,3.6622,3.6765,3.7086,3.7425,3.7567,3.7522,3.7512,3.7503,3.7484,3.7494,3.7512,3.7466,3.7419,3.7354,3.7354,3.7325,3.7316,3.7353,3.7325,3.7297,3.7297,3.7326,3.7373,3.7411,3.7476,3.7531,3.7586,3.7613,3.7873,3.8276,3.8824,3.9391,4.0328,4.0898,4.1422,4.2111,4.2075,4.194,4.1886,4.1922,4.1904,4.1904,4.1922,4.1922,4.185,4.1922,4.195,4.1895,4.2122,4.2339,4.2411,4.2602,4.291,4.2919,4.291,4.291,4.291,4.291,4.2929,3.3664,3.3643,3.3601,3.357,3.3513,3.3441,3.3371,3.3382,3.3278,3.3238,3.3238,3.3341,3.3308,3.3238,3.3211,3.317,3.3196,3.3193,3.3218,3.3208,3.3223,3.323,3.322,3.3238,3.322,3.323,3.3223,3.3196,3.3157,3.3157,3.3142,3.3101,3.3119,3.3119,3.3119,3.3119,3.3119,3.3137,3.3299,3.3712,3.4253,3.464,3.4832,3.4919,3.5385,3.5796,3.6053,3.6029,3.6245,3.6764,3.6765,3.6997,3.7559,3.7595,3.7595,3.7595,3.7613,3.764,3.7595,3.7595,3.7595,3.7595,3.7595,3.7595,3.7595,3.7595,3.7595,3.7594,3.7512,3.7457,3.7457,3.7419,3.7401,3.7448,3.7401,3.7399,3.74,3.742,3.7457,3.7466,3.7558,3.7604,3.7667,3.7882,3.8312,3.8833,3.9472,4.0121,4.1341,4.1793,4.2201,4.2782,4.2873,4.2873,4.291,4.2783,4.291,4.291,4.2783,4.2765,4.291,4.2901,4.2883,4.2457,4.2783,4.2873,4.2765,4.2837,4.2938,4.2957,4.2966,4.2985,4.3022,4.2994,4.3013,3.386,3.3762,3.3668,3.3619,3.3598,3.3591,3.3584,3.3584,3.3552,3.3559,3.357,3.3577,3.3584,3.3537,3.3433,3.3396,3.3386,3.3452,3.3455,3.347,3.3534,3.3577,3.3584,3.3584,3.357,3.3534,3.3484,3.3408,3.3282,3.331,3.3239,3.3109,3.3117,3.3127,3.3117,3.3135,3.3109,3.3196,3.3808,3.4277,3.4519,3.5805,3.6455,3.6449,3.6407,3.6711,3.7327,3.7479,3.7497,3.7541,3.7488,3.7559,3.7595,3.7595,3.7604,3.7631,3.7649,3.7676,3.7631,3.7595,3.7595,3.7595,3.7595,3.7595,3.7595,3.7595,3.7595,3.7595,3.7577,3.7577,3.7577,3.7549,3.7549,3.7567,3.7577,3.7585,3.7567,3.7549,3.7577,3.7577,3.7586,3.7631,3.7712,3.8366,3.8852,3.9437,4.0492,4.1512,4.1767,4.2375,4.2755,4.2828,4.291,4.291,4.291,4.291,4.291,4.291,4.291,4.291,4.291,4.291,4.291,4.291,4.291,4.291,4.291,4.2938,4.3003,4.304,4.3105,4.3133,4.3133,4.3178,4.3196,3.3947,3.3927,3.3868,3.3848,3.3867,3.3795,3.38,3.3787,3.3691,3.3657,3.3675,3.3664,3.3657,3.3664,3.365,3.3612,3.3545,3.3556,3.3563,3.357,3.3598,3.3598,3.3598,3.3598,3.3598,3.3598,3.3577,3.3541,3.3502,3.3444,3.3415,3.3353,3.3326,3.3286,3.3304,3.3286,3.3297,3.3369,3.4081,3.4741,3.5257,3.6255,3.697,3.7457,3.7327,3.7345,3.7595,3.7595,3.7595,3.7595,3.7595,3.7595,3.7604,3.7649,3.7703,3.7766,3.773,3.7685,3.7658,3.7622,3.7595,3.7595,3.7595,3.7595,3.7595,3.7595,3.7595,3.7595,3.7595,3.7595,3.7595,3.7595,3.7595,3.7595,3.7595,3.7595,3.7595,3.7595,3.7595,3.7604,3.7631,3.7685,3.7918,3.851,3.9284,3.9932,4.0962,4.1804,4.2375,4.2765,4.291,4.291,4.291,4.291,4.291,4.291,4.291,4.291,4.291,4.291,4.291,4.291,4.291,4.2929,4.2929,4.2975,4.2994,4.3068,4.3114,4.3142,4.3214,4.3232,4.3205,4.3251,4.3277,3.4086,3.4061,3.4042,3.4017,3.3998,3.3947,3.3927,3.3921,3.3847,3.3807,3.38,3.38,3.3788,3.3814,3.3854,3.3827,3.3751,3.3705,3.3698,3.3698,3.3719,3.3732,3.3732,3.3732,3.3737,3.371,3.3661,3.3608,3.3605,3.3556,3.3513,3.3502,3.3452,3.3422,3.3393,3.3393,3.3393,3.3574,3.4436,3.5269,3.5858,3.675,3.7468,3.7893,3.7871,3.7739,3.764,3.7604,3.7613,3.7631,3.7631,3.7658,3.7685,3.7766,3.7828,3.7863,3.7837,3.7774,3.7766,3.7703,3.7685,3.7631,3.764,3.7622,3.7604,3.7595,3.7595,3.7595,3.7622,3.7613,3.764,3.7676,3.7685,3.7649,3.7631,3.7649,3.7685,3.7685,3.7703,3.7712,3.773,3.7864,3.8223,3.9058,3.9914,4.0718,4.155,4.2321,4.2765,4.291,4.291,4.291,4.291,4.291,4.291,4.291,4.291,4.291,4.291,4.291,4.2919,4.2919,4.2938,4.2965,4.2994,4.3049,4.3114,4.3196,4.3233,4.3251,4.3313,4.3348,4.3322,4.3322,4.3358,3.4257,3.4197,3.4136,3.4086,3.4042,3.4036,3.4011,3.4005,3.4004,3.3992,3.3985,3.3992,3.3966,3.3985,3.3972,3.3985,3.3953,3.3908,3.3881,3.3875,3.394,3.3972,3.3966,3.3959,3.3946,3.3868,3.3755,3.3671,3.3615,3.3601,3.3584,3.3531,3.3499,3.3481,3.34,3.3462,3.3473,3.3835,3.5023,3.583,3.5993,3.7314,3.8041,3.8036,3.8002,3.7897,3.7721,3.7649,3.7649,3.7694,3.7703,3.7766,3.7881,3.7941,3.7959,3.7925,3.795,3.7977,3.7908,3.7881,3.781,3.7739,3.7703,3.7694,3.7658,3.7622,3.764,3.7631,3.7676,3.7721,3.773,3.781,3.7819,3.7721,3.7721,3.7748,3.7837,3.7881,3.7899,3.7872,3.7881,3.8267,3.904,3.977,4.0565,4.1415,4.2239,4.2765,4.2873,4.291,4.291,4.291,4.291,4.291,4.291,4.291,4.291,4.291,4.291,4.291,4.2938,4.2947,4.3012,4.304,4.3132,4.3169,4.3215,4.3286,4.334,4.3375,4.3437,4.3444,4.3418,4.3401,4.3427,3.4345,3.4328,3.4316,3.4293,3.4275,3.4275,3.4275,3.4276,3.4185,3.4161,3.4117,3.4036,3.4004,3.4004,3.4004,3.4004,3.4004,3.4017,3.4017,3.3985,3.401,3.4029,3.4023,3.4023,3.3992,3.3959,3.3921,3.3887,3.385,3.3815,3.3723,3.3654,3.3609,3.3563,3.3636,3.4022,3.4301,3.4475,3.5833,3.6624,3.6697,3.7639,3.8174,3.814,3.8044,3.7958,3.7906,3.7846,3.781,3.7828,3.7837,3.7881,3.795,3.8002,3.8027,3.8089,3.8045,3.7992,3.7985,3.7934,3.789,3.7864,3.7837,3.7828,3.7819,3.7793,3.7802,3.7802,3.7837,3.7846,3.7855,3.7872,3.7881,3.7846,3.7837,3.7846,3.7908,3.7917,3.7908,3.7908,3.7942,3.8345,3.912,3.9959,4.0845,4.165,4.2429,4.2892,4.291,4.291,4.291,4.291,4.291,4.291,4.291,4.291,4.291,4.291,4.291,4.2956,4.2984,4.3003,4.3077,4.316,4.3233,4.3287,4.334,4.3366,4.3419,4.3445,4.3453,4.347,4.3479,4.3488,4.3488,3.4517,3.4478,3.4478,3.445,3.4392,3.4392,3.4392,3.4404,3.431,3.4275,3.4257,3.4185,3.4148,3.4154,3.4154,3.4154,3.4154,3.4191,3.4191,3.4142,3.4093,3.4228,3.4555,3.4862,3.4967,3.4967,3.4959,3.4915,3.488,3.48,3.4724,3.468,3.4566,3.4546,3.4517,3.4929,3.5183,3.5357,3.6386,3.7054,3.7191,3.7809,3.82,3.8192,3.8114,3.8088,3.808,3.802,3.7995,3.7951,3.7986,3.8038,3.808,3.8088,3.8105,3.8157,3.8122,3.807,3.808,3.8046,3.7986,3.7951,3.7933,3.7907,3.7908,3.7908,3.7908,3.7908,3.7934,3.7942,3.7933,3.7986,3.8003,3.8003,3.7959,3.7951,3.7995,3.8003,3.8003,3.8065,3.8298,3.8866,3.9607,4.042,4.1243,4.2022,4.2584,4.291,4.291,4.291,4.291,4.291,4.291,4.291,4.291,4.291,4.291,4.291,4.291,4.2975,4.304,4.3058,4.3114,4.3251,4.3331,4.3384,4.3428,4.3445,4.347,4.3488,4.3488,4.3488,4.3488,4.3488,4.3488,3.4732,3.4623,3.4618,3.4539,3.4456,3.4431,3.4456,3.442,3.4427,3.4422,3.4416,3.4387,3.4369,3.4399,3.45,3.4575,3.4511,3.4723,3.4773,3.4707,3.4647,3.4946,3.5572,3.6085,3.6318,3.6385,3.635,3.6372,3.6216,3.6185,3.6359,3.6111,3.5941,3.6025,3.5871,3.6016,3.6082,3.6176,3.6854,3.7233,3.7281,3.7833,3.8209,3.82,3.8182,3.8192,3.8192,3.8175,3.8132,3.8044,3.8132,3.8175,3.8192,3.82,3.8182,3.82,3.82,3.8192,3.82,3.8175,3.8132,3.8027,3.8001,3.7984,3.7951,3.7951,3.7943,3.7969,3.7976,3.8019,3.8036,3.8115,3.8175,3.8183,3.8098,3.808,3.8183,3.8192,3.8229,3.8419,3.8961,3.9695,4.0393,4.1198,4.1895,4.2566,4.2855,4.2892,4.291,4.291,4.291,4.291,4.291,4.291,4.291,4.291,4.2919,4.2975,4.2984,4.3022,4.3123,4.3151,4.3224,4.3349,4.3419,4.3453,4.3488,4.3488,4.3488,4.3488,4.3488,4.3488,4.3488,4.3496,4.3522,3.4778,3.4752,3.4747,3.4737,3.4687,3.4706,3.47,3.4676,3.4591,3.4545,3.4528,3.445,3.4465,3.4466,3.5107,3.5363,3.5474,3.5923,3.6253,3.6247,3.6229,3.6279,3.6503,3.6727,3.6851,3.6837,3.6898,3.6667,3.6574,3.667,3.6604,3.645,3.6481,3.6376,3.6336,3.6768,3.6927,3.7048,3.7687,3.799,3.7978,3.8127,3.8241,3.8209,3.8209,3.8209,3.82,3.82,3.8192,3.8157,3.8165,3.82,3.82,3.82,3.82,3.82,3.82,3.82,3.82,3.82,3.8192,3.8175,3.8122,3.814,3.8123,3.8124,3.8124,3.8133,3.814,3.8149,3.8149,3.8183,3.82,3.82,3.8229,3.8185,3.8192,3.8218,3.8408,3.8979,3.9287,4.0093,4.0981,4.1596,4.204,4.2692,4.291,4.291,4.291,4.291,4.291,4.291,4.291,4.291,4.291,4.291,4.2956,4.304,4.3068,4.3105,4.3196,4.3304,4.3375,4.348,4.3463,4.3479,4.3488,4.3488,4.3488,4.3496,4.3496,4.3505,4.3522,4.3531,4.3592,3.4903,3.4845,3.484,3.4834,3.4793,3.4793,3.4793,3.4783,3.4713,3.4682,3.4717,3.4993,3.5073,3.5186,3.598,3.6368,3.6443,3.6808,3.699,3.7078,3.7297,3.7423,3.7499,3.7692,3.7928,3.789,3.7884,3.7856,3.7745,3.7668,3.762,3.7618,3.7486,3.7461,3.7532,3.7731,3.7932,3.799,3.829,3.8407,3.8385,3.8344,3.8297,3.8257,3.8251,3.8251,3.8209,3.82,3.82,3.82,3.82,3.82,3.82,3.82,3.82,3.82,3.82,3.82,3.82,3.82,3.82,3.82,3.82,3.82,3.82,3.82,3.82,3.8192,3.82,3.82,3.82,3.82,3.8363,3.8671,3.8689,3.8563,3.8255,3.8544,3.8871,3.9378,4.0003,4.0628,4.1669,4.1949,4.2375,4.2765,4.291,4.291,4.291,4.291,4.2919,4.2919,4.2975,4.2994,4.3022,4.3013,4.3041,4.3123,4.3215,4.3224,4.3286,4.3401,4.3444,4.3506,4.3488,4.3496,4.3505,4.3513,4.3532,4.3532,4.3522,4.3556,4.3609,4.3634,4.3667,3.5039,3.4903,3.4903,3.4874,3.4844,3.481,3.4844,3.4843,3.497,3.5016,3.5157,3.5793,3.6093,3.6195,3.6987,3.7403,3.7416,3.7602,3.7585,3.7807,3.8123,3.8408,3.839,3.8858,3.9119,3.9156,3.9355,3.9197,3.895,3.8982,3.9006,3.8788,3.8783,3.8832,3.8626,3.8726,3.8796,3.8685,3.8553,3.8533,3.8512,3.8457,3.8385,3.8313,3.8305,3.8299,3.8257,3.8232,3.8232,3.8234,3.8217,3.8225,3.8234,3.8234,3.8234,3.8242,3.8242,3.8225,3.8209,3.8209,3.82,3.82,3.82,3.82,3.82,3.82,3.82,3.82,3.82,3.8273,3.848,3.8436,3.8889,3.9369,3.9496,3.9142,3.8762,3.907,3.9523,3.9677,4.0935,4.1542,4.2004,4.2393,4.2892,4.2819,4.291,4.291,4.2929,4.2956,4.2965,4.2947,4.3022,4.3105,4.3123,4.3133,4.3178,4.3224,4.3331,4.3385,4.342,4.348,4.3506,4.3532,4.3575,4.3592,4.3583,4.3583,4.3583,4.36,4.3634,4.3703,4.3744,4.3761,4.3794,3.5103,3.5061,3.5061,3.5052,3.5034,3.5034,3.5007,3.5026,3.5637,3.5811,3.6017,3.6674,3.7023,3.7079,3.7848,3.8227,3.8352,3.8752,3.9155,3.9181,3.9266,3.9387,3.9339,3.9508,3.9489,3.9495,3.9476,3.9444,3.9353,3.9268,3.9195,3.9142,3.905,3.8971,3.8964,3.8925,3.8888,3.8848,3.8766,3.869,3.8614,3.8551,3.8454,3.8385,3.8358,3.8368,3.8368,3.836,3.836,3.8344,3.8305,3.8297,3.8328,3.8344,3.8336,3.832,3.8289,3.8274,3.8266,3.8242,3.82,3.82,3.82,3.82,3.82,3.82,3.82,3.82,3.8218,3.8535,3.907,3.9659,3.9958,4.0175,4.0266,4.022,4.0075,4.0139,4.0483,4.1017,4.1442,4.1931,4.2511,4.2656,4.291,4.291,4.2919,4.291,4.2956,4.3012,4.3022,4.304,4.3114,4.3196,4.3215,4.3233,4.3286,4.3331,4.341,4.3498,4.3533,4.3583,4.3617,4.3642,4.3676,4.3676,4.3659,4.3694,4.3703,4.3728,4.3753,4.3786,4.3818,4.3851,4.3865,3.5175,3.5158,3.5155,3.5133,3.5097,3.5097,3.5284,3.5642,3.6036,3.6454,3.6884,3.763,3.7969,3.8018,3.8758,3.915,3.922,3.9513,3.9711,3.9663,3.969,3.9691,3.9716,3.9656,3.962,3.9565,3.9546,3.9514,3.945,3.9386,3.9334,3.9295,3.9154,3.9087,3.9071,3.8993,3.8935,3.8921,3.8888,3.8814,3.8739,3.8675,3.8564,3.8462,3.8423,3.839,3.839,3.839,3.8415,3.843,3.8399,3.8393,3.8382,3.839,3.839,3.8401,3.8377,3.833,3.8307,3.8284,3.8242,3.8209,3.82,3.82,3.82,3.82,3.82,3.8291,3.8581,3.9061,3.9822,4.0175,4.0583,4.0999,4.1071,4.1198,4.1461,4.1316,4.118,4.1687,4.2004,4.2411,4.2765,4.291,4.2929,4.2929,4.3021,4.303,4.3031,4.3086,4.3132,4.3151,4.3233,4.3296,4.3314,4.3331,4.3384,4.3418,4.3497,4.3549,4.3575,4.3659,4.3734,4.3751,4.3769,4.3753,4.3744,4.3796,4.3829,4.3826,4.3851,4.3849,4.3873,4.3921,4.3945,3.5663,3.5612,3.5613,3.5571,3.5513,3.557,3.5961,3.6472,3.6643,3.72,3.7756,3.8625,3.895,3.9076,3.9537,3.9873,3.9851,3.9818,3.9787,3.9766,3.9724,3.9712,3.9731,3.9708,3.9661,3.962,3.9626,3.9583,3.9527,3.9495,3.945,3.9405,3.9256,3.9176,3.9156,3.9092,3.9014,3.9,3.8943,3.8903,3.8851,3.8803,3.8695,3.8588,3.8512,3.8473,3.8473,3.8454,3.847,3.8507,3.8525,3.8494,3.8454,3.843,3.8457,3.8449,3.8449,3.8409,3.8352,3.8322,3.8299,3.8224,3.8225,3.8225,3.8225,3.8408,3.8508,3.8816,3.9233,4.0066,4.061,4.1008,4.1316,4.1705,4.1895,4.2212,4.2593,4.2312,4.204,4.2031,4.2421,4.2812,4.2894,4.2975,4.2966,4.2966,4.3058,4.3123,4.3132,4.3169,4.3224,4.326,4.3331,4.3375,4.3393,4.3437,4.347,4.3532,4.3592,4.3642,4.3667,4.3742,4.3808,4.3826,4.3826,4.3826,4.3843,4.3849,4.3881,4.3923,4.3921,4.3929,4.3942,4.3997,4.3997,3.7459,3.7455,3.7447,3.7395,3.7349,3.7326,3.7321,3.7569,3.8098,3.8485,3.8689,3.9479,3.9806,3.9862,3.9882,3.9973,3.9922,3.9895,3.9878,3.985,3.9804,3.9781,3.9775,3.9741,3.9695,3.9684,3.9692,3.9638,3.9583,3.9533,3.9501,3.9438,3.9315,3.9217,3.9197,3.9103,3.9099,3.9052,3.9014,3.8971,3.8954,3.8903,3.8826,3.8728,3.8652,3.8632,3.8643,3.8643,3.865,3.8666,3.8658,3.865,3.8635,3.8627,3.8609,3.8593,3.8536,3.847,3.8438,3.8399,3.8393,3.836,3.8313,3.8327,3.8447,3.8849,3.9131,3.9639,4.0401,4.1325,4.1506,4.195,4.2412,4.2666,4.2657,4.2739,4.2949,4.2886,4.2676,4.263,4.2876,4.3058,4.3059,4.3077,4.3068,4.3087,4.3151,4.3205,4.3215,4.3278,4.3368,4.3394,4.3428,4.3463,4.3462,4.3522,4.3582,4.3617,4.3676,4.3759,4.3792,4.3841,4.3881,4.3881,4.3913,4.3937,4.3953,4.3926,4.3934,4.3968,4.3966,4.3981,4.3989,4.3997,4.3997,3.7944,3.7905,3.7905,3.7885,3.7841,3.7856,3.8072,3.846,3.8834,3.9208,3.9576,3.9966,4.0137,4.0111,4.0067,4.0036,4.001,3.9978,3.9954,3.9938,3.9889,3.9862,3.9862,3.9828,3.9775,3.9753,3.9762,3.9716,3.9638,3.9589,3.9552,3.9514,3.9406,3.9341,3.9295,3.9209,3.9161,3.912,3.9059,3.9036,3.8993,3.8921,3.887,3.8859,3.8814,3.8777,3.8757,3.8732,3.8727,3.8696,3.8699,3.8699,3.8707,3.8699,3.8699,3.8673,3.8624,3.8585,3.8517,3.8452,3.8438,3.8399,3.8368,3.8581,3.891,3.934,3.9888,4.0714,4.1151,4.2032,4.2441,4.2832,4.3005,4.3059,4.3059,4.3087,4.3142,4.3151,4.3114,4.3059,4.3114,4.3142,4.3142,4.3169,4.3196,4.3233,4.3269,4.3277,4.3286,4.3367,4.3437,4.3481,4.3497,4.354,4.3575,4.3642,4.3674,4.3709,4.3759,4.3841,4.3889,4.3921,4.3926,4.395,4.3981,4.3997,4.3989,4.3966,4.3989,4.3997,4.3997,4.3989,4.3997,4.3997,4.4005,3.8492,3.8435,3.8443,3.8423,3.8426,3.8426,3.8782,3.928,3.9359,3.9674,4.0163,4.0215,4.0205,4.0147,4.0132,4.0122,4.0106,4.0046,4.0012,4.0001,3.9965,3.9938,3.9933,3.9916,3.99,3.9848,3.9817,3.9773,3.968,3.9645,3.9626,3.9564,3.9527,3.9469,3.9392,3.9256,3.9195,3.9135,3.9101,3.9066,3.9021,3.895,3.8925,3.8925,3.8918,3.8862,3.8829,3.8822,3.8792,3.8765,3.8753,3.873,3.873,3.8715,3.8699,3.8699,3.8699,3.865,3.8575,3.8533,3.8528,3.8496,3.843,3.8853,3.9548,4.0042,4.0736,4.1902,4.2294,4.2486,4.296,4.3178,4.3205,4.3196,4.3196,4.3214,4.3233,4.3251,4.326,4.3251,4.326,4.326,4.3278,4.3295,4.334,4.3349,4.3384,4.3402,4.3393,4.3428,4.3489,4.3532,4.3548,4.3609,4.3667,4.3761,4.3775,4.3792,4.3849,4.3929,4.3953,4.3958,4.3974,4.3989,4.3989,4.3997,4.3997,4.3997,4.3997,4.3997,4.3997,4.4005,4.4005,4.4013,4.402,4.0286,4.0284,4.0261,4.0258,4.0137,4.0098,4.0142,4.0192,4.0123,4.0192,4.0275,4.0301,4.0291,4.0268,4.022,4.0162,4.0127,4.0106,4.0082,4.0077,4.0062,4.0071,4.0057,4.0007,3.9975,3.9924,3.9854,3.9779,3.971,3.9693,3.9657,3.9614,3.9527,3.9482,3.9444,3.9309,3.9197,3.9195,3.9129,3.9094,3.9073,3.9003,3.8993,3.8964,3.8935,3.8918,3.8884,3.8896,3.8881,3.8848,3.8814,3.8792,3.8777,3.8727,3.8715,3.8699,3.8699,3.8699,3.8666,3.8658,3.865,3.8619,3.8625,3.8969,3.9959,4.1095,4.201,4.2886,4.3005,4.3023,4.3178,4.3205,4.3214,4.3233,4.326,4.3295,4.334,4.3349,4.3366,4.3383,4.3383,4.3402,4.3412,4.3446,4.3471,4.348,4.348,4.3498,4.3507,4.3515,4.3566,4.3609,4.3641,4.3682,4.3751,4.3843,4.3875,4.3873,4.3921,4.3984,4.3992,4.3981,4.3989,4.3997,4.3997,4.3997,4.3997,4.3997,4.3997,4.3997,4.3997,4.4005,4.4005,4.402,4.407,4.0674,4.0586,4.0595,4.0588,4.0554,4.0511,4.0499,4.0453,4.0432,4.0375,4.0311,4.0323,4.0314,4.0287,4.0263,4.0244,4.0201,4.0171,4.0142,4.0147,4.0113,4.0111,4.0101,4.0067,4.0046,3.9991,3.9938,3.9873,3.9804,3.9729,3.97,3.9657,3.9577,3.9533,3.9508,3.9418,3.9315,3.9229,3.9142,3.9108,3.9087,3.9085,3.9064,3.9064,3.9017,3.8993,3.8976,3.8968,3.8939,3.8899,3.8855,3.8866,3.8859,3.884,3.881,3.8765,3.8747,3.8735,3.8689,3.8707,3.8718,3.8883,3.9135,3.9926,4.1046,4.2128,4.2908,4.3311,4.3366,4.3357,4.3375,4.3366,4.3384,4.3375,4.333,4.3357,4.3419,4.3455,4.3463,4.3506,4.3522,4.3523,4.3516,4.3524,4.354,4.3532,4.3532,4.3523,4.3532,4.3558,4.3617,4.3711,4.3751,4.379,4.3857,4.3931,4.3945,4.3961,4.3961,4.4008,4.3989,4.3997,4.3997,4.3997,4.3997,4.3997,4.3997,4.3997,4.3997,4.3997,4.3997,4.4047,4.407,4.4127,4.4173,4.0745,4.0645,4.0639,4.0606,4.0584,4.0539,4.0523,4.0503,4.0506,4.0445,4.037,4.0335,4.0318,4.031,4.0291,4.0296,4.0277,4.0249,4.0234,4.0215,4.0171,4.0157,4.0157,4.0142,4.0092,4.0057,4.0001,3.9943,3.9862,3.976,3.9722,3.9699,3.9657,3.9596,3.9533,3.9489,3.9399,3.9204,3.9156,3.9122,3.9101,3.9101,3.9101,3.9101,3.9094,3.9073,3.9036,3.9028,3.8993,3.8971,3.8928,3.8921,3.8914,3.8896,3.8874,3.8837,3.8811,3.8799,3.8765,3.8745,3.8807,3.9239,3.9974,4.1048,4.1956,4.3037,4.3532,4.3515,4.3496,4.3505,4.3513,4.3515,4.3462,4.3453,4.3462,4.3479,4.3496,4.3523,4.354,4.3566,4.3609,4.3651,4.3644,4.36,4.3592,4.3583,4.3575,4.3566,4.3592,4.3625,4.3711,4.3812,4.3835,4.3873,4.3929,4.3976,4.3989,4.3997,4.3997,4.3997,4.3997,4.3997,4.3997,4.3997,4.4023,4.3997,4.3997,4.3997,4.4005,4.4013,4.4047,4.4112,4.415,4.4214,4.4267,4.0804,4.0802,4.072,4.0653,4.0588,4.0584,4.0562,4.0508,4.0503,4.0482,4.0453,4.0351,4.0307,4.0313,4.0324,4.032,4.0306,4.0282,4.0282,4.0301,4.0272,4.0282,4.0249,4.0225,4.0181,4.0138,4.0087,4.0012,3.9959,3.9862,3.9773,3.9711,3.9693,3.9632,3.9589,3.9527,3.9425,3.9276,3.921,3.917,3.9135,3.9115,3.9115,3.9089,3.9089,3.9101,3.9094,3.9087,3.9055,3.9059,3.9021,3.8993,3.8986,3.895,3.8921,3.8892,3.8884,3.8936,3.901,3.9038,3.9226,4.0,4.1018,4.1997,4.2557,4.316,4.3526,4.3617,4.3617,4.3609,4.3573,4.3539,4.3549,4.3558,4.3575,4.3566,4.3583,4.36,4.3617,4.3634,4.3676,4.3734,4.3767,4.3742,4.3711,4.3694,4.3694,4.3667,4.3709,4.3761,4.381,4.3867,4.3899,4.3929,4.3974,4.3997,4.3997,4.3997,4.3997,4.3997,4.3997,4.3997,4.4005,4.4047,4.4055,4.4039,4.402,4.4078,4.4093,4.4062,4.4078,4.4173,4.4248,4.4307,4.4351,4.084,4.0794,4.077,4.0723,4.0653,4.061,4.06,4.0565,4.0527,4.0507,4.0502,4.0415,4.0366,4.0376,4.0372,4.0354,4.0369,4.0373,4.0336,4.0323,4.0314,4.0314,4.0291,4.0287,4.0244,4.0196,4.0128,4.0072,3.9986,3.9938,3.9862,3.979,3.9728,3.9693,3.9639,3.9558,3.9451,3.9405,3.9334,3.9301,3.9281,3.9183,3.9163,3.9163,3.9096,3.9089,3.9101,3.9101,3.9101,3.9094,3.9066,3.9052,3.9045,3.9036,3.9,3.8983,3.8994,3.9238,3.959,3.9689,4.0156,4.1362,4.2173,4.2673,4.3035,4.3545,4.3701,4.3728,4.3728,4.3709,4.3719,4.3703,4.3694,4.3686,4.3678,4.3661,4.3678,4.3676,4.3701,4.3736,4.3775,4.3841,4.3865,4.3889,4.3851,4.3812,4.3812,4.3794,4.3835,4.3859,4.3889,4.3913,4.3937,4.3953,4.3989,4.3997,4.3997,4.3997,4.4005,4.4013,4.4031,4.4005,4.4013,4.4062,4.4127,4.4142,4.4139,4.4169,4.4169,4.4131,4.4195,4.4263,4.4336,4.4401,4.443,4.0862,4.0843,4.0806,4.0761,4.0697,4.0642,4.0626,4.0584,4.0562,4.0527,4.0503,4.0453,4.0428,4.0428,4.0411,4.0402,4.0398,4.0398,4.0385,4.0372,4.0359,4.0332,4.0324,4.0305,4.0267,4.023,4.0196,4.0147,4.0077,4.0031,3.9949,3.9862,3.976,3.9734,3.9688,3.9614,3.9546,3.9489,3.9463,3.9418,3.9398,3.9315,3.9256,3.9256,3.9222,3.9209,3.9195,3.9181,3.9142,3.9129,3.9115,3.9101,3.9101,3.9094,3.9066,3.9131,3.9325,3.9692,4.01,4.0806,4.1326,4.2234,4.2825,4.326,4.3628,4.3802,4.3818,4.3818,4.3826,4.3826,4.3818,4.3804,4.3771,4.3736,4.3736,4.3736,4.3761,4.3777,4.3802,4.3826,4.3891,4.3929,4.3945,4.3961,4.3945,4.3915,4.3915,4.3897,4.3913,4.3937,4.3953,4.3976,4.4,4.3989,4.3997,4.3997,4.3997,4.3997,4.4005,4.4055,4.4055,4.4036,4.4093,4.4162,4.4218,4.424,4.4255,4.4278,4.4255,4.4244,4.4304,4.4351,4.4401,4.4458,4.4473,4.0899,4.0894,4.0823,4.0764,4.0726,4.0716,4.0675,4.0603,4.0603,4.0562,4.0508,4.0483,4.0478,4.0474,4.0426,4.0417,4.0428,4.0405,4.0415,4.0411,4.0407,4.0366,4.0335,4.0313,4.029,4.0282,4.0249,4.022,4.0157,4.0068,4.0012,3.9949,3.9845,3.9756,3.9705,3.9657,3.959,3.9545,3.9614,3.9731,3.9755,3.9766,3.9772,3.9784,3.9782,3.9825,3.9812,3.9547,3.9508,3.9458,3.9237,3.9224,3.9347,3.9308,3.9331,3.9424,4.0023,4.0357,4.0543,4.1781,4.2493,4.2815,4.3323,4.3668,4.3781,4.3859,4.3897,4.3889,4.3889,4.3897,4.3883,4.3869,4.3845,4.3818,4.3826,4.3835,4.3859,4.3875,4.3881,4.3907,4.3953,4.3997,4.3997,4.4005,4.4023,4.4016,4.4016,4.3997,4.3989,4.3981,4.3981,4.3981,4.3997,4.3997,4.3997,4.3997,4.3997,4.4005,4.4047,4.4085,4.4142,4.4165,4.4211,4.4278,4.4307,4.4314,4.4336,4.4358,4.4344,4.4336,4.4373,4.4423,4.4473,4.4501,4.4508,4.09,4.0902,4.0864,4.082,4.0764,4.0713,4.0683,4.0675,4.0633,4.058,4.0562,4.0527,4.0492,4.0484,4.0476,4.0464,4.046,4.0464,4.0479,4.0462,4.0458,4.0405,4.0375,4.0344,4.0317,4.0309,4.0291,4.0244,4.0191,4.0128,4.0053,3.9991,3.987,3.9779,3.9893,4.0077,4.0447,4.049,4.0815,4.1158,4.1095,4.1024,4.0967,4.0941,4.0889,4.0838,4.0789,4.0387,4.0142,4.0042,3.9785,3.9666,3.9951,4.0049,4.0256,4.0577,4.1195,4.146,4.1999,4.2948,4.347,4.3622,4.3706,4.3913,4.3937,4.3961,4.3958,4.3958,4.3961,4.3968,4.3968,4.3961,4.3945,4.3953,4.3953,4.3934,4.3942,4.395,4.3958,4.3958,4.3997,4.4031,4.4031,4.4093,4.4108,4.4093,4.4085,4.4028,4.4013,4.4005,4.3997,4.3997,4.3997,4.3997,4.4005,4.4039,4.4078,4.4108,4.4131,4.4173,4.4229,4.4267,4.43,4.4358,4.4354,4.4368,4.4409,4.443,4.4444,4.4458,4.4458,4.4466,4.4487,4.4501,4.4489,4.0924,4.0898,4.0885,4.0859,4.079,4.0755,4.0723,4.0694,4.0616,4.0591,4.0583,4.0569,4.0531,4.0539,4.0531,4.05,4.0496,4.0492,4.0508,4.0491,4.0491,4.0478,4.0437,4.0383,4.0357,4.0331,4.0294,4.0267,4.0244,4.0206,4.0118,3.9996,3.99,4.0063,4.0254,4.0659,4.1017,4.1205,4.1636,4.181,4.1834,4.1859,4.1832,4.1825,4.1798,4.1778,4.1696,4.1421,4.1064,4.087,4.067,4.0451,4.086,4.1064,4.1215,4.1586,4.2046,4.2422,4.3196,4.353,4.3878,4.3934,4.4005,4.3997,4.3997,4.3989,4.3989,4.3997,4.3997,4.3997,4.3997,4.3997,4.3997,4.3997,4.3997,4.3997,4.3989,4.3989,4.3997,4.3997,4.4013,4.4039,4.407,4.4158,4.4218,4.4195,4.4154,4.4116,4.4078,4.407,4.4044,4.4028,4.4047,4.4055,4.407,4.4104,4.415,4.4203,4.4233,4.4248,4.43,4.4344,4.4368,4.4404,4.4418,4.4433,4.4461,4.4482,4.4487,4.4487,4.4475,4.4482,4.4489,4.4489,4.4489,4.0974,4.0905,4.0895,4.0872,4.0807,4.0787,4.0758,4.0681,4.0628,4.0595,4.0611,4.0607,4.0586,4.0592,4.0588,4.0557,4.0519,4.0512,4.0523,4.0519,4.0516,4.0503,4.0495,4.047,4.0428,4.0357,4.0317,4.0309,4.0287,4.0215,4.0123,4.0074,4.0133,4.0522,4.0934,4.1385,4.1701,4.2102,4.2458,4.2601,4.2663,4.2417,4.2498,4.2529,4.2478,4.2478,4.2358,4.2132,4.1981,4.1867,4.1776,4.1775,4.1836,4.1847,4.1847,4.21,4.2682,4.3331,4.3849,4.4037,4.4033,4.4078,4.4044,4.402,4.3997,4.3997,4.3997,4.3997,4.3997,4.3997,4.3997,4.3997,4.3997,4.3997,4.3997,4.3997,4.3997,4.3997,4.3997,4.4005,4.402,4.407,4.415,4.4237,4.43,4.43,4.4285,4.4244,4.4207,4.418,4.4165,4.4101,4.4101,4.4119,4.4135,4.4173,4.4218,4.4285,4.43,4.4322,4.4361,4.4397,4.4418,4.4466,4.4475,4.4489,4.4489,4.4489,4.4489,4.4489,4.4489,4.4489,4.4489,4.4489,4.4489,4.0984,4.0971,4.0927,4.0898,4.0867,4.0818,4.0796,4.0755,4.0684,4.0664,4.068,4.0621,4.0611,4.0593,4.0593,4.0586,4.0579,4.0552,4.0576,4.0565,4.055,4.0543,4.0515,4.0503,4.047,4.0413,4.0366,4.0326,4.0285,4.0225,4.0166,4.011,4.0566,4.1233,4.1923,4.2546,4.2819,4.3114,4.3445,4.3581,4.3649,4.3584,4.3608,4.3576,4.355,4.355,4.3499,4.3105,4.2941,4.2859,4.2283,4.2157,4.2865,4.2854,4.2899,4.3541,4.3822,4.4039,4.4218,4.424,4.4218,4.4203,4.4211,4.4124,4.407,4.4013,4.4013,4.4023,4.4005,4.3997,4.3997,4.3997,4.3997,4.3997,4.3997,4.3997,4.3997,4.3997,4.4005,4.4062,4.407,4.4147,4.4252,4.4314,4.438,4.4394,4.4394,4.4373,4.4344,4.43,4.4259,4.4195,4.4177,4.4203,4.4226,4.4263,4.4288,4.434,4.4354,4.4376,4.4418,4.4454,4.4487,4.4494,4.4508,4.4489,4.4489,4.4489,4.4489,4.4489,4.4489,4.4489,4.4489,4.4496,4.4517,4.0993,4.0982,4.0919,4.0891,4.0877,4.0823,4.0805,4.0787,4.0759,4.0739,4.0739,4.0704,4.0645,4.0631,4.0651,4.0624,4.0588,4.0584,4.0593,4.0598,4.0595,4.0573,4.0546,4.0531,4.0503,4.0466,4.0432,4.0366,4.0375,4.0311,4.0229,4.0694,4.1218,4.1996,4.2756,4.3335,4.3729,4.4052,4.4353,4.4602,4.4619,4.4592,4.4572,4.4549,4.4542,4.4535,4.447,4.3895,4.3801,4.3764,4.3119,4.3206,4.3776,4.3765,4.3781,4.4256,4.4265,4.4276,4.4336,4.43,4.43,4.4318,4.4307,4.4248,4.418,4.4116,4.407,4.4039,4.4023,4.3997,4.3997,4.3997,4.3997,4.3997,4.3997,4.3997,4.3997,4.3997,4.4055,4.4112,4.4173,4.4255,4.4329,4.4409,4.4451,4.4458,4.4458,4.4458,4.4404,4.4361,4.4322,4.427,4.4278,4.4285,4.4314,4.4344,4.438,4.4397,4.4437,4.4466,4.4501,4.4489,4.4501,4.4501,4.4489,4.4489,4.4489,4.4489,4.4489,4.4489,4.4489,4.4489,4.4503,4.453,4.4558,4.0988,4.0987,4.0919,4.0891,4.0899,4.0848,4.0806,4.0797,4.0809,4.0797,4.0794,4.0794,4.0752,4.0707,4.0723,4.0671,4.0641,4.0638,4.0631,4.0614,4.0598,4.0595,4.0592,4.0627,4.0834,4.071,4.0792,4.111,4.0704,4.0793,4.1165,4.1487,4.1733,4.2455,4.347,4.391,4.4268,4.4592,4.4676,4.4738,4.4718,4.468,4.4679,4.4612,4.4592,4.4572,4.4517,4.4477,4.4489,4.4489,4.4451,4.4376,4.4369,4.4388,4.4437,4.4442,4.4437,4.4423,4.4409,4.4373,4.4344,4.4336,4.4314,4.4314,4.4285,4.4188,4.4127,4.407,4.4055,4.4013,4.3997,4.3997,4.3997,4.3997,4.3997,4.4039,4.407,4.4085,4.4131,4.4203,4.427,4.4344,4.4354,4.4426,4.4461,4.4494,4.4501,4.4501,4.4487,4.4426,4.439,4.4344,4.4365,4.438,4.4394,4.4423,4.4444,4.4473,4.4487,4.4494,4.4489,4.4489,4.4489,4.4489,4.4489,4.4489,4.4489,4.4489,4.4489,4.4489,4.4489,4.4489,4.4517,4.4565,4.4599,4.099,4.0986,4.0945,4.0891,4.0905,4.0889,4.0851,4.0812,4.08,4.0796,4.0797,4.0797,4.079,4.0778,4.0775,4.0749,4.0746,4.0713,4.071,4.0745,4.073,4.0906,4.0835,4.1305,4.1427,4.1695,4.1955,4.2138,4.1981,4.2044,4.2163,4.2442,4.2754,4.3479,4.3963,4.4353,4.4769,4.4961,4.4889,4.4833,4.4783,4.4738,4.4692,4.4666,4.4646,4.4605,4.4558,4.4517,4.4503,4.4489,4.4489,4.4489,4.4489,4.4489,4.4489,4.4482,4.4468,4.448,4.4466,4.4444,4.4418,4.4426,4.4426,4.4404,4.4347,4.4248,4.4165,4.4135,4.4078,4.4047,4.3997,4.3997,4.4005,4.4005,4.4031,4.407,4.4135,4.4188,4.4214,4.4281,4.4365,4.439,4.4411,4.444,4.4475,4.4489,4.4489,4.4489,4.4508,4.4461,4.4461,4.4437,4.4458,4.4473,4.448,4.4473,4.448,4.4487,4.4501,4.4508,4.4489,4.4489,4.4489,4.4489,4.4489,4.4489,4.4489,4.4489,4.4489,4.4489,4.4515,4.4515,4.4558,4.4612,4.4652,4.0995,4.0992,4.0928,4.0898,4.09,4.0888,4.0875,4.084,4.0812,4.0809,4.0811,4.0809,4.0794,4.0794,4.0794,4.0794,4.0794,4.0794,4.109,4.1184,4.1282,4.1579,4.1809,4.211,4.2274,4.2562,4.2736,4.288,4.3014,4.2828,4.2776,4.3281,4.3847,4.4148,4.4405,4.4899,4.5055,4.5032,4.4986,4.4938,4.487,4.4833,4.4783,4.4751,4.4718,4.4679,4.4626,4.4578,4.4544,4.4524,4.451,4.4489,4.4489,4.4489,4.4489,4.4489,4.4482,4.4489,4.4489,4.4489,4.4489,4.4489,4.4489,4.4447,4.4433,4.4344,4.4259,4.4203,4.415,4.4119,4.4039,4.3997,4.4062,4.4078,4.4119,4.4169,4.4218,4.4274,4.4303,4.4358,4.4416,4.4458,4.4454,4.4461,4.4489,4.4489,4.4489,4.4564,4.4564,4.4658,4.462,4.4526,4.4545,4.4526,4.4494,4.4494,4.4501,4.4489,4.4489,4.4489,4.4489,4.4489,4.4489,4.4496,4.4496,4.4489,4.4489,4.4503,4.4496,4.4489,4.4515,4.4522,4.4585,4.4666,4.4686,4.0882,4.099,4.0928,4.0888,4.0905,4.09,4.089,4.0885,4.0826,4.0832,4.0823,4.0814,4.0809,4.08,4.0794,4.0794,4.089,4.1103,4.1467,4.1806,4.2063,4.2305,4.2713,4.3173,4.3361,4.3493,4.3637,4.3615,4.3604,4.3564,4.3805,4.4168,4.4348,4.4531,4.5009,4.5192,4.5164,4.5114,4.5062,4.5022,4.4986,4.495,4.4883,4.4821,4.4789,4.4776,4.4699,4.464,4.4619,4.4565,4.4524,4.4496,4.4489,4.4489,4.4489,4.4489,4.4489,4.4489,4.4489,4.4489,4.4489,4.4489,4.4489,4.4482,4.4468,4.4437,4.4336,4.427,4.4237,4.415,4.4062,4.4055,4.4101,4.4165,4.4207,4.4244,4.4307,4.4361,4.4383,4.4423,4.4458,4.4501,4.4501,4.4489,4.4508,4.4508,4.4601,4.4639,4.4733,4.4921,4.5003,4.4808,4.4677,4.462,4.4526,4.4489,4.4489,4.4489,4.4489,4.4489,4.4489,4.4489,4.4496,4.4517,4.451,4.4528,4.4524,4.4537,4.4524,4.4524,4.4558,4.4611,4.4652,4.4725,4.4745,4.0424,4.099,4.0926,4.0888,4.0886,4.09,4.0898,4.0896,4.089,4.0875,4.085,4.0829,4.0798,4.0808,4.0803,4.0816,4.0896,4.13,4.1703,4.2002,4.2733,4.3045,4.3437,4.4033,4.452,4.4718,4.4831,4.5002,4.4557,4.4694,4.493,4.5054,4.5097,4.5147,4.5152,4.5254,4.5216,4.5159,4.512,4.5074,4.4997,4.4949,4.4901,4.4858,4.4821,4.4815,4.477,4.4718,4.464,4.4599,4.4563,4.4517,4.4503,4.4503,4.4496,4.4489,4.4489,4.4489,4.4489,4.4489,4.4489,4.4489,4.4489,4.4489,4.4482,4.4475,4.4416,4.4351,4.4285,4.4173,4.4101,4.4142,4.4207,4.4233,4.4289,4.4329,4.4383,4.4426,4.4454,4.4461,4.4468,4.4508,4.4508,4.4526,4.4583,4.4714,4.5146,4.5221,4.5484,4.5491,4.5472,4.5172,4.4921,4.4639,4.4489,4.4489,4.4489,4.4489,4.4489,4.4496,4.4496,4.4489,4.4522,4.4784,4.4671,4.4589,4.4584,4.4761,4.4612,4.4619,4.4659,4.4699,4.4738,4.4751,4.4783]}]]